<?xml version="1.0" encoding="UTF-8" standalone="no" ?>
<gpx xmlns="http://www.topografix.com/GPX/1/1" xmlns:xsi="http://www.w3.org/2001/XMLSchema-instance" xsi:schemaLocation="http://www.topografix.com/GPX/1/1 http://www.topografix.com/GPX/1/1/gpx.xsd" version="1.1" creator="VisuGPX - https://www.visugpx.com">
  <metadata>
    <name>GFB 2026-03-26 La Roche-Vineuse</name>
    <desc><![CDATA[Départ de La Roche-Vineuse
Points de passage : Roche Coche, Le Perret, Berzé-le-Châtel, Le Bois Clair, Milly-Lamartine]]></desc>
  </metadata>
  <wpt lat="46.34869" lon="4.71481">
    <ele>235</ele>
    <name><![CDATA[Point de passage 1]]></name>
  </wpt>
  <wpt lat="46.34859" lon="4.71501">
    <ele>235</ele>
    <name><![CDATA[Point de passage 2]]></name>
  </wpt>
  <trk>
    <name><![CDATA[La Roche-Vineuse]]></name>
    <extensions>
      <line xmlns="http://www.topografix.com/GPX/gpx_style/0/2">
        <color>0000FF</color>
        <width>4</width>
      </line>
    </extensions>
    <trkseg>
      <trkpt lat="46.34869" lon="4.71481">
        <ele>235</ele>
        <time>2026-03-26T07:40:15.000Z</time>
      </trkpt>
      <trkpt lat="46.34869" lon="4.71486">
        <ele>235</ele>
        <time>2026-03-26T07:40:17.000Z</time>
      </trkpt>
      <trkpt lat="46.34878" lon="4.71485">
        <ele>235</ele>
        <time>2026-03-26T07:44:53.000Z</time>
      </trkpt>
      <trkpt lat="46.34886" lon="4.71479">
        <ele>236</ele>
        <time>2026-03-26T07:44:59.000Z</time>
      </trkpt>
      <trkpt lat="46.34894" lon="4.71474">
        <ele>236</ele>
        <time>2026-03-26T07:45:07.000Z</time>
      </trkpt>
      <trkpt lat="46.34904" lon="4.71476">
        <ele>236</ele>
        <time>2026-03-26T07:45:17.000Z</time>
      </trkpt>
      <trkpt lat="46.34913" lon="4.71471">
        <ele>236</ele>
        <time>2026-03-26T07:45:24.000Z</time>
      </trkpt>
      <trkpt lat="46.34923" lon="4.71472">
        <ele>236</ele>
        <time>2026-03-26T07:45:35.000Z</time>
      </trkpt>
      <trkpt lat="46.34932" lon="4.71477">
        <ele>238</ele>
        <time>2026-03-26T07:45:42.000Z</time>
      </trkpt>
      <trkpt lat="46.34941" lon="4.71481">
        <ele>239</ele>
        <time>2026-03-26T07:45:53.000Z</time>
      </trkpt>
      <trkpt lat="46.3495" lon="4.71478">
        <ele>240</ele>
        <time>2026-03-26T07:46:06.000Z</time>
      </trkpt>
      <trkpt lat="46.34959" lon="4.71471">
        <ele>243</ele>
        <time>2026-03-26T07:46:17.000Z</time>
      </trkpt>
      <trkpt lat="46.34968" lon="4.71466">
        <ele>247</ele>
        <time>2026-03-26T07:46:27.000Z</time>
      </trkpt>
      <trkpt lat="46.34977" lon="4.71462">
        <ele>249</ele>
        <time>2026-03-26T07:46:39.000Z</time>
      </trkpt>
      <trkpt lat="46.34987" lon="4.7146">
        <ele>250</ele>
        <time>2026-03-26T07:46:50.000Z</time>
      </trkpt>
      <trkpt lat="46.34997" lon="4.71462">
        <ele>252</ele>
        <time>2026-03-26T07:47:03.000Z</time>
      </trkpt>
      <trkpt lat="46.35006" lon="4.71464">
        <ele>255</ele>
        <time>2026-03-26T07:47:15.000Z</time>
      </trkpt>
      <trkpt lat="46.35014" lon="4.71466">
        <ele>258</ele>
        <time>2026-03-26T07:47:27.000Z</time>
      </trkpt>
      <trkpt lat="46.3502" lon="4.71475">
        <ele>260</ele>
        <time>2026-03-26T07:47:43.000Z</time>
      </trkpt>
      <trkpt lat="46.35024" lon="4.71486">
        <ele>265</ele>
        <time>2026-03-26T07:48:01.000Z</time>
      </trkpt>
      <trkpt lat="46.35029" lon="4.71499">
        <ele>266</ele>
        <time>2026-03-26T07:48:15.000Z</time>
      </trkpt>
      <trkpt lat="46.35036" lon="4.7151">
        <ele>268</ele>
        <time>2026-03-26T07:48:27.000Z</time>
      </trkpt>
      <trkpt lat="46.35043" lon="4.71516">
        <ele>270</ele>
        <time>2026-03-26T07:48:57.000Z</time>
      </trkpt>
      <trkpt lat="46.35047" lon="4.71529">
        <ele>271</ele>
        <time>2026-03-26T07:49:13.000Z</time>
      </trkpt>
      <trkpt lat="46.35052" lon="4.7154">
        <ele>273</ele>
        <time>2026-03-26T07:49:20.000Z</time>
      </trkpt>
      <trkpt lat="46.35058" lon="4.7155">
        <ele>276</ele>
        <time>2026-03-26T07:49:31.000Z</time>
      </trkpt>
      <trkpt lat="46.35066" lon="4.7155">
        <ele>277</ele>
        <time>2026-03-26T07:49:38.000Z</time>
      </trkpt>
      <trkpt lat="46.35075" lon="4.71548">
        <ele>278</ele>
        <time>2026-03-26T07:49:47.000Z</time>
      </trkpt>
      <trkpt lat="46.35085" lon="4.71546">
        <ele>279</ele>
        <time>2026-03-26T07:49:57.000Z</time>
      </trkpt>
      <trkpt lat="46.35095" lon="4.71544">
        <ele>279</ele>
        <time>2026-03-26T07:50:08.000Z</time>
      </trkpt>
      <trkpt lat="46.35103" lon="4.71535">
        <ele>280</ele>
        <time>2026-03-26T07:50:16.000Z</time>
      </trkpt>
      <trkpt lat="46.35113" lon="4.7153">
        <ele>280</ele>
        <time>2026-03-26T07:50:26.000Z</time>
      </trkpt>
      <trkpt lat="46.3512" lon="4.7153">
        <ele>281</ele>
        <time>2026-03-26T07:50:46.000Z</time>
      </trkpt>
      <trkpt lat="46.3512" lon="4.71542">
        <ele>283</ele>
        <time>2026-03-26T07:51:20.000Z</time>
      </trkpt>
      <trkpt lat="46.35119" lon="4.71556">
        <ele>283</ele>
        <time>2026-03-26T07:51:28.000Z</time>
      </trkpt>
      <trkpt lat="46.35121" lon="4.7157">
        <ele>284</ele>
        <time>2026-03-26T07:51:37.000Z</time>
      </trkpt>
      <trkpt lat="46.35126" lon="4.71582">
        <ele>286</ele>
        <time>2026-03-26T07:51:45.000Z</time>
      </trkpt>
      <trkpt lat="46.35134" lon="4.7159">
        <ele>288</ele>
        <time>2026-03-26T07:51:53.000Z</time>
      </trkpt>
      <trkpt lat="46.35145" lon="4.71595">
        <ele>290</ele>
        <time>2026-03-26T07:52:20.000Z</time>
      </trkpt>
      <trkpt lat="46.35156" lon="4.71599">
        <ele>291</ele>
        <time>2026-03-26T07:52:29.000Z</time>
      </trkpt>
      <trkpt lat="46.35165" lon="4.716">
        <ele>292</ele>
        <time>2026-03-26T07:52:36.000Z</time>
      </trkpt>
      <trkpt lat="46.35176" lon="4.71598">
        <ele>293</ele>
        <time>2026-03-26T07:52:45.000Z</time>
      </trkpt>
      <trkpt lat="46.35185" lon="4.71598">
        <ele>294</ele>
        <time>2026-03-26T07:52:55.000Z</time>
      </trkpt>
      <trkpt lat="46.35195" lon="4.71599">
        <ele>296</ele>
        <time>2026-03-26T07:53:04.000Z</time>
      </trkpt>
      <trkpt lat="46.35204" lon="4.71597">
        <ele>296</ele>
        <time>2026-03-26T07:53:12.000Z</time>
      </trkpt>
      <trkpt lat="46.35213" lon="4.71599">
        <ele>298</ele>
        <time>2026-03-26T07:53:20.000Z</time>
      </trkpt>
      <trkpt lat="46.35222" lon="4.71601">
        <ele>299</ele>
        <time>2026-03-26T07:53:28.000Z</time>
      </trkpt>
      <trkpt lat="46.35231" lon="4.71603">
        <ele>299</ele>
        <time>2026-03-26T07:53:36.000Z</time>
      </trkpt>
      <trkpt lat="46.3524" lon="4.71606">
        <ele>301</ele>
        <time>2026-03-26T07:53:44.000Z</time>
      </trkpt>
      <trkpt lat="46.35249" lon="4.71609">
        <ele>301</ele>
        <time>2026-03-26T07:53:51.000Z</time>
      </trkpt>
      <trkpt lat="46.35259" lon="4.71611">
        <ele>303</ele>
        <time>2026-03-26T07:54:02.000Z</time>
      </trkpt>
      <trkpt lat="46.3527" lon="4.71612">
        <ele>304</ele>
        <time>2026-03-26T07:54:13.000Z</time>
      </trkpt>
      <trkpt lat="46.3528" lon="4.71612">
        <ele>305</ele>
        <time>2026-03-26T07:54:23.000Z</time>
      </trkpt>
      <trkpt lat="46.35289" lon="4.7161">
        <ele>306</ele>
        <time>2026-03-26T07:54:33.000Z</time>
      </trkpt>
      <trkpt lat="46.35298" lon="4.71608">
        <ele>307</ele>
        <time>2026-03-26T07:54:41.000Z</time>
      </trkpt>
      <trkpt lat="46.35307" lon="4.71609">
        <ele>308</ele>
        <time>2026-03-26T07:54:49.000Z</time>
      </trkpt>
      <trkpt lat="46.35317" lon="4.71611">
        <ele>309</ele>
        <time>2026-03-26T07:54:58.000Z</time>
      </trkpt>
      <trkpt lat="46.35326" lon="4.71613">
        <ele>310</ele>
        <time>2026-03-26T07:55:05.000Z</time>
      </trkpt>
      <trkpt lat="46.35335" lon="4.71616">
        <ele>312</ele>
        <time>2026-03-26T07:55:12.000Z</time>
      </trkpt>
      <trkpt lat="46.35345" lon="4.71618">
        <ele>313</ele>
        <time>2026-03-26T07:55:21.000Z</time>
      </trkpt>
      <trkpt lat="46.35355" lon="4.71618">
        <ele>313</ele>
        <time>2026-03-26T07:55:31.000Z</time>
      </trkpt>
      <trkpt lat="46.35365" lon="4.7162">
        <ele>314</ele>
        <time>2026-03-26T07:55:41.000Z</time>
      </trkpt>
      <trkpt lat="46.35376" lon="4.71622">
        <ele>315</ele>
        <time>2026-03-26T07:55:50.000Z</time>
      </trkpt>
      <trkpt lat="46.35385" lon="4.71624">
        <ele>316</ele>
        <time>2026-03-26T07:56:00.000Z</time>
      </trkpt>
      <trkpt lat="46.35395" lon="4.71626">
        <ele>317</ele>
        <time>2026-03-26T07:56:08.000Z</time>
      </trkpt>
      <trkpt lat="46.35405" lon="4.71626">
        <ele>319</ele>
        <time>2026-03-26T07:56:18.000Z</time>
      </trkpt>
      <trkpt lat="46.35415" lon="4.71624">
        <ele>320</ele>
        <time>2026-03-26T07:56:28.000Z</time>
      </trkpt>
      <trkpt lat="46.35424" lon="4.71626">
        <ele>322</ele>
        <time>2026-03-26T07:56:37.000Z</time>
      </trkpt>
      <trkpt lat="46.35434" lon="4.71628">
        <ele>322</ele>
        <time>2026-03-26T07:56:46.000Z</time>
      </trkpt>
      <trkpt lat="46.35444" lon="4.71629">
        <ele>324</ele>
        <time>2026-03-26T07:56:57.000Z</time>
      </trkpt>
      <trkpt lat="46.35454" lon="4.71628">
        <ele>325</ele>
        <time>2026-03-26T07:57:05.000Z</time>
      </trkpt>
      <trkpt lat="46.35464" lon="4.71626">
        <ele>327</ele>
        <time>2026-03-26T07:57:14.000Z</time>
      </trkpt>
      <trkpt lat="46.35474" lon="4.71625">
        <ele>328</ele>
        <time>2026-03-26T07:57:22.000Z</time>
      </trkpt>
      <trkpt lat="46.35483" lon="4.71626">
        <ele>329</ele>
        <time>2026-03-26T07:57:31.000Z</time>
      </trkpt>
      <trkpt lat="46.35493" lon="4.71627">
        <ele>330</ele>
        <time>2026-03-26T07:57:40.000Z</time>
      </trkpt>
      <trkpt lat="46.35503" lon="4.71628">
        <ele>331</ele>
        <time>2026-03-26T07:57:48.000Z</time>
      </trkpt>
      <trkpt lat="46.35513" lon="4.71629">
        <ele>332</ele>
        <time>2026-03-26T07:57:59.000Z</time>
      </trkpt>
      <trkpt lat="46.35523" lon="4.71628">
        <ele>333</ele>
        <time>2026-03-26T07:58:09.000Z</time>
      </trkpt>
      <trkpt lat="46.35532" lon="4.71627">
        <ele>334</ele>
        <time>2026-03-26T07:58:22.000Z</time>
      </trkpt>
      <trkpt lat="46.35542" lon="4.71622">
        <ele>335</ele>
        <time>2026-03-26T07:59:04.000Z</time>
      </trkpt>
      <trkpt lat="46.35551" lon="4.71616">
        <ele>336</ele>
        <time>2026-03-26T07:59:12.000Z</time>
      </trkpt>
      <trkpt lat="46.3556" lon="4.71613">
        <ele>338</ele>
        <time>2026-03-26T07:59:18.000Z</time>
      </trkpt>
      <trkpt lat="46.3557" lon="4.71616">
        <ele>339</ele>
        <time>2026-03-26T07:59:27.000Z</time>
      </trkpt>
      <trkpt lat="46.35578" lon="4.71621">
        <ele>340</ele>
        <time>2026-03-26T07:59:34.000Z</time>
      </trkpt>
      <trkpt lat="46.35588" lon="4.71616">
        <ele>341</ele>
        <time>2026-03-26T07:59:43.000Z</time>
      </trkpt>
      <trkpt lat="46.35597" lon="4.71611">
        <ele>342</ele>
        <time>2026-03-26T07:59:52.000Z</time>
      </trkpt>
      <trkpt lat="46.35608" lon="4.71611">
        <ele>343</ele>
        <time>2026-03-26T08:00:01.000Z</time>
      </trkpt>
      <trkpt lat="46.35617" lon="4.7161">
        <ele>344</ele>
        <time>2026-03-26T08:00:09.000Z</time>
      </trkpt>
      <trkpt lat="46.35626" lon="4.71608">
        <ele>345</ele>
        <time>2026-03-26T08:00:19.000Z</time>
      </trkpt>
      <trkpt lat="46.35635" lon="4.71607">
        <ele>345</ele>
        <time>2026-03-26T08:00:30.000Z</time>
      </trkpt>
      <trkpt lat="46.35644" lon="4.71605">
        <ele>347</ele>
        <time>2026-03-26T08:00:42.000Z</time>
      </trkpt>
      <trkpt lat="46.35653" lon="4.71606">
        <ele>347</ele>
        <time>2026-03-26T08:00:52.000Z</time>
      </trkpt>
      <trkpt lat="46.35664" lon="4.71606">
        <ele>348</ele>
        <time>2026-03-26T08:01:01.000Z</time>
      </trkpt>
      <trkpt lat="46.35675" lon="4.71606">
        <ele>349</ele>
        <time>2026-03-26T08:01:11.000Z</time>
      </trkpt>
      <trkpt lat="46.35685" lon="4.71608">
        <ele>351</ele>
        <time>2026-03-26T08:01:19.000Z</time>
      </trkpt>
      <trkpt lat="46.35694" lon="4.71609">
        <ele>351</ele>
        <time>2026-03-26T08:01:28.000Z</time>
      </trkpt>
      <trkpt lat="46.35704" lon="4.7161">
        <ele>352</ele>
        <time>2026-03-26T08:01:37.000Z</time>
      </trkpt>
      <trkpt lat="46.35713" lon="4.7161">
        <ele>353</ele>
        <time>2026-03-26T08:01:46.000Z</time>
      </trkpt>
      <trkpt lat="46.35723" lon="4.71608">
        <ele>354</ele>
        <time>2026-03-26T08:01:56.000Z</time>
      </trkpt>
      <trkpt lat="46.35733" lon="4.71606">
        <ele>355</ele>
        <time>2026-03-26T08:02:07.000Z</time>
      </trkpt>
      <trkpt lat="46.35743" lon="4.71605">
        <ele>355</ele>
        <time>2026-03-26T08:02:19.000Z</time>
      </trkpt>
      <trkpt lat="46.35753" lon="4.71604">
        <ele>356</ele>
        <time>2026-03-26T08:02:30.000Z</time>
      </trkpt>
      <trkpt lat="46.35762" lon="4.71604">
        <ele>357</ele>
        <time>2026-03-26T08:02:39.000Z</time>
      </trkpt>
      <trkpt lat="46.35771" lon="4.71603">
        <ele>358</ele>
        <time>2026-03-26T08:02:50.000Z</time>
      </trkpt>
      <trkpt lat="46.3578" lon="4.71604">
        <ele>359</ele>
        <time>2026-03-26T08:02:59.000Z</time>
      </trkpt>
      <trkpt lat="46.35789" lon="4.71606">
        <ele>360</ele>
        <time>2026-03-26T08:03:09.000Z</time>
      </trkpt>
      <trkpt lat="46.35798" lon="4.71608">
        <ele>361</ele>
        <time>2026-03-26T08:03:17.000Z</time>
      </trkpt>
      <trkpt lat="46.35809" lon="4.71609">
        <ele>362</ele>
        <time>2026-03-26T08:03:27.000Z</time>
      </trkpt>
      <trkpt lat="46.35819" lon="4.71608">
        <ele>363</ele>
        <time>2026-03-26T08:03:36.000Z</time>
      </trkpt>
      <trkpt lat="46.35829" lon="4.71608">
        <ele>364</ele>
        <time>2026-03-26T08:03:44.000Z</time>
      </trkpt>
      <trkpt lat="46.35838" lon="4.71609">
        <ele>364</ele>
        <time>2026-03-26T08:03:53.000Z</time>
      </trkpt>
      <trkpt lat="46.35849" lon="4.71613">
        <ele>366</ele>
        <time>2026-03-26T08:04:03.000Z</time>
      </trkpt>
      <trkpt lat="46.35859" lon="4.71616">
        <ele>367</ele>
        <time>2026-03-26T08:04:12.000Z</time>
      </trkpt>
      <trkpt lat="46.35868" lon="4.71617">
        <ele>368</ele>
        <time>2026-03-26T08:04:21.000Z</time>
      </trkpt>
      <trkpt lat="46.35879" lon="4.71616">
        <ele>369</ele>
        <time>2026-03-26T08:04:31.000Z</time>
      </trkpt>
      <trkpt lat="46.35889" lon="4.71616">
        <ele>370</ele>
        <time>2026-03-26T08:04:41.000Z</time>
      </trkpt>
      <trkpt lat="46.35898" lon="4.71616">
        <ele>371</ele>
        <time>2026-03-26T08:04:51.000Z</time>
      </trkpt>
      <trkpt lat="46.35908" lon="4.71618">
        <ele>372</ele>
        <time>2026-03-26T08:05:05.000Z</time>
      </trkpt>
      <trkpt lat="46.35917" lon="4.7162">
        <ele>373</ele>
        <time>2026-03-26T08:05:12.000Z</time>
      </trkpt>
      <trkpt lat="46.35927" lon="4.71619">
        <ele>374</ele>
        <time>2026-03-26T08:05:21.000Z</time>
      </trkpt>
      <trkpt lat="46.35938" lon="4.71616">
        <ele>375</ele>
        <time>2026-03-26T08:05:28.000Z</time>
      </trkpt>
      <trkpt lat="46.35948" lon="4.71615">
        <ele>376</ele>
        <time>2026-03-26T08:05:35.000Z</time>
      </trkpt>
      <trkpt lat="46.35958" lon="4.71616">
        <ele>377</ele>
        <time>2026-03-26T08:05:44.000Z</time>
      </trkpt>
      <trkpt lat="46.35968" lon="4.71616">
        <ele>378</ele>
        <time>2026-03-26T08:05:52.000Z</time>
      </trkpt>
      <trkpt lat="46.35977" lon="4.71615">
        <ele>379</ele>
        <time>2026-03-26T08:06:00.000Z</time>
      </trkpt>
      <trkpt lat="46.35987" lon="4.71611">
        <ele>380</ele>
        <time>2026-03-26T08:06:10.000Z</time>
      </trkpt>
      <trkpt lat="46.35996" lon="4.7161">
        <ele>381</ele>
        <time>2026-03-26T08:06:19.000Z</time>
      </trkpt>
      <trkpt lat="46.36005" lon="4.71612">
        <ele>383</ele>
        <time>2026-03-26T08:06:27.000Z</time>
      </trkpt>
      <trkpt lat="46.36014" lon="4.71614">
        <ele>384</ele>
        <time>2026-03-26T08:06:35.000Z</time>
      </trkpt>
      <trkpt lat="46.36023" lon="4.71613">
        <ele>385</ele>
        <time>2026-03-26T08:06:46.000Z</time>
      </trkpt>
      <trkpt lat="46.36033" lon="4.71612">
        <ele>386</ele>
        <time>2026-03-26T08:06:54.000Z</time>
      </trkpt>
      <trkpt lat="46.36042" lon="4.71612">
        <ele>387</ele>
        <time>2026-03-26T08:07:05.000Z</time>
      </trkpt>
      <trkpt lat="46.36051" lon="4.71613">
        <ele>388</ele>
        <time>2026-03-26T08:07:13.000Z</time>
      </trkpt>
      <trkpt lat="46.3606" lon="4.71613">
        <ele>389</ele>
        <time>2026-03-26T08:07:22.000Z</time>
      </trkpt>
      <trkpt lat="46.3607" lon="4.71612">
        <ele>390</ele>
        <time>2026-03-26T08:07:31.000Z</time>
      </trkpt>
      <trkpt lat="46.36079" lon="4.71612">
        <ele>391</ele>
        <time>2026-03-26T08:07:41.000Z</time>
      </trkpt>
      <trkpt lat="46.36089" lon="4.71612">
        <ele>392</ele>
        <time>2026-03-26T08:07:50.000Z</time>
      </trkpt>
      <trkpt lat="46.36098" lon="4.71611">
        <ele>393</ele>
        <time>2026-03-26T08:07:58.000Z</time>
      </trkpt>
      <trkpt lat="46.36107" lon="4.71611">
        <ele>394</ele>
        <time>2026-03-26T08:08:06.000Z</time>
      </trkpt>
      <trkpt lat="46.36117" lon="4.7161">
        <ele>395</ele>
        <time>2026-03-26T08:08:15.000Z</time>
      </trkpt>
      <trkpt lat="46.36126" lon="4.71609">
        <ele>396</ele>
        <time>2026-03-26T08:08:24.000Z</time>
      </trkpt>
      <trkpt lat="46.36136" lon="4.71609">
        <ele>397</ele>
        <time>2026-03-26T08:08:34.000Z</time>
      </trkpt>
      <trkpt lat="46.36147" lon="4.71609">
        <ele>398</ele>
        <time>2026-03-26T08:08:43.000Z</time>
      </trkpt>
      <trkpt lat="46.36156" lon="4.7161">
        <ele>399</ele>
        <time>2026-03-26T08:08:51.000Z</time>
      </trkpt>
      <trkpt lat="46.36166" lon="4.71611">
        <ele>400</ele>
        <time>2026-03-26T08:09:00.000Z</time>
      </trkpt>
      <trkpt lat="46.36176" lon="4.7161">
        <ele>401</ele>
        <time>2026-03-26T08:09:08.000Z</time>
      </trkpt>
      <trkpt lat="46.36185" lon="4.71608">
        <ele>402</ele>
        <time>2026-03-26T08:09:17.000Z</time>
      </trkpt>
      <trkpt lat="46.36195" lon="4.71607">
        <ele>402</ele>
        <time>2026-03-26T08:09:26.000Z</time>
      </trkpt>
      <trkpt lat="46.36204" lon="4.71607">
        <ele>404</ele>
        <time>2026-03-26T08:09:35.000Z</time>
      </trkpt>
      <trkpt lat="46.36215" lon="4.71607">
        <ele>404</ele>
        <time>2026-03-26T08:09:45.000Z</time>
      </trkpt>
      <trkpt lat="46.36226" lon="4.71608">
        <ele>406</ele>
        <time>2026-03-26T08:09:54.000Z</time>
      </trkpt>
      <trkpt lat="46.36236" lon="4.71608">
        <ele>406</ele>
        <time>2026-03-26T08:10:02.000Z</time>
      </trkpt>
      <trkpt lat="46.36246" lon="4.71609">
        <ele>406</ele>
        <time>2026-03-26T08:10:11.000Z</time>
      </trkpt>
      <trkpt lat="46.36256" lon="4.71608">
        <ele>408</ele>
        <time>2026-03-26T08:10:20.000Z</time>
      </trkpt>
      <trkpt lat="46.36265" lon="4.71609">
        <ele>408</ele>
        <time>2026-03-26T08:10:28.000Z</time>
      </trkpt>
      <trkpt lat="46.36274" lon="4.71612">
        <ele>409</ele>
        <time>2026-03-26T08:10:38.000Z</time>
      </trkpt>
      <trkpt lat="46.36283" lon="4.71613">
        <ele>410</ele>
        <time>2026-03-26T08:10:47.000Z</time>
      </trkpt>
      <trkpt lat="46.36293" lon="4.71614">
        <ele>411</ele>
        <time>2026-03-26T08:10:59.000Z</time>
      </trkpt>
      <trkpt lat="46.36305" lon="4.71614">
        <ele>412</ele>
        <time>2026-03-26T08:11:09.000Z</time>
      </trkpt>
      <trkpt lat="46.36315" lon="4.71615">
        <ele>413</ele>
        <time>2026-03-26T08:11:17.000Z</time>
      </trkpt>
      <trkpt lat="46.36325" lon="4.71616">
        <ele>414</ele>
        <time>2026-03-26T08:11:26.000Z</time>
      </trkpt>
      <trkpt lat="46.36335" lon="4.71617">
        <ele>415</ele>
        <time>2026-03-26T08:11:34.000Z</time>
      </trkpt>
      <trkpt lat="46.36345" lon="4.71619">
        <ele>416</ele>
        <time>2026-03-26T08:11:43.000Z</time>
      </trkpt>
      <trkpt lat="46.36353" lon="4.71623">
        <ele>417</ele>
        <time>2026-03-26T08:11:53.000Z</time>
      </trkpt>
      <trkpt lat="46.36355" lon="4.71631">
        <ele>416</ele>
        <time>2026-03-26T08:12:16.000Z</time>
      </trkpt>
      <trkpt lat="46.36361" lon="4.71626">
        <ele>418</ele>
        <time>2026-03-26T08:13:16.000Z</time>
      </trkpt>
      <trkpt lat="46.3637" lon="4.71627">
        <ele>418</ele>
        <time>2026-03-26T08:13:22.000Z</time>
      </trkpt>
      <trkpt lat="46.36379" lon="4.71627">
        <ele>418</ele>
        <time>2026-03-26T08:13:28.000Z</time>
      </trkpt>
      <trkpt lat="46.3639" lon="4.71625">
        <ele>420</ele>
        <time>2026-03-26T08:13:36.000Z</time>
      </trkpt>
      <trkpt lat="46.364" lon="4.71625">
        <ele>420</ele>
        <time>2026-03-26T08:13:42.000Z</time>
      </trkpt>
      <trkpt lat="46.3641" lon="4.71624">
        <ele>422</ele>
        <time>2026-03-26T08:13:51.000Z</time>
      </trkpt>
      <trkpt lat="46.36419" lon="4.71621">
        <ele>422</ele>
        <time>2026-03-26T08:14:07.000Z</time>
      </trkpt>
      <trkpt lat="46.36424" lon="4.71611">
        <ele>424</ele>
        <time>2026-03-26T08:14:14.000Z</time>
      </trkpt>
      <trkpt lat="46.36432" lon="4.71602">
        <ele>425</ele>
        <time>2026-03-26T08:14:25.000Z</time>
      </trkpt>
      <trkpt lat="46.36438" lon="4.71593">
        <ele>426</ele>
        <time>2026-03-26T08:14:31.000Z</time>
      </trkpt>
      <trkpt lat="46.36443" lon="4.7158">
        <ele>427</ele>
        <time>2026-03-26T08:14:40.000Z</time>
      </trkpt>
      <trkpt lat="46.36448" lon="4.71568">
        <ele>427</ele>
        <time>2026-03-26T08:14:48.000Z</time>
      </trkpt>
      <trkpt lat="46.36454" lon="4.71558">
        <ele>428</ele>
        <time>2026-03-26T08:14:55.000Z</time>
      </trkpt>
      <trkpt lat="46.36461" lon="4.7155">
        <ele>429</ele>
        <time>2026-03-26T08:15:04.000Z</time>
      </trkpt>
      <trkpt lat="46.36467" lon="4.71541">
        <ele>429</ele>
        <time>2026-03-26T08:15:15.000Z</time>
      </trkpt>
      <trkpt lat="46.36472" lon="4.71529">
        <ele>429</ele>
        <time>2026-03-26T08:15:26.000Z</time>
      </trkpt>
      <trkpt lat="46.36478" lon="4.71518">
        <ele>430</ele>
        <time>2026-03-26T08:15:34.000Z</time>
      </trkpt>
      <trkpt lat="46.36484" lon="4.71505">
        <ele>430</ele>
        <time>2026-03-26T08:15:43.000Z</time>
      </trkpt>
      <trkpt lat="46.3649" lon="4.71495">
        <ele>431</ele>
        <time>2026-03-26T08:15:50.000Z</time>
      </trkpt>
      <trkpt lat="46.36495" lon="4.71483">
        <ele>433</ele>
        <time>2026-03-26T08:15:58.000Z</time>
      </trkpt>
      <trkpt lat="46.365" lon="4.71471">
        <ele>434</ele>
        <time>2026-03-26T08:16:07.000Z</time>
      </trkpt>
      <trkpt lat="46.36502" lon="4.71457">
        <ele>435</ele>
        <time>2026-03-26T08:16:20.000Z</time>
      </trkpt>
      <trkpt lat="46.36498" lon="4.71442">
        <ele>435</ele>
        <time>2026-03-26T08:16:41.000Z</time>
      </trkpt>
      <trkpt lat="46.36493" lon="4.71428">
        <ele>435</ele>
        <time>2026-03-26T08:18:15.000Z</time>
      </trkpt>
      <trkpt lat="46.36485" lon="4.71424">
        <ele>434</ele>
        <time>2026-03-26T08:18:19.000Z</time>
      </trkpt>
      <trkpt lat="46.36477" lon="4.71416">
        <ele>433</ele>
        <time>2026-03-26T08:18:25.000Z</time>
      </trkpt>
      <trkpt lat="46.36469" lon="4.71406">
        <ele>432</ele>
        <time>2026-03-26T08:18:32.000Z</time>
      </trkpt>
      <trkpt lat="46.3646" lon="4.71399">
        <ele>431</ele>
        <time>2026-03-26T08:18:38.000Z</time>
      </trkpt>
      <trkpt lat="46.36452" lon="4.71391">
        <ele>430</ele>
        <time>2026-03-26T08:18:44.000Z</time>
      </trkpt>
      <trkpt lat="46.36445" lon="4.71382">
        <ele>430</ele>
        <time>2026-03-26T08:18:50.000Z</time>
      </trkpt>
      <trkpt lat="46.36438" lon="4.71373">
        <ele>430</ele>
        <time>2026-03-26T08:18:56.000Z</time>
      </trkpt>
      <trkpt lat="46.3643" lon="4.71362">
        <ele>429</ele>
        <time>2026-03-26T08:19:04.000Z</time>
      </trkpt>
      <trkpt lat="46.36422" lon="4.71354">
        <ele>429</ele>
        <time>2026-03-26T08:19:11.000Z</time>
      </trkpt>
      <trkpt lat="46.36412" lon="4.71351">
        <ele>427</ele>
        <time>2026-03-26T08:19:19.000Z</time>
      </trkpt>
      <trkpt lat="46.36403" lon="4.71347">
        <ele>426</ele>
        <time>2026-03-26T08:19:25.000Z</time>
      </trkpt>
      <trkpt lat="46.36395" lon="4.71342">
        <ele>426</ele>
        <time>2026-03-26T08:19:31.000Z</time>
      </trkpt>
      <trkpt lat="46.36386" lon="4.71337">
        <ele>424</ele>
        <time>2026-03-26T08:19:37.000Z</time>
      </trkpt>
      <trkpt lat="46.36377" lon="4.71331">
        <ele>424</ele>
        <time>2026-03-26T08:19:43.000Z</time>
      </trkpt>
      <trkpt lat="46.36369" lon="4.71325">
        <ele>423</ele>
        <time>2026-03-26T08:19:51.000Z</time>
      </trkpt>
      <trkpt lat="46.36359" lon="4.7132">
        <ele>423</ele>
        <time>2026-03-26T08:20:00.000Z</time>
      </trkpt>
      <trkpt lat="46.36351" lon="4.71313">
        <ele>424</ele>
        <time>2026-03-26T08:20:09.000Z</time>
      </trkpt>
      <trkpt lat="46.36342" lon="4.71307">
        <ele>422</ele>
        <time>2026-03-26T08:20:21.000Z</time>
      </trkpt>
      <trkpt lat="46.36333" lon="4.71301">
        <ele>420</ele>
        <time>2026-03-26T08:20:32.000Z</time>
      </trkpt>
      <trkpt lat="46.36324" lon="4.713">
        <ele>416</ele>
        <time>2026-03-26T08:20:45.000Z</time>
      </trkpt>
      <trkpt lat="46.36315" lon="4.71296">
        <ele>415</ele>
        <time>2026-03-26T08:20:56.000Z</time>
      </trkpt>
      <trkpt lat="46.36307" lon="4.71291">
        <ele>414</ele>
        <time>2026-03-26T08:21:07.000Z</time>
      </trkpt>
      <trkpt lat="46.363" lon="4.71285">
        <ele>413</ele>
        <time>2026-03-26T08:21:17.000Z</time>
      </trkpt>
      <trkpt lat="46.36291" lon="4.71279">
        <ele>411</ele>
        <time>2026-03-26T08:21:28.000Z</time>
      </trkpt>
      <trkpt lat="46.36283" lon="4.71274">
        <ele>410</ele>
        <time>2026-03-26T08:21:37.000Z</time>
      </trkpt>
      <trkpt lat="46.36275" lon="4.71262">
        <ele>411</ele>
        <time>2026-03-26T08:22:32.000Z</time>
      </trkpt>
      <trkpt lat="46.36265" lon="4.71257">
        <ele>409</ele>
        <time>2026-03-26T08:22:38.000Z</time>
      </trkpt>
      <trkpt lat="46.36256" lon="4.71255">
        <ele>407</ele>
        <time>2026-03-26T08:22:44.000Z</time>
      </trkpt>
      <trkpt lat="46.36245" lon="4.71251">
        <ele>404</ele>
        <time>2026-03-26T08:22:51.000Z</time>
      </trkpt>
      <trkpt lat="46.36236" lon="4.71246">
        <ele>405</ele>
        <time>2026-03-26T08:22:58.000Z</time>
      </trkpt>
      <trkpt lat="46.36227" lon="4.71239">
        <ele>405</ele>
        <time>2026-03-26T08:23:05.000Z</time>
      </trkpt>
      <trkpt lat="46.36218" lon="4.71232">
        <ele>405</ele>
        <time>2026-03-26T08:23:13.000Z</time>
      </trkpt>
      <trkpt lat="46.3621" lon="4.71227">
        <ele>405</ele>
        <time>2026-03-26T08:23:18.000Z</time>
      </trkpt>
      <trkpt lat="46.36202" lon="4.71223">
        <ele>405</ele>
        <time>2026-03-26T08:23:25.000Z</time>
      </trkpt>
      <trkpt lat="46.36194" lon="4.71219">
        <ele>405</ele>
        <time>2026-03-26T08:23:30.000Z</time>
      </trkpt>
      <trkpt lat="46.36184" lon="4.71213">
        <ele>403</ele>
        <time>2026-03-26T08:23:38.000Z</time>
      </trkpt>
      <trkpt lat="46.36176" lon="4.71209">
        <ele>403</ele>
        <time>2026-03-26T08:23:44.000Z</time>
      </trkpt>
      <trkpt lat="46.36168" lon="4.71204">
        <ele>403</ele>
        <time>2026-03-26T08:23:49.000Z</time>
      </trkpt>
      <trkpt lat="46.3616" lon="4.71198">
        <ele>404</ele>
        <time>2026-03-26T08:23:55.000Z</time>
      </trkpt>
      <trkpt lat="46.36152" lon="4.71192">
        <ele>405</ele>
        <time>2026-03-26T08:24:01.000Z</time>
      </trkpt>
      <trkpt lat="46.36144" lon="4.71188">
        <ele>405</ele>
        <time>2026-03-26T08:24:07.000Z</time>
      </trkpt>
      <trkpt lat="46.36136" lon="4.71184">
        <ele>404</ele>
        <time>2026-03-26T08:24:13.000Z</time>
      </trkpt>
      <trkpt lat="46.36127" lon="4.71178">
        <ele>404</ele>
        <time>2026-03-26T08:24:19.000Z</time>
      </trkpt>
      <trkpt lat="46.36119" lon="4.71173">
        <ele>404</ele>
        <time>2026-03-26T08:24:27.000Z</time>
      </trkpt>
      <trkpt lat="46.36126" lon="4.71171">
        <ele>404</ele>
        <time>2026-03-26T08:27:14.000Z</time>
      </trkpt>
      <trkpt lat="46.36136" lon="4.71162">
        <ele>406</ele>
        <time>2026-03-26T08:27:20.000Z</time>
      </trkpt>
      <trkpt lat="46.36145" lon="4.71155">
        <ele>408</ele>
        <time>2026-03-26T08:27:26.000Z</time>
      </trkpt>
      <trkpt lat="46.36154" lon="4.71154">
        <ele>409</ele>
        <time>2026-03-26T08:27:34.000Z</time>
      </trkpt>
      <trkpt lat="46.36164" lon="4.71152">
        <ele>411</ele>
        <time>2026-03-26T08:27:42.000Z</time>
      </trkpt>
      <trkpt lat="46.36174" lon="4.71152">
        <ele>413</ele>
        <time>2026-03-26T08:27:55.000Z</time>
      </trkpt>
      <trkpt lat="46.36183" lon="4.71151">
        <ele>415</ele>
        <time>2026-03-26T08:28:05.000Z</time>
      </trkpt>
      <trkpt lat="46.36192" lon="4.71153">
        <ele>417</ele>
        <time>2026-03-26T08:28:15.000Z</time>
      </trkpt>
      <trkpt lat="46.362" lon="4.7116">
        <ele>419</ele>
        <time>2026-03-26T08:28:28.000Z</time>
      </trkpt>
      <trkpt lat="46.36209" lon="4.71166">
        <ele>421</ele>
        <time>2026-03-26T08:28:44.000Z</time>
      </trkpt>
      <trkpt lat="46.36218" lon="4.71171">
        <ele>423</ele>
        <time>2026-03-26T08:29:02.000Z</time>
      </trkpt>
      <trkpt lat="46.36228" lon="4.71172">
        <ele>424</ele>
        <time>2026-03-26T08:29:11.000Z</time>
      </trkpt>
      <trkpt lat="46.36237" lon="4.71171">
        <ele>425</ele>
        <time>2026-03-26T08:29:29.000Z</time>
      </trkpt>
      <trkpt lat="46.36247" lon="4.7117">
        <ele>428</ele>
        <time>2026-03-26T08:29:37.000Z</time>
      </trkpt>
      <trkpt lat="46.36257" lon="4.71167">
        <ele>430</ele>
        <time>2026-03-26T08:29:45.000Z</time>
      </trkpt>
      <trkpt lat="46.36267" lon="4.71167">
        <ele>432</ele>
        <time>2026-03-26T08:30:03.000Z</time>
      </trkpt>
      <trkpt lat="46.36277" lon="4.71169">
        <ele>434</ele>
        <time>2026-03-26T08:30:15.000Z</time>
      </trkpt>
      <trkpt lat="46.36286" lon="4.71173">
        <ele>435</ele>
        <time>2026-03-26T08:30:30.000Z</time>
      </trkpt>
      <trkpt lat="46.36296" lon="4.71177">
        <ele>437</ele>
        <time>2026-03-26T08:30:45.000Z</time>
      </trkpt>
      <trkpt lat="46.36305" lon="4.71178">
        <ele>438</ele>
        <time>2026-03-26T08:30:57.000Z</time>
      </trkpt>
      <trkpt lat="46.36315" lon="4.71177">
        <ele>440</ele>
        <time>2026-03-26T08:31:16.000Z</time>
      </trkpt>
      <trkpt lat="46.36326" lon="4.71173">
        <ele>442</ele>
        <time>2026-03-26T08:31:22.000Z</time>
      </trkpt>
      <trkpt lat="46.36334" lon="4.71171">
        <ele>443</ele>
        <time>2026-03-26T08:31:30.000Z</time>
      </trkpt>
      <trkpt lat="46.36343" lon="4.71175">
        <ele>444</ele>
        <time>2026-03-26T08:31:38.000Z</time>
      </trkpt>
      <trkpt lat="46.3635" lon="4.71183">
        <ele>445</ele>
        <time>2026-03-26T08:31:47.000Z</time>
      </trkpt>
      <trkpt lat="46.36359" lon="4.7119">
        <ele>445</ele>
        <time>2026-03-26T08:31:57.000Z</time>
      </trkpt>
      <trkpt lat="46.36369" lon="4.71193">
        <ele>446</ele>
        <time>2026-03-26T08:32:07.000Z</time>
      </trkpt>
      <trkpt lat="46.36379" lon="4.71195">
        <ele>447</ele>
        <time>2026-03-26T08:32:16.000Z</time>
      </trkpt>
      <trkpt lat="46.36389" lon="4.71196">
        <ele>448</ele>
        <time>2026-03-26T08:32:26.000Z</time>
      </trkpt>
      <trkpt lat="46.36399" lon="4.71198">
        <ele>448</ele>
        <time>2026-03-26T08:32:35.000Z</time>
      </trkpt>
      <trkpt lat="46.36407" lon="4.71203">
        <ele>448</ele>
        <time>2026-03-26T08:32:44.000Z</time>
      </trkpt>
      <trkpt lat="46.36415" lon="4.7121">
        <ele>447</ele>
        <time>2026-03-26T08:32:52.000Z</time>
      </trkpt>
      <trkpt lat="46.36423" lon="4.71216">
        <ele>447</ele>
        <time>2026-03-26T08:33:01.000Z</time>
      </trkpt>
      <trkpt lat="46.36432" lon="4.71222">
        <ele>448</ele>
        <time>2026-03-26T08:33:11.000Z</time>
      </trkpt>
      <trkpt lat="46.3644" lon="4.71227">
        <ele>447</ele>
        <time>2026-03-26T08:33:18.000Z</time>
      </trkpt>
      <trkpt lat="46.36449" lon="4.71231">
        <ele>447</ele>
        <time>2026-03-26T08:33:25.000Z</time>
      </trkpt>
      <trkpt lat="46.36459" lon="4.71234">
        <ele>448</ele>
        <time>2026-03-26T08:33:35.000Z</time>
      </trkpt>
      <trkpt lat="46.3647" lon="4.71233">
        <ele>449</ele>
        <time>2026-03-26T08:33:44.000Z</time>
      </trkpt>
      <trkpt lat="46.36479" lon="4.71233">
        <ele>450</ele>
        <time>2026-03-26T08:33:52.000Z</time>
      </trkpt>
      <trkpt lat="46.36488" lon="4.71232">
        <ele>451</ele>
        <time>2026-03-26T08:34:02.000Z</time>
      </trkpt>
      <trkpt lat="46.36498" lon="4.71235">
        <ele>451</ele>
        <time>2026-03-26T08:34:10.000Z</time>
      </trkpt>
      <trkpt lat="46.36507" lon="4.71233">
        <ele>452</ele>
        <time>2026-03-26T08:34:19.000Z</time>
      </trkpt>
      <trkpt lat="46.36516" lon="4.7123">
        <ele>454</ele>
        <time>2026-03-26T08:34:28.000Z</time>
      </trkpt>
      <trkpt lat="46.36525" lon="4.7123">
        <ele>454</ele>
        <time>2026-03-26T08:34:37.000Z</time>
      </trkpt>
      <trkpt lat="46.36535" lon="4.7123">
        <ele>455</ele>
        <time>2026-03-26T08:34:48.000Z</time>
      </trkpt>
      <trkpt lat="46.36546" lon="4.71229">
        <ele>456</ele>
        <time>2026-03-26T08:34:57.000Z</time>
      </trkpt>
      <trkpt lat="46.36556" lon="4.71229">
        <ele>457</ele>
        <time>2026-03-26T08:35:07.000Z</time>
      </trkpt>
      <trkpt lat="46.36565" lon="4.7123">
        <ele>458</ele>
        <time>2026-03-26T08:35:14.000Z</time>
      </trkpt>
      <trkpt lat="46.36574" lon="4.71228">
        <ele>459</ele>
        <time>2026-03-26T08:35:23.000Z</time>
      </trkpt>
      <trkpt lat="46.36582" lon="4.71225">
        <ele>459</ele>
        <time>2026-03-26T08:35:31.000Z</time>
      </trkpt>
      <trkpt lat="46.36591" lon="4.71225">
        <ele>460</ele>
        <time>2026-03-26T08:35:39.000Z</time>
      </trkpt>
      <trkpt lat="46.36601" lon="4.71226">
        <ele>461</ele>
        <time>2026-03-26T08:35:49.000Z</time>
      </trkpt>
      <trkpt lat="46.36611" lon="4.71228">
        <ele>461</ele>
        <time>2026-03-26T08:36:00.000Z</time>
      </trkpt>
      <trkpt lat="46.3662" lon="4.7123">
        <ele>462</ele>
        <time>2026-03-26T08:36:08.000Z</time>
      </trkpt>
      <trkpt lat="46.36631" lon="4.71226">
        <ele>463</ele>
        <time>2026-03-26T08:36:19.000Z</time>
      </trkpt>
      <trkpt lat="46.36638" lon="4.71221">
        <ele>465</ele>
        <time>2026-03-26T08:36:31.000Z</time>
      </trkpt>
      <trkpt lat="46.36639" lon="4.71209">
        <ele>466</ele>
        <time>2026-03-26T08:37:01.000Z</time>
      </trkpt>
      <trkpt lat="46.36645" lon="4.71195">
        <ele>466</ele>
        <time>2026-03-26T08:37:20.000Z</time>
      </trkpt>
      <trkpt lat="46.36652" lon="4.71184">
        <ele>464</ele>
        <time>2026-03-26T08:37:30.000Z</time>
      </trkpt>
      <trkpt lat="46.36662" lon="4.7118">
        <ele>462</ele>
        <time>2026-03-26T08:37:39.000Z</time>
      </trkpt>
      <trkpt lat="46.36673" lon="4.71182">
        <ele>463</ele>
        <time>2026-03-26T08:37:46.000Z</time>
      </trkpt>
      <trkpt lat="46.36683" lon="4.71186">
        <ele>465</ele>
        <time>2026-03-26T08:37:52.000Z</time>
      </trkpt>
      <trkpt lat="46.36694" lon="4.71188">
        <ele>468</ele>
        <time>2026-03-26T08:37:58.000Z</time>
      </trkpt>
      <trkpt lat="46.36704" lon="4.71192">
        <ele>470</ele>
        <time>2026-03-26T08:38:04.000Z</time>
      </trkpt>
      <trkpt lat="46.36713" lon="4.71194">
        <ele>471</ele>
        <time>2026-03-26T08:38:10.000Z</time>
      </trkpt>
      <trkpt lat="46.36724" lon="4.71195">
        <ele>470</ele>
        <time>2026-03-26T08:38:19.000Z</time>
      </trkpt>
      <trkpt lat="46.36734" lon="4.71195">
        <ele>471</ele>
        <time>2026-03-26T08:38:27.000Z</time>
      </trkpt>
      <trkpt lat="46.36743" lon="4.71195">
        <ele>471</ele>
        <time>2026-03-26T08:38:36.000Z</time>
      </trkpt>
      <trkpt lat="46.36752" lon="4.71192">
        <ele>470</ele>
        <time>2026-03-26T08:40:08.000Z</time>
      </trkpt>
      <trkpt lat="46.36759" lon="4.712">
        <ele>473</ele>
        <time>2026-03-26T08:40:26.000Z</time>
      </trkpt>
      <trkpt lat="46.36768" lon="4.71208">
        <ele>477</ele>
        <time>2026-03-26T08:40:39.000Z</time>
      </trkpt>
      <trkpt lat="46.36777" lon="4.7121">
        <ele>477</ele>
        <time>2026-03-26T08:40:54.000Z</time>
      </trkpt>
      <trkpt lat="46.36787" lon="4.71213">
        <ele>477</ele>
        <time>2026-03-26T08:41:06.000Z</time>
      </trkpt>
      <trkpt lat="46.36796" lon="4.71217">
        <ele>479</ele>
        <time>2026-03-26T08:41:22.000Z</time>
      </trkpt>
      <trkpt lat="46.36805" lon="4.71222">
        <ele>479</ele>
        <time>2026-03-26T08:41:33.000Z</time>
      </trkpt>
      <trkpt lat="46.36814" lon="4.71227">
        <ele>479</ele>
        <time>2026-03-26T08:41:45.000Z</time>
      </trkpt>
      <trkpt lat="46.36823" lon="4.71233">
        <ele>480</ele>
        <time>2026-03-26T08:41:55.000Z</time>
      </trkpt>
      <trkpt lat="46.36832" lon="4.71234">
        <ele>481</ele>
        <time>2026-03-26T08:42:06.000Z</time>
      </trkpt>
      <trkpt lat="46.36841" lon="4.71238">
        <ele>482</ele>
        <time>2026-03-26T08:42:19.000Z</time>
      </trkpt>
      <trkpt lat="46.36847" lon="4.71246">
        <ele>483</ele>
        <time>2026-03-26T08:42:31.000Z</time>
      </trkpt>
      <trkpt lat="46.36855" lon="4.71247">
        <ele>482</ele>
        <time>2026-03-26T08:42:40.000Z</time>
      </trkpt>
      <trkpt lat="46.36864" lon="4.71246">
        <ele>484</ele>
        <time>2026-03-26T08:42:49.000Z</time>
      </trkpt>
      <trkpt lat="46.36871" lon="4.71254">
        <ele>485</ele>
        <time>2026-03-26T08:42:58.000Z</time>
      </trkpt>
      <trkpt lat="46.3688" lon="4.71262">
        <ele>485</ele>
        <time>2026-03-26T08:43:08.000Z</time>
      </trkpt>
      <trkpt lat="46.3689" lon="4.71264">
        <ele>486</ele>
        <time>2026-03-26T08:43:21.000Z</time>
      </trkpt>
      <trkpt lat="46.36901" lon="4.71266">
        <ele>487</ele>
        <time>2026-03-26T08:43:30.000Z</time>
      </trkpt>
      <trkpt lat="46.3691" lon="4.71267">
        <ele>487</ele>
        <time>2026-03-26T08:43:39.000Z</time>
      </trkpt>
      <trkpt lat="46.36918" lon="4.71266">
        <ele>489</ele>
        <time>2026-03-26T08:43:49.000Z</time>
      </trkpt>
      <trkpt lat="46.36927" lon="4.71269">
        <ele>490</ele>
        <time>2026-03-26T08:44:00.000Z</time>
      </trkpt>
      <trkpt lat="46.36937" lon="4.71272">
        <ele>492</ele>
        <time>2026-03-26T08:44:11.000Z</time>
      </trkpt>
      <trkpt lat="46.36946" lon="4.71273">
        <ele>492</ele>
        <time>2026-03-26T08:44:22.000Z</time>
      </trkpt>
      <trkpt lat="46.36955" lon="4.71272">
        <ele>493</ele>
        <time>2026-03-26T08:44:32.000Z</time>
      </trkpt>
      <trkpt lat="46.36965" lon="4.71271">
        <ele>494</ele>
        <time>2026-03-26T08:44:48.000Z</time>
      </trkpt>
      <trkpt lat="46.36974" lon="4.71272">
        <ele>495</ele>
        <time>2026-03-26T08:44:58.000Z</time>
      </trkpt>
      <trkpt lat="46.36984" lon="4.71271">
        <ele>495</ele>
        <time>2026-03-26T08:45:08.000Z</time>
      </trkpt>
      <trkpt lat="46.36993" lon="4.71274">
        <ele>496</ele>
        <time>2026-03-26T08:45:19.000Z</time>
      </trkpt>
      <trkpt lat="46.37003" lon="4.71279">
        <ele>496</ele>
        <time>2026-03-26T08:45:30.000Z</time>
      </trkpt>
      <trkpt lat="46.37012" lon="4.71284">
        <ele>496</ele>
        <time>2026-03-26T08:45:41.000Z</time>
      </trkpt>
      <trkpt lat="46.37022" lon="4.7129">
        <ele>496</ele>
        <time>2026-03-26T08:45:52.000Z</time>
      </trkpt>
      <trkpt lat="46.37031" lon="4.71293">
        <ele>498</ele>
        <time>2026-03-26T08:46:01.000Z</time>
      </trkpt>
      <trkpt lat="46.37039" lon="4.71298">
        <ele>498</ele>
        <time>2026-03-26T08:46:11.000Z</time>
      </trkpt>
      <trkpt lat="46.37046" lon="4.71305">
        <ele>497</ele>
        <time>2026-03-26T08:46:22.000Z</time>
      </trkpt>
      <trkpt lat="46.37054" lon="4.71305">
        <ele>498</ele>
        <time>2026-03-26T08:46:43.000Z</time>
      </trkpt>
      <trkpt lat="46.3706" lon="4.71295">
        <ele>499</ele>
        <time>2026-03-26T08:47:07.000Z</time>
      </trkpt>
      <trkpt lat="46.3707" lon="4.71287">
        <ele>496</ele>
        <time>2026-03-26T08:49:30.000Z</time>
      </trkpt>
      <trkpt lat="46.37078" lon="4.71283">
        <ele>495</ele>
        <time>2026-03-26T08:49:43.000Z</time>
      </trkpt>
      <trkpt lat="46.37084" lon="4.71272">
        <ele>493</ele>
        <time>2026-03-26T08:49:51.000Z</time>
      </trkpt>
      <trkpt lat="46.37088" lon="4.71261">
        <ele>491</ele>
        <time>2026-03-26T08:49:57.000Z</time>
      </trkpt>
      <trkpt lat="46.37089" lon="4.71248">
        <ele>487</ele>
        <time>2026-03-26T08:50:04.000Z</time>
      </trkpt>
      <trkpt lat="46.37094" lon="4.71238">
        <ele>485</ele>
        <time>2026-03-26T08:50:11.000Z</time>
      </trkpt>
      <trkpt lat="46.37103" lon="4.71229">
        <ele>481</ele>
        <time>2026-03-26T08:50:19.000Z</time>
      </trkpt>
      <trkpt lat="46.37111" lon="4.71221">
        <ele>477</ele>
        <time>2026-03-26T08:50:27.000Z</time>
      </trkpt>
      <trkpt lat="46.37119" lon="4.71217">
        <ele>475</ele>
        <time>2026-03-26T08:50:37.000Z</time>
      </trkpt>
      <trkpt lat="46.37127" lon="4.7121">
        <ele>474</ele>
        <time>2026-03-26T08:50:47.000Z</time>
      </trkpt>
      <trkpt lat="46.37137" lon="4.71218">
        <ele>477</ele>
        <time>2026-03-26T08:50:54.000Z</time>
      </trkpt>
      <trkpt lat="46.37146" lon="4.71221">
        <ele>479</ele>
        <time>2026-03-26T08:51:00.000Z</time>
      </trkpt>
      <trkpt lat="46.37155" lon="4.71219">
        <ele>479</ele>
        <time>2026-03-26T08:51:13.000Z</time>
      </trkpt>
      <trkpt lat="46.37164" lon="4.71219">
        <ele>480</ele>
        <time>2026-03-26T08:51:21.000Z</time>
      </trkpt>
      <trkpt lat="46.37173" lon="4.71218">
        <ele>480</ele>
        <time>2026-03-26T08:51:29.000Z</time>
      </trkpt>
      <trkpt lat="46.37181" lon="4.71208">
        <ele>477</ele>
        <time>2026-03-26T08:51:37.000Z</time>
      </trkpt>
      <trkpt lat="46.37186" lon="4.71196">
        <ele>475</ele>
        <time>2026-03-26T08:51:44.000Z</time>
      </trkpt>
      <trkpt lat="46.37188" lon="4.71181">
        <ele>470</ele>
        <time>2026-03-26T08:51:50.000Z</time>
      </trkpt>
      <trkpt lat="46.37194" lon="4.7117">
        <ele>469</ele>
        <time>2026-03-26T08:51:58.000Z</time>
      </trkpt>
      <trkpt lat="46.372" lon="4.71161">
        <ele>469</ele>
        <time>2026-03-26T08:52:04.000Z</time>
      </trkpt>
      <trkpt lat="46.37196" lon="4.7115">
        <ele>466</ele>
        <time>2026-03-26T08:52:27.000Z</time>
      </trkpt>
      <trkpt lat="46.37188" lon="4.71155">
        <ele>467</ele>
        <time>2026-03-26T08:52:33.000Z</time>
      </trkpt>
      <trkpt lat="46.37179" lon="4.71157">
        <ele>467</ele>
        <time>2026-03-26T08:52:41.000Z</time>
      </trkpt>
      <trkpt lat="46.3717" lon="4.7115">
        <ele>466</ele>
        <time>2026-03-26T08:52:49.000Z</time>
      </trkpt>
      <trkpt lat="46.37163" lon="4.71138">
        <ele>463</ele>
        <time>2026-03-26T08:52:57.000Z</time>
      </trkpt>
      <trkpt lat="46.37157" lon="4.71126">
        <ele>462</ele>
        <time>2026-03-26T08:53:03.000Z</time>
      </trkpt>
      <trkpt lat="46.37152" lon="4.71113">
        <ele>460</ele>
        <time>2026-03-26T08:53:11.000Z</time>
      </trkpt>
      <trkpt lat="46.37147" lon="4.71099">
        <ele>457</ele>
        <time>2026-03-26T08:53:20.000Z</time>
      </trkpt>
      <trkpt lat="46.37143" lon="4.71085">
        <ele>454</ele>
        <time>2026-03-26T08:53:31.000Z</time>
      </trkpt>
      <trkpt lat="46.37137" lon="4.71074">
        <ele>453</ele>
        <time>2026-03-26T08:53:41.000Z</time>
      </trkpt>
      <trkpt lat="46.37132" lon="4.71061">
        <ele>450</ele>
        <time>2026-03-26T08:53:49.000Z</time>
      </trkpt>
      <trkpt lat="46.37126" lon="4.7105">
        <ele>448</ele>
        <time>2026-03-26T08:53:57.000Z</time>
      </trkpt>
      <trkpt lat="46.3712" lon="4.71039">
        <ele>445</ele>
        <time>2026-03-26T08:54:06.000Z</time>
      </trkpt>
      <trkpt lat="46.37116" lon="4.71028">
        <ele>444</ele>
        <time>2026-03-26T08:54:14.000Z</time>
      </trkpt>
      <trkpt lat="46.37112" lon="4.71015">
        <ele>443</ele>
        <time>2026-03-26T08:54:22.000Z</time>
      </trkpt>
      <trkpt lat="46.37104" lon="4.71008">
        <ele>441</ele>
        <time>2026-03-26T08:54:33.000Z</time>
      </trkpt>
      <trkpt lat="46.37095" lon="4.71002">
        <ele>440</ele>
        <time>2026-03-26T08:54:43.000Z</time>
      </trkpt>
      <trkpt lat="46.37087" lon="4.70997">
        <ele>440</ele>
        <time>2026-03-26T08:54:52.000Z</time>
      </trkpt>
      <trkpt lat="46.3708" lon="4.70988">
        <ele>440</ele>
        <time>2026-03-26T08:55:00.000Z</time>
      </trkpt>
      <trkpt lat="46.37073" lon="4.70979">
        <ele>439</ele>
        <time>2026-03-26T08:55:08.000Z</time>
      </trkpt>
      <trkpt lat="46.37065" lon="4.7097">
        <ele>438</ele>
        <time>2026-03-26T08:55:16.000Z</time>
      </trkpt>
      <trkpt lat="46.37056" lon="4.70962">
        <ele>438</ele>
        <time>2026-03-26T08:55:24.000Z</time>
      </trkpt>
      <trkpt lat="46.37047" lon="4.70957">
        <ele>436</ele>
        <time>2026-03-26T08:55:33.000Z</time>
      </trkpt>
      <trkpt lat="46.37038" lon="4.7095">
        <ele>435</ele>
        <time>2026-03-26T08:55:41.000Z</time>
      </trkpt>
      <trkpt lat="46.37031" lon="4.70942">
        <ele>432</ele>
        <time>2026-03-26T08:55:47.000Z</time>
      </trkpt>
      <trkpt lat="46.37023" lon="4.70933">
        <ele>431</ele>
        <time>2026-03-26T08:55:56.000Z</time>
      </trkpt>
      <trkpt lat="46.37017" lon="4.70922">
        <ele>429</ele>
        <time>2026-03-26T08:56:04.000Z</time>
      </trkpt>
      <trkpt lat="46.37009" lon="4.70913">
        <ele>427</ele>
        <time>2026-03-26T08:56:12.000Z</time>
      </trkpt>
      <trkpt lat="46.37002" lon="4.70905">
        <ele>425</ele>
        <time>2026-03-26T08:56:21.000Z</time>
      </trkpt>
      <trkpt lat="46.36994" lon="4.70898">
        <ele>423</ele>
        <time>2026-03-26T08:56:29.000Z</time>
      </trkpt>
      <trkpt lat="46.36987" lon="4.70889">
        <ele>420</ele>
        <time>2026-03-26T08:56:38.000Z</time>
      </trkpt>
      <trkpt lat="46.3698" lon="4.70878">
        <ele>419</ele>
        <time>2026-03-26T08:56:48.000Z</time>
      </trkpt>
      <trkpt lat="46.36973" lon="4.70869">
        <ele>416</ele>
        <time>2026-03-26T08:56:56.000Z</time>
      </trkpt>
      <trkpt lat="46.36965" lon="4.70861">
        <ele>414</ele>
        <time>2026-03-26T08:57:05.000Z</time>
      </trkpt>
      <trkpt lat="46.36957" lon="4.70852">
        <ele>412</ele>
        <time>2026-03-26T08:57:14.000Z</time>
      </trkpt>
      <trkpt lat="46.36949" lon="4.70844">
        <ele>410</ele>
        <time>2026-03-26T08:57:24.000Z</time>
      </trkpt>
      <trkpt lat="46.36942" lon="4.70837">
        <ele>410</ele>
        <time>2026-03-26T08:57:33.000Z</time>
      </trkpt>
      <trkpt lat="46.36934" lon="4.7083">
        <ele>408</ele>
        <time>2026-03-26T08:57:44.000Z</time>
      </trkpt>
      <trkpt lat="46.36925" lon="4.70825">
        <ele>408</ele>
        <time>2026-03-26T08:57:54.000Z</time>
      </trkpt>
      <trkpt lat="46.36917" lon="4.70819">
        <ele>407</ele>
        <time>2026-03-26T08:58:05.000Z</time>
      </trkpt>
      <trkpt lat="46.36909" lon="4.70812">
        <ele>407</ele>
        <time>2026-03-26T08:58:14.000Z</time>
      </trkpt>
      <trkpt lat="46.36901" lon="4.70804">
        <ele>407</ele>
        <time>2026-03-26T08:58:22.000Z</time>
      </trkpt>
      <trkpt lat="46.36892" lon="4.70798">
        <ele>407</ele>
        <time>2026-03-26T08:58:30.000Z</time>
      </trkpt>
      <trkpt lat="46.36884" lon="4.70794">
        <ele>407</ele>
        <time>2026-03-26T08:58:36.000Z</time>
      </trkpt>
      <trkpt lat="46.36875" lon="4.70787">
        <ele>408</ele>
        <time>2026-03-26T08:58:44.000Z</time>
      </trkpt>
      <trkpt lat="46.36866" lon="4.7078">
        <ele>409</ele>
        <time>2026-03-26T08:58:52.000Z</time>
      </trkpt>
      <trkpt lat="46.36856" lon="4.70778">
        <ele>409</ele>
        <time>2026-03-26T08:59:01.000Z</time>
      </trkpt>
      <trkpt lat="46.36847" lon="4.70772">
        <ele>409</ele>
        <time>2026-03-26T08:59:09.000Z</time>
      </trkpt>
      <trkpt lat="46.36844" lon="4.7076">
        <ele>409</ele>
        <time>2026-03-26T08:59:19.000Z</time>
      </trkpt>
      <trkpt lat="46.36849" lon="4.70751">
        <ele>411</ele>
        <time>2026-03-26T08:59:26.000Z</time>
      </trkpt>
      <trkpt lat="46.36858" lon="4.70748">
        <ele>411</ele>
        <time>2026-03-26T08:59:34.000Z</time>
      </trkpt>
      <trkpt lat="46.36866" lon="4.7074">
        <ele>413</ele>
        <time>2026-03-26T08:59:47.000Z</time>
      </trkpt>
      <trkpt lat="46.36875" lon="4.70736">
        <ele>416</ele>
        <time>2026-03-26T09:02:01.000Z</time>
      </trkpt>
      <trkpt lat="46.36884" lon="4.70737">
        <ele>418</ele>
        <time>2026-03-26T09:02:08.000Z</time>
      </trkpt>
      <trkpt lat="46.36894" lon="4.70741">
        <ele>418</ele>
        <time>2026-03-26T09:02:17.000Z</time>
      </trkpt>
      <trkpt lat="46.36903" lon="4.70745">
        <ele>417</ele>
        <time>2026-03-26T09:02:26.000Z</time>
      </trkpt>
      <trkpt lat="46.36911" lon="4.70744">
        <ele>419</ele>
        <time>2026-03-26T09:02:37.000Z</time>
      </trkpt>
      <trkpt lat="46.36916" lon="4.70733">
        <ele>423</ele>
        <time>2026-03-26T09:02:55.000Z</time>
      </trkpt>
      <trkpt lat="46.36913" lon="4.70722">
        <ele>425</ele>
        <time>2026-03-26T09:03:02.000Z</time>
      </trkpt>
      <trkpt lat="46.36908" lon="4.70711">
        <ele>428</ele>
        <time>2026-03-26T09:03:08.000Z</time>
      </trkpt>
      <trkpt lat="46.369" lon="4.70704">
        <ele>428</ele>
        <time>2026-03-26T09:03:15.000Z</time>
      </trkpt>
      <trkpt lat="46.36892" lon="4.70699">
        <ele>430</ele>
        <time>2026-03-26T09:03:26.000Z</time>
      </trkpt>
      <trkpt lat="46.36885" lon="4.70691">
        <ele>430</ele>
        <time>2026-03-26T09:03:43.000Z</time>
      </trkpt>
      <trkpt lat="46.36879" lon="4.70681">
        <ele>432</ele>
        <time>2026-03-26T09:03:52.000Z</time>
      </trkpt>
      <trkpt lat="46.36876" lon="4.70668">
        <ele>436</ele>
        <time>2026-03-26T09:04:01.000Z</time>
      </trkpt>
      <trkpt lat="46.36872" lon="4.70656">
        <ele>437</ele>
        <time>2026-03-26T09:04:12.000Z</time>
      </trkpt>
      <trkpt lat="46.36867" lon="4.70645">
        <ele>441</ele>
        <time>2026-03-26T09:04:21.000Z</time>
      </trkpt>
      <trkpt lat="46.36861" lon="4.70634">
        <ele>442</ele>
        <time>2026-03-26T09:04:34.000Z</time>
      </trkpt>
      <trkpt lat="46.36854" lon="4.70626">
        <ele>442</ele>
        <time>2026-03-26T09:04:46.000Z</time>
      </trkpt>
      <trkpt lat="46.36846" lon="4.70618">
        <ele>441</ele>
        <time>2026-03-26T09:04:55.000Z</time>
      </trkpt>
      <trkpt lat="46.36838" lon="4.70609">
        <ele>442</ele>
        <time>2026-03-26T09:05:04.000Z</time>
      </trkpt>
      <trkpt lat="46.36832" lon="4.70599">
        <ele>445</ele>
        <time>2026-03-26T09:05:13.000Z</time>
      </trkpt>
      <trkpt lat="46.36827" lon="4.70587">
        <ele>445</ele>
        <time>2026-03-26T09:05:25.000Z</time>
      </trkpt>
      <trkpt lat="46.36821" lon="4.70576">
        <ele>447</ele>
        <time>2026-03-26T09:05:38.000Z</time>
      </trkpt>
      <trkpt lat="46.36816" lon="4.70565">
        <ele>448</ele>
        <time>2026-03-26T09:05:52.000Z</time>
      </trkpt>
      <trkpt lat="46.36811" lon="4.70553">
        <ele>449</ele>
        <time>2026-03-26T09:06:03.000Z</time>
      </trkpt>
      <trkpt lat="46.36804" lon="4.70543">
        <ele>452</ele>
        <time>2026-03-26T09:06:13.000Z</time>
      </trkpt>
      <trkpt lat="46.36798" lon="4.70533">
        <ele>452</ele>
        <time>2026-03-26T09:06:22.000Z</time>
      </trkpt>
      <trkpt lat="46.36791" lon="4.70524">
        <ele>453</ele>
        <time>2026-03-26T09:06:31.000Z</time>
      </trkpt>
      <trkpt lat="46.36784" lon="4.70513">
        <ele>452</ele>
        <time>2026-03-26T09:06:42.000Z</time>
      </trkpt>
      <trkpt lat="46.36778" lon="4.70502">
        <ele>453</ele>
        <time>2026-03-26T09:06:53.000Z</time>
      </trkpt>
      <trkpt lat="46.36776" lon="4.7049">
        <ele>453</ele>
        <time>2026-03-26T09:07:03.000Z</time>
      </trkpt>
      <trkpt lat="46.36774" lon="4.70478">
        <ele>453</ele>
        <time>2026-03-26T09:07:16.000Z</time>
      </trkpt>
      <trkpt lat="46.36765" lon="4.70473">
        <ele>451</ele>
        <time>2026-03-26T09:08:46.000Z</time>
      </trkpt>
      <trkpt lat="46.36759" lon="4.7047">
        <ele>447</ele>
        <time>2026-03-26T09:09:10.000Z</time>
      </trkpt>
      <trkpt lat="46.36768" lon="4.70474">
        <ele>452</ele>
        <time>2026-03-26T09:09:45.000Z</time>
      </trkpt>
      <trkpt lat="46.36776" lon="4.70481">
        <ele>453</ele>
        <time>2026-03-26T09:11:23.000Z</time>
      </trkpt>
      <trkpt lat="46.36787" lon="4.70484">
        <ele>454</ele>
        <time>2026-03-26T09:12:03.000Z</time>
      </trkpt>
      <trkpt lat="46.36795" lon="4.70478">
        <ele>455</ele>
        <time>2026-03-26T09:12:12.000Z</time>
      </trkpt>
      <trkpt lat="46.36803" lon="4.7047">
        <ele>456</ele>
        <time>2026-03-26T09:12:18.000Z</time>
      </trkpt>
      <trkpt lat="46.36811" lon="4.70461">
        <ele>456</ele>
        <time>2026-03-26T09:12:26.000Z</time>
      </trkpt>
      <trkpt lat="46.36817" lon="4.7045">
        <ele>456</ele>
        <time>2026-03-26T09:12:34.000Z</time>
      </trkpt>
      <trkpt lat="46.36826" lon="4.70446">
        <ele>456</ele>
        <time>2026-03-26T09:12:42.000Z</time>
      </trkpt>
      <trkpt lat="46.36835" lon="4.70446">
        <ele>456</ele>
        <time>2026-03-26T09:12:51.000Z</time>
      </trkpt>
      <trkpt lat="46.36843" lon="4.70451">
        <ele>456</ele>
        <time>2026-03-26T09:12:57.000Z</time>
      </trkpt>
      <trkpt lat="46.36851" lon="4.70458">
        <ele>457</ele>
        <time>2026-03-26T09:13:04.000Z</time>
      </trkpt>
      <trkpt lat="46.3686" lon="4.70461">
        <ele>456</ele>
        <time>2026-03-26T09:13:13.000Z</time>
      </trkpt>
      <trkpt lat="46.3687" lon="4.7046">
        <ele>455</ele>
        <time>2026-03-26T09:13:19.000Z</time>
      </trkpt>
      <trkpt lat="46.3688" lon="4.70462">
        <ele>454</ele>
        <time>2026-03-26T09:13:27.000Z</time>
      </trkpt>
      <trkpt lat="46.3689" lon="4.70462">
        <ele>453</ele>
        <time>2026-03-26T09:13:34.000Z</time>
      </trkpt>
      <trkpt lat="46.36901" lon="4.70463">
        <ele>453</ele>
        <time>2026-03-26T09:13:43.000Z</time>
      </trkpt>
      <trkpt lat="46.3691" lon="4.70471">
        <ele>453</ele>
        <time>2026-03-26T09:14:26.000Z</time>
      </trkpt>
      <trkpt lat="46.36919" lon="4.70474">
        <ele>453</ele>
        <time>2026-03-26T09:14:29.000Z</time>
      </trkpt>
      <trkpt lat="46.3693" lon="4.70475">
        <ele>453</ele>
        <time>2026-03-26T09:14:36.000Z</time>
      </trkpt>
      <trkpt lat="46.3694" lon="4.70473">
        <ele>452</ele>
        <time>2026-03-26T09:14:42.000Z</time>
      </trkpt>
      <trkpt lat="46.3695" lon="4.70474">
        <ele>452</ele>
        <time>2026-03-26T09:14:48.000Z</time>
      </trkpt>
      <trkpt lat="46.36959" lon="4.70472">
        <ele>452</ele>
        <time>2026-03-26T09:14:54.000Z</time>
      </trkpt>
      <trkpt lat="46.36967" lon="4.70468">
        <ele>451</ele>
        <time>2026-03-26T09:15:00.000Z</time>
      </trkpt>
      <trkpt lat="46.36976" lon="4.70463">
        <ele>450</ele>
        <time>2026-03-26T09:15:08.000Z</time>
      </trkpt>
      <trkpt lat="46.36983" lon="4.70454">
        <ele>448</ele>
        <time>2026-03-26T09:15:17.000Z</time>
      </trkpt>
      <trkpt lat="46.36991" lon="4.70449">
        <ele>449</ele>
        <time>2026-03-26T09:15:25.000Z</time>
      </trkpt>
      <trkpt lat="46.36999" lon="4.70443">
        <ele>449</ele>
        <time>2026-03-26T09:15:33.000Z</time>
      </trkpt>
      <trkpt lat="46.37005" lon="4.70434">
        <ele>449</ele>
        <time>2026-03-26T09:15:41.000Z</time>
      </trkpt>
      <trkpt lat="46.37011" lon="4.70424">
        <ele>448</ele>
        <time>2026-03-26T09:15:49.000Z</time>
      </trkpt>
      <trkpt lat="46.37017" lon="4.70413">
        <ele>448</ele>
        <time>2026-03-26T09:15:57.000Z</time>
      </trkpt>
      <trkpt lat="46.3702" lon="4.70399">
        <ele>450</ele>
        <time>2026-03-26T09:16:06.000Z</time>
      </trkpt>
      <trkpt lat="46.37022" lon="4.70385">
        <ele>452</ele>
        <time>2026-03-26T09:16:15.000Z</time>
      </trkpt>
      <trkpt lat="46.37025" lon="4.70373">
        <ele>454</ele>
        <time>2026-03-26T09:16:26.000Z</time>
      </trkpt>
      <trkpt lat="46.37032" lon="4.70369">
        <ele>457</ele>
        <time>2026-03-26T09:16:40.000Z</time>
      </trkpt>
      <trkpt lat="46.37041" lon="4.70371">
        <ele>460</ele>
        <time>2026-03-26T09:16:59.000Z</time>
      </trkpt>
      <trkpt lat="46.37051" lon="4.70371">
        <ele>462</ele>
        <time>2026-03-26T09:17:16.000Z</time>
      </trkpt>
      <trkpt lat="46.3706" lon="4.70372">
        <ele>463</ele>
        <time>2026-03-26T09:17:28.000Z</time>
      </trkpt>
      <trkpt lat="46.37067" lon="4.70368">
        <ele>465</ele>
        <time>2026-03-26T09:17:40.000Z</time>
      </trkpt>
      <trkpt lat="46.3707" lon="4.70355">
        <ele>467</ele>
        <time>2026-03-26T09:17:59.000Z</time>
      </trkpt>
      <trkpt lat="46.37075" lon="4.70341">
        <ele>469</ele>
        <time>2026-03-26T09:18:33.000Z</time>
      </trkpt>
      <trkpt lat="46.37082" lon="4.7033">
        <ele>471</ele>
        <time>2026-03-26T09:18:39.000Z</time>
      </trkpt>
      <trkpt lat="46.37087" lon="4.70319">
        <ele>473</ele>
        <time>2026-03-26T09:18:45.000Z</time>
      </trkpt>
      <trkpt lat="46.37094" lon="4.70311">
        <ele>472</ele>
        <time>2026-03-26T09:18:54.000Z</time>
      </trkpt>
      <trkpt lat="46.37104" lon="4.70307">
        <ele>476</ele>
        <time>2026-03-26T09:19:05.000Z</time>
      </trkpt>
      <trkpt lat="46.37113" lon="4.70306">
        <ele>478</ele>
        <time>2026-03-26T09:19:13.000Z</time>
      </trkpt>
      <trkpt lat="46.37123" lon="4.70308">
        <ele>480</ele>
        <time>2026-03-26T09:19:23.000Z</time>
      </trkpt>
      <trkpt lat="46.37133" lon="4.70309">
        <ele>482</ele>
        <time>2026-03-26T09:19:34.000Z</time>
      </trkpt>
      <trkpt lat="46.37142" lon="4.70306">
        <ele>484</ele>
        <time>2026-03-26T09:19:44.000Z</time>
      </trkpt>
      <trkpt lat="46.3715" lon="4.703">
        <ele>485</ele>
        <time>2026-03-26T09:19:56.000Z</time>
      </trkpt>
      <trkpt lat="46.37157" lon="4.7029">
        <ele>487</ele>
        <time>2026-03-26T09:20:06.000Z</time>
      </trkpt>
      <trkpt lat="46.37164" lon="4.70282">
        <ele>488</ele>
        <time>2026-03-26T09:20:54.000Z</time>
      </trkpt>
      <trkpt lat="46.37173" lon="4.70277">
        <ele>488</ele>
        <time>2026-03-26T09:21:02.000Z</time>
      </trkpt>
      <trkpt lat="46.37181" lon="4.7027">
        <ele>489</ele>
        <time>2026-03-26T09:21:10.000Z</time>
      </trkpt>
      <trkpt lat="46.37186" lon="4.70257">
        <ele>488</ele>
        <time>2026-03-26T09:21:19.000Z</time>
      </trkpt>
      <trkpt lat="46.37188" lon="4.70244">
        <ele>485</ele>
        <time>2026-03-26T09:21:27.000Z</time>
      </trkpt>
      <trkpt lat="46.37191" lon="4.70232">
        <ele>482</ele>
        <time>2026-03-26T09:21:33.000Z</time>
      </trkpt>
      <trkpt lat="46.37198" lon="4.70223">
        <ele>480</ele>
        <time>2026-03-26T09:21:41.000Z</time>
      </trkpt>
      <trkpt lat="46.37205" lon="4.70215">
        <ele>480</ele>
        <time>2026-03-26T09:21:51.000Z</time>
      </trkpt>
      <trkpt lat="46.37215" lon="4.70215">
        <ele>482</ele>
        <time>2026-03-26T09:22:00.000Z</time>
      </trkpt>
      <trkpt lat="46.37224" lon="4.70213">
        <ele>483</ele>
        <time>2026-03-26T09:22:10.000Z</time>
      </trkpt>
      <trkpt lat="46.37232" lon="4.70208">
        <ele>484</ele>
        <time>2026-03-26T09:22:18.000Z</time>
      </trkpt>
      <trkpt lat="46.3724" lon="4.70202">
        <ele>483</ele>
        <time>2026-03-26T09:22:27.000Z</time>
      </trkpt>
      <trkpt lat="46.37248" lon="4.70196">
        <ele>485</ele>
        <time>2026-03-26T09:22:36.000Z</time>
      </trkpt>
      <trkpt lat="46.37257" lon="4.70191">
        <ele>484</ele>
        <time>2026-03-26T09:22:44.000Z</time>
      </trkpt>
      <trkpt lat="46.37266" lon="4.7019">
        <ele>485</ele>
        <time>2026-03-26T09:22:53.000Z</time>
      </trkpt>
      <trkpt lat="46.37277" lon="4.70189">
        <ele>486</ele>
        <time>2026-03-26T09:23:02.000Z</time>
      </trkpt>
      <trkpt lat="46.37287" lon="4.70187">
        <ele>488</ele>
        <time>2026-03-26T09:23:10.000Z</time>
      </trkpt>
      <trkpt lat="46.37296" lon="4.70184">
        <ele>488</ele>
        <time>2026-03-26T09:23:18.000Z</time>
      </trkpt>
      <trkpt lat="46.37305" lon="4.70182">
        <ele>488</ele>
        <time>2026-03-26T09:23:27.000Z</time>
      </trkpt>
      <trkpt lat="46.37315" lon="4.70181">
        <ele>489</ele>
        <time>2026-03-26T09:23:35.000Z</time>
      </trkpt>
      <trkpt lat="46.37325" lon="4.70181">
        <ele>488</ele>
        <time>2026-03-26T09:23:44.000Z</time>
      </trkpt>
      <trkpt lat="46.37334" lon="4.70184">
        <ele>489</ele>
        <time>2026-03-26T09:23:52.000Z</time>
      </trkpt>
      <trkpt lat="46.37343" lon="4.70188">
        <ele>491</ele>
        <time>2026-03-26T09:24:00.000Z</time>
      </trkpt>
      <trkpt lat="46.37354" lon="4.70193">
        <ele>492</ele>
        <time>2026-03-26T09:24:09.000Z</time>
      </trkpt>
      <trkpt lat="46.37364" lon="4.70198">
        <ele>493</ele>
        <time>2026-03-26T09:24:20.000Z</time>
      </trkpt>
      <trkpt lat="46.37374" lon="4.70202">
        <ele>493</ele>
        <time>2026-03-26T09:24:28.000Z</time>
      </trkpt>
      <trkpt lat="46.37383" lon="4.70196">
        <ele>492</ele>
        <time>2026-03-26T09:24:38.000Z</time>
      </trkpt>
      <trkpt lat="46.37393" lon="4.70193">
        <ele>490</ele>
        <time>2026-03-26T09:24:47.000Z</time>
      </trkpt>
      <trkpt lat="46.37402" lon="4.7019">
        <ele>489</ele>
        <time>2026-03-26T09:24:56.000Z</time>
      </trkpt>
      <trkpt lat="46.37408" lon="4.70181">
        <ele>486</ele>
        <time>2026-03-26T09:25:07.000Z</time>
      </trkpt>
      <trkpt lat="46.37416" lon="4.70179">
        <ele>485</ele>
        <time>2026-03-26T09:25:11.000Z</time>
      </trkpt>
      <trkpt lat="46.37424" lon="4.70185">
        <ele>486</ele>
        <time>2026-03-26T09:25:15.000Z</time>
      </trkpt>
      <trkpt lat="46.37434" lon="4.70189">
        <ele>487</ele>
        <time>2026-03-26T09:25:21.000Z</time>
      </trkpt>
      <trkpt lat="46.37444" lon="4.70189">
        <ele>489</ele>
        <time>2026-03-26T09:25:28.000Z</time>
      </trkpt>
      <trkpt lat="46.37454" lon="4.70189">
        <ele>488</ele>
        <time>2026-03-26T09:25:34.000Z</time>
      </trkpt>
      <trkpt lat="46.37464" lon="4.7019">
        <ele>488</ele>
        <time>2026-03-26T09:25:42.000Z</time>
      </trkpt>
      <trkpt lat="46.37474" lon="4.70193">
        <ele>489</ele>
        <time>2026-03-26T09:25:50.000Z</time>
      </trkpt>
      <trkpt lat="46.37483" lon="4.70193">
        <ele>489</ele>
        <time>2026-03-26T09:25:58.000Z</time>
      </trkpt>
      <trkpt lat="46.37492" lon="4.70193">
        <ele>489</ele>
        <time>2026-03-26T09:26:07.000Z</time>
      </trkpt>
      <trkpt lat="46.37502" lon="4.70191">
        <ele>490</ele>
        <time>2026-03-26T09:26:16.000Z</time>
      </trkpt>
      <trkpt lat="46.37511" lon="4.70189">
        <ele>489</ele>
        <time>2026-03-26T09:26:27.000Z</time>
      </trkpt>
      <trkpt lat="46.37521" lon="4.70192">
        <ele>490</ele>
        <time>2026-03-26T09:26:34.000Z</time>
      </trkpt>
      <trkpt lat="46.37531" lon="4.70195">
        <ele>490</ele>
        <time>2026-03-26T09:26:42.000Z</time>
      </trkpt>
      <trkpt lat="46.37541" lon="4.70197">
        <ele>491</ele>
        <time>2026-03-26T09:26:51.000Z</time>
      </trkpt>
      <trkpt lat="46.3755" lon="4.70199">
        <ele>491</ele>
        <time>2026-03-26T09:26:59.000Z</time>
      </trkpt>
      <trkpt lat="46.3756" lon="4.70199">
        <ele>490</ele>
        <time>2026-03-26T09:27:07.000Z</time>
      </trkpt>
      <trkpt lat="46.3757" lon="4.70203">
        <ele>491</ele>
        <time>2026-03-26T09:27:17.000Z</time>
      </trkpt>
      <trkpt lat="46.3758" lon="4.70205">
        <ele>491</ele>
        <time>2026-03-26T09:27:24.000Z</time>
      </trkpt>
      <trkpt lat="46.37588" lon="4.70207">
        <ele>492</ele>
        <time>2026-03-26T09:27:31.000Z</time>
      </trkpt>
      <trkpt lat="46.37598" lon="4.7021">
        <ele>492</ele>
        <time>2026-03-26T09:27:39.000Z</time>
      </trkpt>
      <trkpt lat="46.37608" lon="4.70211">
        <ele>492</ele>
        <time>2026-03-26T09:27:47.000Z</time>
      </trkpt>
      <trkpt lat="46.37617" lon="4.7021">
        <ele>492</ele>
        <time>2026-03-26T09:27:55.000Z</time>
      </trkpt>
      <trkpt lat="46.37627" lon="4.7021">
        <ele>489</ele>
        <time>2026-03-26T09:28:06.000Z</time>
      </trkpt>
      <trkpt lat="46.37637" lon="4.7021">
        <ele>489</ele>
        <time>2026-03-26T09:28:14.000Z</time>
      </trkpt>
      <trkpt lat="46.37647" lon="4.70214">
        <ele>489</ele>
        <time>2026-03-26T09:28:23.000Z</time>
      </trkpt>
      <trkpt lat="46.37657" lon="4.70215">
        <ele>489</ele>
        <time>2026-03-26T09:28:31.000Z</time>
      </trkpt>
      <trkpt lat="46.37667" lon="4.70216">
        <ele>489</ele>
        <time>2026-03-26T09:28:40.000Z</time>
      </trkpt>
      <trkpt lat="46.37677" lon="4.70219">
        <ele>489</ele>
        <time>2026-03-26T09:28:48.000Z</time>
      </trkpt>
      <trkpt lat="46.37686" lon="4.70222">
        <ele>489</ele>
        <time>2026-03-26T09:28:57.000Z</time>
      </trkpt>
      <trkpt lat="46.37695" lon="4.7022">
        <ele>489</ele>
        <time>2026-03-26T09:29:03.000Z</time>
      </trkpt>
      <trkpt lat="46.37705" lon="4.70218">
        <ele>490</ele>
        <time>2026-03-26T09:29:12.000Z</time>
      </trkpt>
      <trkpt lat="46.37714" lon="4.7022">
        <ele>490</ele>
        <time>2026-03-26T09:29:19.000Z</time>
      </trkpt>
      <trkpt lat="46.37723" lon="4.70227">
        <ele>490</ele>
        <time>2026-03-26T09:29:27.000Z</time>
      </trkpt>
      <trkpt lat="46.3773" lon="4.70237">
        <ele>491</ele>
        <time>2026-03-26T09:29:37.000Z</time>
      </trkpt>
      <trkpt lat="46.37737" lon="4.70247">
        <ele>491</ele>
        <time>2026-03-26T09:29:45.000Z</time>
      </trkpt>
      <trkpt lat="46.37743" lon="4.70253">
        <ele>491</ele>
        <time>2026-03-26T09:30:06.000Z</time>
      </trkpt>
      <trkpt lat="46.3774" lon="4.7026">
        <ele>491</ele>
        <time>2026-03-26T09:33:35.000Z</time>
      </trkpt>
      <trkpt lat="46.37746" lon="4.70268">
        <ele>491</ele>
        <time>2026-03-26T09:33:41.000Z</time>
      </trkpt>
      <trkpt lat="46.37753" lon="4.70281">
        <ele>490</ele>
        <time>2026-03-26T09:33:47.000Z</time>
      </trkpt>
      <trkpt lat="46.37757" lon="4.70292">
        <ele>489</ele>
        <time>2026-03-26T09:33:51.000Z</time>
      </trkpt>
      <trkpt lat="46.3776" lon="4.70305">
        <ele>488</ele>
        <time>2026-03-26T09:33:57.000Z</time>
      </trkpt>
      <trkpt lat="46.37763" lon="4.70318">
        <ele>488</ele>
        <time>2026-03-26T09:34:04.000Z</time>
      </trkpt>
      <trkpt lat="46.37767" lon="4.7033">
        <ele>486</ele>
        <time>2026-03-26T09:34:12.000Z</time>
      </trkpt>
      <trkpt lat="46.37775" lon="4.70336">
        <ele>485</ele>
        <time>2026-03-26T09:34:24.000Z</time>
      </trkpt>
      <trkpt lat="46.37784" lon="4.70338">
        <ele>484</ele>
        <time>2026-03-26T09:34:32.000Z</time>
      </trkpt>
      <trkpt lat="46.37794" lon="4.70338">
        <ele>484</ele>
        <time>2026-03-26T09:34:40.000Z</time>
      </trkpt>
      <trkpt lat="46.37803" lon="4.70341">
        <ele>484</ele>
        <time>2026-03-26T09:34:48.000Z</time>
      </trkpt>
      <trkpt lat="46.37813" lon="4.70343">
        <ele>483</ele>
        <time>2026-03-26T09:34:56.000Z</time>
      </trkpt>
      <trkpt lat="46.37824" lon="4.70342">
        <ele>482</ele>
        <time>2026-03-26T09:35:04.000Z</time>
      </trkpt>
      <trkpt lat="46.37833" lon="4.70345">
        <ele>482</ele>
        <time>2026-03-26T09:35:10.000Z</time>
      </trkpt>
      <trkpt lat="46.37843" lon="4.70346">
        <ele>482</ele>
        <time>2026-03-26T09:35:16.000Z</time>
      </trkpt>
      <trkpt lat="46.37853" lon="4.70346">
        <ele>482</ele>
        <time>2026-03-26T09:35:24.000Z</time>
      </trkpt>
      <trkpt lat="46.37863" lon="4.70348">
        <ele>482</ele>
        <time>2026-03-26T09:35:32.000Z</time>
      </trkpt>
      <trkpt lat="46.37873" lon="4.70349">
        <ele>482</ele>
        <time>2026-03-26T09:35:41.000Z</time>
      </trkpt>
      <trkpt lat="46.37883" lon="4.7035">
        <ele>482</ele>
        <time>2026-03-26T09:35:49.000Z</time>
      </trkpt>
      <trkpt lat="46.37892" lon="4.70348">
        <ele>482</ele>
        <time>2026-03-26T09:35:57.000Z</time>
      </trkpt>
      <trkpt lat="46.37902" lon="4.7035">
        <ele>482</ele>
        <time>2026-03-26T09:36:06.000Z</time>
      </trkpt>
      <trkpt lat="46.37911" lon="4.70352">
        <ele>483</ele>
        <time>2026-03-26T09:36:15.000Z</time>
      </trkpt>
      <trkpt lat="46.3792" lon="4.70347">
        <ele>483</ele>
        <time>2026-03-26T09:36:27.000Z</time>
      </trkpt>
      <trkpt lat="46.37929" lon="4.70344">
        <ele>483</ele>
        <time>2026-03-26T09:36:33.000Z</time>
      </trkpt>
      <trkpt lat="46.3794" lon="4.70346">
        <ele>485</ele>
        <time>2026-03-26T09:36:42.000Z</time>
      </trkpt>
      <trkpt lat="46.3795" lon="4.70348">
        <ele>484</ele>
        <time>2026-03-26T09:36:50.000Z</time>
      </trkpt>
      <trkpt lat="46.37959" lon="4.70346">
        <ele>485</ele>
        <time>2026-03-26T09:36:57.000Z</time>
      </trkpt>
      <trkpt lat="46.37969" lon="4.70346">
        <ele>487</ele>
        <time>2026-03-26T09:37:03.000Z</time>
      </trkpt>
      <trkpt lat="46.37979" lon="4.70348">
        <ele>487</ele>
        <time>2026-03-26T09:37:11.000Z</time>
      </trkpt>
      <trkpt lat="46.37988" lon="4.70352">
        <ele>487</ele>
        <time>2026-03-26T09:37:26.000Z</time>
      </trkpt>
      <trkpt lat="46.37999" lon="4.70357">
        <ele>486</ele>
        <time>2026-03-26T09:37:34.000Z</time>
      </trkpt>
      <trkpt lat="46.38007" lon="4.70361">
        <ele>485</ele>
        <time>2026-03-26T09:37:41.000Z</time>
      </trkpt>
      <trkpt lat="46.38018" lon="4.70364">
        <ele>485</ele>
        <time>2026-03-26T09:37:49.000Z</time>
      </trkpt>
      <trkpt lat="46.38028" lon="4.70368">
        <ele>485</ele>
        <time>2026-03-26T09:37:57.000Z</time>
      </trkpt>
      <trkpt lat="46.38036" lon="4.70374">
        <ele>485</ele>
        <time>2026-03-26T09:38:03.000Z</time>
      </trkpt>
      <trkpt lat="46.38045" lon="4.70382">
        <ele>483</ele>
        <time>2026-03-26T09:38:12.000Z</time>
      </trkpt>
      <trkpt lat="46.38051" lon="4.70391">
        <ele>483</ele>
        <time>2026-03-26T09:38:18.000Z</time>
      </trkpt>
      <trkpt lat="46.38059" lon="4.70398">
        <ele>481</ele>
        <time>2026-03-26T09:38:24.000Z</time>
      </trkpt>
      <trkpt lat="46.38068" lon="4.70405">
        <ele>481</ele>
        <time>2026-03-26T09:38:33.000Z</time>
      </trkpt>
      <trkpt lat="46.38079" lon="4.70409">
        <ele>482</ele>
        <time>2026-03-26T09:38:41.000Z</time>
      </trkpt>
      <trkpt lat="46.3809" lon="4.7041">
        <ele>482</ele>
        <time>2026-03-26T09:38:49.000Z</time>
      </trkpt>
      <trkpt lat="46.381" lon="4.70408">
        <ele>482</ele>
        <time>2026-03-26T09:38:58.000Z</time>
      </trkpt>
      <trkpt lat="46.38109" lon="4.70407">
        <ele>483</ele>
        <time>2026-03-26T09:39:06.000Z</time>
      </trkpt>
      <trkpt lat="46.38119" lon="4.70404">
        <ele>483</ele>
        <time>2026-03-26T09:39:15.000Z</time>
      </trkpt>
      <trkpt lat="46.3813" lon="4.70403">
        <ele>483</ele>
        <time>2026-03-26T09:39:24.000Z</time>
      </trkpt>
      <trkpt lat="46.3814" lon="4.70402">
        <ele>484</ele>
        <time>2026-03-26T09:39:32.000Z</time>
      </trkpt>
      <trkpt lat="46.3815" lon="4.70399">
        <ele>485</ele>
        <time>2026-03-26T09:39:40.000Z</time>
      </trkpt>
      <trkpt lat="46.38156" lon="4.70388">
        <ele>486</ele>
        <time>2026-03-26T09:39:50.000Z</time>
      </trkpt>
      <trkpt lat="46.38158" lon="4.70373">
        <ele>483</ele>
        <time>2026-03-26T09:39:58.000Z</time>
      </trkpt>
      <trkpt lat="46.38161" lon="4.70359">
        <ele>480</ele>
        <time>2026-03-26T09:40:06.000Z</time>
      </trkpt>
      <trkpt lat="46.38162" lon="4.70347">
        <ele>478</ele>
        <time>2026-03-26T09:40:15.000Z</time>
      </trkpt>
      <trkpt lat="46.38166" lon="4.70335">
        <ele>477</ele>
        <time>2026-03-26T09:40:23.000Z</time>
      </trkpt>
      <trkpt lat="46.38173" lon="4.70326">
        <ele>476</ele>
        <time>2026-03-26T09:40:32.000Z</time>
      </trkpt>
      <trkpt lat="46.38178" lon="4.70314">
        <ele>474</ele>
        <time>2026-03-26T09:40:40.000Z</time>
      </trkpt>
      <trkpt lat="46.38181" lon="4.70301">
        <ele>472</ele>
        <time>2026-03-26T09:40:49.000Z</time>
      </trkpt>
      <trkpt lat="46.38183" lon="4.70289">
        <ele>471</ele>
        <time>2026-03-26T09:40:57.000Z</time>
      </trkpt>
      <trkpt lat="46.38187" lon="4.70278">
        <ele>469</ele>
        <time>2026-03-26T09:41:05.000Z</time>
      </trkpt>
      <trkpt lat="46.38193" lon="4.70267">
        <ele>468</ele>
        <time>2026-03-26T09:41:13.000Z</time>
      </trkpt>
      <trkpt lat="46.38197" lon="4.70255">
        <ele>466</ele>
        <time>2026-03-26T09:41:22.000Z</time>
      </trkpt>
      <trkpt lat="46.382" lon="4.70242">
        <ele>465</ele>
        <time>2026-03-26T09:41:30.000Z</time>
      </trkpt>
      <trkpt lat="46.38204" lon="4.70229">
        <ele>463</ele>
        <time>2026-03-26T09:41:39.000Z</time>
      </trkpt>
      <trkpt lat="46.38208" lon="4.70216">
        <ele>462</ele>
        <time>2026-03-26T09:41:47.000Z</time>
      </trkpt>
      <trkpt lat="46.38213" lon="4.70202">
        <ele>460</ele>
        <time>2026-03-26T09:41:56.000Z</time>
      </trkpt>
      <trkpt lat="46.38217" lon="4.70188">
        <ele>459</ele>
        <time>2026-03-26T09:42:04.000Z</time>
      </trkpt>
      <trkpt lat="46.38218" lon="4.70174">
        <ele>458</ele>
        <time>2026-03-26T09:42:13.000Z</time>
      </trkpt>
      <trkpt lat="46.3822" lon="4.7016">
        <ele>457</ele>
        <time>2026-03-26T09:42:22.000Z</time>
      </trkpt>
      <trkpt lat="46.38224" lon="4.70147">
        <ele>457</ele>
        <time>2026-03-26T09:42:30.000Z</time>
      </trkpt>
      <trkpt lat="46.38228" lon="4.70134">
        <ele>456</ele>
        <time>2026-03-26T09:42:39.000Z</time>
      </trkpt>
      <trkpt lat="46.38232" lon="4.70122">
        <ele>454</ele>
        <time>2026-03-26T09:42:48.000Z</time>
      </trkpt>
      <trkpt lat="46.38237" lon="4.7011">
        <ele>453</ele>
        <time>2026-03-26T09:42:56.000Z</time>
      </trkpt>
      <trkpt lat="46.38241" lon="4.70099">
        <ele>453</ele>
        <time>2026-03-26T09:43:05.000Z</time>
      </trkpt>
      <trkpt lat="46.38245" lon="4.70087">
        <ele>452</ele>
        <time>2026-03-26T09:43:13.000Z</time>
      </trkpt>
      <trkpt lat="46.38249" lon="4.70074">
        <ele>451</ele>
        <time>2026-03-26T09:43:21.000Z</time>
      </trkpt>
      <trkpt lat="46.38252" lon="4.70059">
        <ele>450</ele>
        <time>2026-03-26T09:43:29.000Z</time>
      </trkpt>
      <trkpt lat="46.38253" lon="4.70044">
        <ele>449</ele>
        <time>2026-03-26T09:43:38.000Z</time>
      </trkpt>
      <trkpt lat="46.38255" lon="4.70031">
        <ele>448</ele>
        <time>2026-03-26T09:43:44.000Z</time>
      </trkpt>
      <trkpt lat="46.38257" lon="4.70018">
        <ele>448</ele>
        <time>2026-03-26T09:43:51.000Z</time>
      </trkpt>
      <trkpt lat="46.3826" lon="4.70004">
        <ele>447</ele>
        <time>2026-03-26T09:43:59.000Z</time>
      </trkpt>
      <trkpt lat="46.38264" lon="4.69992">
        <ele>447</ele>
        <time>2026-03-26T09:44:07.000Z</time>
      </trkpt>
      <trkpt lat="46.38272" lon="4.69991">
        <ele>446</ele>
        <time>2026-03-26T09:48:39.000Z</time>
      </trkpt>
      <trkpt lat="46.38281" lon="4.69991">
        <ele>447</ele>
        <time>2026-03-26T09:48:46.000Z</time>
      </trkpt>
      <trkpt lat="46.38291" lon="4.69985">
        <ele>447</ele>
        <time>2026-03-26T09:48:54.000Z</time>
      </trkpt>
      <trkpt lat="46.38299" lon="4.69976">
        <ele>447</ele>
        <time>2026-03-26T09:49:02.000Z</time>
      </trkpt>
      <trkpt lat="46.38306" lon="4.69966">
        <ele>447</ele>
        <time>2026-03-26T09:49:10.000Z</time>
      </trkpt>
      <trkpt lat="46.38314" lon="4.69957">
        <ele>447</ele>
        <time>2026-03-26T09:49:18.000Z</time>
      </trkpt>
      <trkpt lat="46.3832" lon="4.69946">
        <ele>447</ele>
        <time>2026-03-26T09:49:27.000Z</time>
      </trkpt>
      <trkpt lat="46.38322" lon="4.69933">
        <ele>448</ele>
        <time>2026-03-26T09:49:35.000Z</time>
      </trkpt>
      <trkpt lat="46.38317" lon="4.69922">
        <ele>446</ele>
        <time>2026-03-26T09:49:41.000Z</time>
      </trkpt>
      <trkpt lat="46.3831" lon="4.69911">
        <ele>444</ele>
        <time>2026-03-26T09:49:50.000Z</time>
      </trkpt>
      <trkpt lat="46.38305" lon="4.69897">
        <ele>442</ele>
        <time>2026-03-26T09:49:58.000Z</time>
      </trkpt>
      <trkpt lat="46.38305" lon="4.69883">
        <ele>440</ele>
        <time>2026-03-26T09:50:07.000Z</time>
      </trkpt>
      <trkpt lat="46.383" lon="4.69872">
        <ele>440</ele>
        <time>2026-03-26T09:50:15.000Z</time>
      </trkpt>
      <trkpt lat="46.38291" lon="4.69869">
        <ele>440</ele>
        <time>2026-03-26T09:50:21.000Z</time>
      </trkpt>
      <trkpt lat="46.38282" lon="4.6987">
        <ele>440</ele>
        <time>2026-03-26T09:50:27.000Z</time>
      </trkpt>
      <trkpt lat="46.38273" lon="4.69869">
        <ele>439</ele>
        <time>2026-03-26T09:50:34.000Z</time>
      </trkpt>
      <trkpt lat="46.38264" lon="4.69869">
        <ele>437</ele>
        <time>2026-03-26T09:50:40.000Z</time>
      </trkpt>
      <trkpt lat="46.38254" lon="4.6987">
        <ele>436</ele>
        <time>2026-03-26T09:50:48.000Z</time>
      </trkpt>
      <trkpt lat="46.38244" lon="4.69867">
        <ele>435</ele>
        <time>2026-03-26T09:50:56.000Z</time>
      </trkpt>
      <trkpt lat="46.38235" lon="4.69863">
        <ele>433</ele>
        <time>2026-03-26T09:51:03.000Z</time>
      </trkpt>
      <trkpt lat="46.38229" lon="4.69854">
        <ele>431</ele>
        <time>2026-03-26T09:51:12.000Z</time>
      </trkpt>
      <trkpt lat="46.38226" lon="4.69841">
        <ele>428</ele>
        <time>2026-03-26T09:51:22.000Z</time>
      </trkpt>
      <trkpt lat="46.38228" lon="4.69828">
        <ele>427</ele>
        <time>2026-03-26T09:51:30.000Z</time>
      </trkpt>
      <trkpt lat="46.38226" lon="4.69812">
        <ele>424</ele>
        <time>2026-03-26T09:51:40.000Z</time>
      </trkpt>
      <trkpt lat="46.38224" lon="4.69798">
        <ele>421</ele>
        <time>2026-03-26T09:51:53.000Z</time>
      </trkpt>
      <trkpt lat="46.38225" lon="4.69784">
        <ele>420</ele>
        <time>2026-03-26T09:52:01.000Z</time>
      </trkpt>
      <trkpt lat="46.38228" lon="4.6977">
        <ele>419</ele>
        <time>2026-03-26T09:52:10.000Z</time>
      </trkpt>
      <trkpt lat="46.38225" lon="4.69757">
        <ele>419</ele>
        <time>2026-03-26T09:52:18.000Z</time>
      </trkpt>
      <trkpt lat="46.38219" lon="4.69748">
        <ele>421</ele>
        <time>2026-03-26T09:52:27.000Z</time>
      </trkpt>
      <trkpt lat="46.38212" lon="4.6974">
        <ele>421</ele>
        <time>2026-03-26T09:52:36.000Z</time>
      </trkpt>
      <trkpt lat="46.38208" lon="4.6973">
        <ele>420</ele>
        <time>2026-03-26T09:52:47.000Z</time>
      </trkpt>
      <trkpt lat="46.382" lon="4.6973">
        <ele>419</ele>
        <time>2026-03-26T09:54:28.000Z</time>
      </trkpt>
      <trkpt lat="46.38191" lon="4.6973">
        <ele>416</ele>
        <time>2026-03-26T09:54:34.000Z</time>
      </trkpt>
      <trkpt lat="46.38184" lon="4.69723">
        <ele>415</ele>
        <time>2026-03-26T09:54:40.000Z</time>
      </trkpt>
      <trkpt lat="46.38179" lon="4.69713">
        <ele>415</ele>
        <time>2026-03-26T09:54:46.000Z</time>
      </trkpt>
      <trkpt lat="46.38173" lon="4.69703">
        <ele>413</ele>
        <time>2026-03-26T09:54:54.000Z</time>
      </trkpt>
      <trkpt lat="46.38168" lon="4.69692">
        <ele>412</ele>
        <time>2026-03-26T09:55:00.000Z</time>
      </trkpt>
      <trkpt lat="46.38161" lon="4.6968">
        <ele>411</ele>
        <time>2026-03-26T09:55:08.000Z</time>
      </trkpt>
      <trkpt lat="46.38154" lon="4.69667">
        <ele>410</ele>
        <time>2026-03-26T09:55:16.000Z</time>
      </trkpt>
      <trkpt lat="46.3815" lon="4.69654">
        <ele>410</ele>
        <time>2026-03-26T09:55:24.000Z</time>
      </trkpt>
      <trkpt lat="46.38144" lon="4.6964">
        <ele>408</ele>
        <time>2026-03-26T09:55:31.000Z</time>
      </trkpt>
      <trkpt lat="46.38139" lon="4.6963">
        <ele>407</ele>
        <time>2026-03-26T09:55:37.000Z</time>
      </trkpt>
      <trkpt lat="46.38133" lon="4.69619">
        <ele>407</ele>
        <time>2026-03-26T09:55:45.000Z</time>
      </trkpt>
      <trkpt lat="46.38125" lon="4.69607">
        <ele>406</ele>
        <time>2026-03-26T09:55:53.000Z</time>
      </trkpt>
      <trkpt lat="46.38119" lon="4.69597">
        <ele>405</ele>
        <time>2026-03-26T09:55:59.000Z</time>
      </trkpt>
      <trkpt lat="46.38111" lon="4.69588">
        <ele>404</ele>
        <time>2026-03-26T09:56:07.000Z</time>
      </trkpt>
      <trkpt lat="46.38104" lon="4.69577">
        <ele>402</ele>
        <time>2026-03-26T09:56:15.000Z</time>
      </trkpt>
      <trkpt lat="46.38098" lon="4.69567">
        <ele>401</ele>
        <time>2026-03-26T09:56:23.000Z</time>
      </trkpt>
      <trkpt lat="46.38091" lon="4.69556">
        <ele>400</ele>
        <time>2026-03-26T09:56:31.000Z</time>
      </trkpt>
      <trkpt lat="46.38082" lon="4.69547">
        <ele>400</ele>
        <time>2026-03-26T09:56:39.000Z</time>
      </trkpt>
      <trkpt lat="46.38074" lon="4.69541">
        <ele>398</ele>
        <time>2026-03-26T09:56:45.000Z</time>
      </trkpt>
      <trkpt lat="46.38066" lon="4.69534">
        <ele>397</ele>
        <time>2026-03-26T09:56:53.000Z</time>
      </trkpt>
      <trkpt lat="46.38057" lon="4.69525">
        <ele>396</ele>
        <time>2026-03-26T09:57:01.000Z</time>
      </trkpt>
      <trkpt lat="46.38048" lon="4.69518">
        <ele>393</ele>
        <time>2026-03-26T09:57:09.000Z</time>
      </trkpt>
      <trkpt lat="46.3804" lon="4.69507">
        <ele>393</ele>
        <time>2026-03-26T09:57:17.000Z</time>
      </trkpt>
      <trkpt lat="46.38034" lon="4.69494">
        <ele>392</ele>
        <time>2026-03-26T09:57:25.000Z</time>
      </trkpt>
      <trkpt lat="46.38026" lon="4.69485">
        <ele>391</ele>
        <time>2026-03-26T09:57:35.000Z</time>
      </trkpt>
      <trkpt lat="46.38018" lon="4.6948">
        <ele>387</ele>
        <time>2026-03-26T09:57:43.000Z</time>
      </trkpt>
      <trkpt lat="46.38008" lon="4.69478">
        <ele>386</ele>
        <time>2026-03-26T09:57:51.000Z</time>
      </trkpt>
      <trkpt lat="46.38002" lon="4.69476">
        <ele>384</ele>
        <time>2026-03-26T09:58:02.000Z</time>
      </trkpt>
      <trkpt lat="46.38015" lon="4.69468">
        <ele>387</ele>
        <time>2026-03-26T09:58:19.000Z</time>
      </trkpt>
      <trkpt lat="46.38015" lon="4.69453">
        <ele>388</ele>
        <time>2026-03-26T09:59:34.000Z</time>
      </trkpt>
      <trkpt lat="46.38013" lon="4.6944">
        <ele>388</ele>
        <time>2026-03-26T09:59:41.000Z</time>
      </trkpt>
      <trkpt lat="46.38009" lon="4.69425">
        <ele>388</ele>
        <time>2026-03-26T09:59:50.000Z</time>
      </trkpt>
      <trkpt lat="46.38003" lon="4.69414">
        <ele>386</ele>
        <time>2026-03-26T10:00:03.000Z</time>
      </trkpt>
      <trkpt lat="46.37998" lon="4.69404">
        <ele>383</ele>
        <time>2026-03-26T10:00:24.000Z</time>
      </trkpt>
      <trkpt lat="46.38001" lon="4.69391">
        <ele>386</ele>
        <time>2026-03-26T10:00:31.000Z</time>
      </trkpt>
      <trkpt lat="46.38005" lon="4.69378">
        <ele>389</ele>
        <time>2026-03-26T10:00:44.000Z</time>
      </trkpt>
      <trkpt lat="46.38007" lon="4.69365">
        <ele>389</ele>
        <time>2026-03-26T10:00:55.000Z</time>
      </trkpt>
      <trkpt lat="46.38005" lon="4.69353">
        <ele>387</ele>
        <time>2026-03-26T10:01:01.000Z</time>
      </trkpt>
      <trkpt lat="46.38" lon="4.69341">
        <ele>384</ele>
        <time>2026-03-26T10:01:07.000Z</time>
      </trkpt>
      <trkpt lat="46.37997" lon="4.69329">
        <ele>383</ele>
        <time>2026-03-26T10:01:13.000Z</time>
      </trkpt>
      <trkpt lat="46.37997" lon="4.69315">
        <ele>382</ele>
        <time>2026-03-26T10:01:19.000Z</time>
      </trkpt>
      <trkpt lat="46.37999" lon="4.69302">
        <ele>381</ele>
        <time>2026-03-26T10:01:26.000Z</time>
      </trkpt>
      <trkpt lat="46.38004" lon="4.69289">
        <ele>380</ele>
        <time>2026-03-26T10:01:34.000Z</time>
      </trkpt>
      <trkpt lat="46.38013" lon="4.69281">
        <ele>379</ele>
        <time>2026-03-26T10:01:42.000Z</time>
      </trkpt>
      <trkpt lat="46.38017" lon="4.6927">
        <ele>379</ele>
        <time>2026-03-26T10:01:49.000Z</time>
      </trkpt>
      <trkpt lat="46.3802" lon="4.69258">
        <ele>378</ele>
        <time>2026-03-26T10:01:55.000Z</time>
      </trkpt>
      <trkpt lat="46.38025" lon="4.69244">
        <ele>377</ele>
        <time>2026-03-26T10:02:03.000Z</time>
      </trkpt>
      <trkpt lat="46.38031" lon="4.6923">
        <ele>375</ele>
        <time>2026-03-26T10:02:12.000Z</time>
      </trkpt>
      <trkpt lat="46.38038" lon="4.6922">
        <ele>375</ele>
        <time>2026-03-26T10:02:22.000Z</time>
      </trkpt>
      <trkpt lat="46.38046" lon="4.69212">
        <ele>375</ele>
        <time>2026-03-26T10:02:30.000Z</time>
      </trkpt>
      <trkpt lat="46.38053" lon="4.69202">
        <ele>375</ele>
        <time>2026-03-26T10:02:41.000Z</time>
      </trkpt>
      <trkpt lat="46.38062" lon="4.69195">
        <ele>374</ele>
        <time>2026-03-26T10:02:49.000Z</time>
      </trkpt>
      <trkpt lat="46.38071" lon="4.69188">
        <ele>373</ele>
        <time>2026-03-26T10:02:57.000Z</time>
      </trkpt>
      <trkpt lat="46.38079" lon="4.69179">
        <ele>372</ele>
        <time>2026-03-26T10:03:05.000Z</time>
      </trkpt>
      <trkpt lat="46.38087" lon="4.6917">
        <ele>371</ele>
        <time>2026-03-26T10:03:16.000Z</time>
      </trkpt>
      <trkpt lat="46.38091" lon="4.69159">
        <ele>369</ele>
        <time>2026-03-26T10:03:27.000Z</time>
      </trkpt>
      <trkpt lat="46.38099" lon="4.69148">
        <ele>365</ele>
        <time>2026-03-26T10:03:37.000Z</time>
      </trkpt>
      <trkpt lat="46.38105" lon="4.69139">
        <ele>363</ele>
        <time>2026-03-26T10:03:45.000Z</time>
      </trkpt>
      <trkpt lat="46.38115" lon="4.69134">
        <ele>363</ele>
        <time>2026-03-26T10:03:53.000Z</time>
      </trkpt>
      <trkpt lat="46.38125" lon="4.69133">
        <ele>366</ele>
        <time>2026-03-26T10:04:02.000Z</time>
      </trkpt>
      <trkpt lat="46.38136" lon="4.69136">
        <ele>367</ele>
        <time>2026-03-26T10:04:10.000Z</time>
      </trkpt>
      <trkpt lat="46.38145" lon="4.69133">
        <ele>368</ele>
        <time>2026-03-26T10:04:18.000Z</time>
      </trkpt>
      <trkpt lat="46.38154" lon="4.69125">
        <ele>366</ele>
        <time>2026-03-26T10:04:27.000Z</time>
      </trkpt>
      <trkpt lat="46.38163" lon="4.69117">
        <ele>364</ele>
        <time>2026-03-26T10:04:35.000Z</time>
      </trkpt>
      <trkpt lat="46.38172" lon="4.69112">
        <ele>363</ele>
        <time>2026-03-26T10:04:44.000Z</time>
      </trkpt>
      <trkpt lat="46.3818" lon="4.69107">
        <ele>362</ele>
        <time>2026-03-26T10:04:52.000Z</time>
      </trkpt>
      <trkpt lat="46.38189" lon="4.69104">
        <ele>361</ele>
        <time>2026-03-26T10:05:00.000Z</time>
      </trkpt>
      <trkpt lat="46.38198" lon="4.691">
        <ele>361</ele>
        <time>2026-03-26T10:05:08.000Z</time>
      </trkpt>
      <trkpt lat="46.38206" lon="4.69094">
        <ele>360</ele>
        <time>2026-03-26T10:05:16.000Z</time>
      </trkpt>
      <trkpt lat="46.38214" lon="4.69087">
        <ele>358</ele>
        <time>2026-03-26T10:05:23.000Z</time>
      </trkpt>
      <trkpt lat="46.38223" lon="4.69079">
        <ele>355</ele>
        <time>2026-03-26T10:05:31.000Z</time>
      </trkpt>
      <trkpt lat="46.38231" lon="4.69072">
        <ele>353</ele>
        <time>2026-03-26T10:05:39.000Z</time>
      </trkpt>
      <trkpt lat="46.38239" lon="4.69066">
        <ele>352</ele>
        <time>2026-03-26T10:05:48.000Z</time>
      </trkpt>
      <trkpt lat="46.38246" lon="4.69057">
        <ele>349</ele>
        <time>2026-03-26T10:05:56.000Z</time>
      </trkpt>
      <trkpt lat="46.38252" lon="4.69045">
        <ele>347</ele>
        <time>2026-03-26T10:06:05.000Z</time>
      </trkpt>
      <trkpt lat="46.38253" lon="4.69033">
        <ele>346</ele>
        <time>2026-03-26T10:07:39.000Z</time>
      </trkpt>
      <trkpt lat="46.38261" lon="4.69023">
        <ele>345</ele>
        <time>2026-03-26T10:07:47.000Z</time>
      </trkpt>
      <trkpt lat="46.38269" lon="4.69015">
        <ele>345</ele>
        <time>2026-03-26T10:07:53.000Z</time>
      </trkpt>
      <trkpt lat="46.38277" lon="4.69007">
        <ele>346</ele>
        <time>2026-03-26T10:07:59.000Z</time>
      </trkpt>
      <trkpt lat="46.38286" lon="4.68999">
        <ele>345</ele>
        <time>2026-03-26T10:08:07.000Z</time>
      </trkpt>
      <trkpt lat="46.38295" lon="4.68992">
        <ele>343</ele>
        <time>2026-03-26T10:08:16.000Z</time>
      </trkpt>
      <trkpt lat="46.38304" lon="4.68987">
        <ele>343</ele>
        <time>2026-03-26T10:08:24.000Z</time>
      </trkpt>
      <trkpt lat="46.38314" lon="4.68982">
        <ele>342</ele>
        <time>2026-03-26T10:08:32.000Z</time>
      </trkpt>
      <trkpt lat="46.38323" lon="4.68975">
        <ele>340</ele>
        <time>2026-03-26T10:08:40.000Z</time>
      </trkpt>
      <trkpt lat="46.38333" lon="4.68971">
        <ele>340</ele>
        <time>2026-03-26T10:08:49.000Z</time>
      </trkpt>
      <trkpt lat="46.38342" lon="4.68973">
        <ele>341</ele>
        <time>2026-03-26T10:08:57.000Z</time>
      </trkpt>
      <trkpt lat="46.38349" lon="4.6898">
        <ele>342</ele>
        <time>2026-03-26T10:09:06.000Z</time>
      </trkpt>
      <trkpt lat="46.38357" lon="4.68986">
        <ele>344</ele>
        <time>2026-03-26T10:09:14.000Z</time>
      </trkpt>
      <trkpt lat="46.38367" lon="4.68988">
        <ele>345</ele>
        <time>2026-03-26T10:09:22.000Z</time>
      </trkpt>
      <trkpt lat="46.38377" lon="4.68985">
        <ele>345</ele>
        <time>2026-03-26T10:09:30.000Z</time>
      </trkpt>
      <trkpt lat="46.38386" lon="4.68985">
        <ele>345</ele>
        <time>2026-03-26T10:09:38.000Z</time>
      </trkpt>
      <trkpt lat="46.38396" lon="4.68983">
        <ele>345</ele>
        <time>2026-03-26T10:09:54.000Z</time>
      </trkpt>
      <trkpt lat="46.38406" lon="4.68981">
        <ele>346</ele>
        <time>2026-03-26T10:10:02.000Z</time>
      </trkpt>
      <trkpt lat="46.38415" lon="4.68979">
        <ele>347</ele>
        <time>2026-03-26T10:10:12.000Z</time>
      </trkpt>
      <trkpt lat="46.38424" lon="4.68974">
        <ele>348</ele>
        <time>2026-03-26T10:10:26.000Z</time>
      </trkpt>
      <trkpt lat="46.38434" lon="4.68977">
        <ele>350</ele>
        <time>2026-03-26T10:12:14.000Z</time>
      </trkpt>
      <trkpt lat="46.38443" lon="4.68981">
        <ele>351</ele>
        <time>2026-03-26T10:12:22.000Z</time>
      </trkpt>
      <trkpt lat="46.38453" lon="4.68986">
        <ele>352</ele>
        <time>2026-03-26T10:12:32.000Z</time>
      </trkpt>
      <trkpt lat="46.38463" lon="4.68988">
        <ele>355</ele>
        <time>2026-03-26T10:12:43.000Z</time>
      </trkpt>
      <trkpt lat="46.38472" lon="4.68991">
        <ele>357</ele>
        <time>2026-03-26T10:12:53.000Z</time>
      </trkpt>
      <trkpt lat="46.38481" lon="4.68993">
        <ele>359</ele>
        <time>2026-03-26T10:12:59.000Z</time>
      </trkpt>
      <trkpt lat="46.38492" lon="4.68993">
        <ele>360</ele>
        <time>2026-03-26T10:13:08.000Z</time>
      </trkpt>
      <trkpt lat="46.385" lon="4.68986">
        <ele>359</ele>
        <time>2026-03-26T10:13:15.000Z</time>
      </trkpt>
      <trkpt lat="46.38509" lon="4.68985">
        <ele>360</ele>
        <time>2026-03-26T10:13:24.000Z</time>
      </trkpt>
      <trkpt lat="46.3852" lon="4.68988">
        <ele>361</ele>
        <time>2026-03-26T10:13:32.000Z</time>
      </trkpt>
      <trkpt lat="46.38531" lon="4.6899">
        <ele>363</ele>
        <time>2026-03-26T10:13:41.000Z</time>
      </trkpt>
      <trkpt lat="46.38541" lon="4.68991">
        <ele>365</ele>
        <time>2026-03-26T10:13:50.000Z</time>
      </trkpt>
      <trkpt lat="46.38549" lon="4.68986">
        <ele>365</ele>
        <time>2026-03-26T10:14:18.000Z</time>
      </trkpt>
      <trkpt lat="46.38559" lon="4.68979">
        <ele>367</ele>
        <time>2026-03-26T10:14:29.000Z</time>
      </trkpt>
      <trkpt lat="46.38568" lon="4.68973">
        <ele>368</ele>
        <time>2026-03-26T10:14:39.000Z</time>
      </trkpt>
      <trkpt lat="46.38576" lon="4.68968">
        <ele>369</ele>
        <time>2026-03-26T10:14:50.000Z</time>
      </trkpt>
      <trkpt lat="46.38585" lon="4.68965">
        <ele>370</ele>
        <time>2026-03-26T10:15:00.000Z</time>
      </trkpt>
      <trkpt lat="46.38593" lon="4.68961">
        <ele>370</ele>
        <time>2026-03-26T10:15:10.000Z</time>
      </trkpt>
      <trkpt lat="46.38602" lon="4.68957">
        <ele>372</ele>
        <time>2026-03-26T10:15:20.000Z</time>
      </trkpt>
      <trkpt lat="46.38611" lon="4.68957">
        <ele>372</ele>
        <time>2026-03-26T10:15:30.000Z</time>
      </trkpt>
      <trkpt lat="46.38621" lon="4.68965">
        <ele>373</ele>
        <time>2026-03-26T10:15:37.000Z</time>
      </trkpt>
      <trkpt lat="46.38631" lon="4.68973">
        <ele>374</ele>
        <time>2026-03-26T10:15:45.000Z</time>
      </trkpt>
      <trkpt lat="46.38639" lon="4.68981">
        <ele>376</ele>
        <time>2026-03-26T10:15:51.000Z</time>
      </trkpt>
      <trkpt lat="46.38646" lon="4.68989">
        <ele>376</ele>
        <time>2026-03-26T10:16:00.000Z</time>
      </trkpt>
      <trkpt lat="46.38655" lon="4.68994">
        <ele>377</ele>
        <time>2026-03-26T10:16:13.000Z</time>
      </trkpt>
      <trkpt lat="46.38666" lon="4.68993">
        <ele>378</ele>
        <time>2026-03-26T10:16:24.000Z</time>
      </trkpt>
      <trkpt lat="46.38675" lon="4.68989">
        <ele>378</ele>
        <time>2026-03-26T10:16:33.000Z</time>
      </trkpt>
      <trkpt lat="46.38684" lon="4.68986">
        <ele>378</ele>
        <time>2026-03-26T10:16:43.000Z</time>
      </trkpt>
      <trkpt lat="46.38683" lon="4.6898">
        <ele>378</ele>
        <time>2026-03-26T10:16:55.000Z</time>
      </trkpt>
      <trkpt lat="46.38689" lon="4.68988">
        <ele>379</ele>
        <time>2026-03-26T10:17:10.000Z</time>
      </trkpt>
      <trkpt lat="46.38702" lon="4.6899">
        <ele>380</ele>
        <time>2026-03-26T10:17:25.000Z</time>
      </trkpt>
      <trkpt lat="46.38714" lon="4.68997">
        <ele>381</ele>
        <time>2026-03-26T10:17:29.000Z</time>
      </trkpt>
      <trkpt lat="46.38724" lon="4.69002">
        <ele>383</ele>
        <time>2026-03-26T10:17:42.000Z</time>
      </trkpt>
      <trkpt lat="46.38736" lon="4.69002">
        <ele>384</ele>
        <time>2026-03-26T10:17:49.000Z</time>
      </trkpt>
      <trkpt lat="46.38747" lon="4.69">
        <ele>384</ele>
        <time>2026-03-26T10:17:55.000Z</time>
      </trkpt>
      <trkpt lat="46.38757" lon="4.68998">
        <ele>385</ele>
        <time>2026-03-26T10:18:04.000Z</time>
      </trkpt>
      <trkpt lat="46.38766" lon="4.68993">
        <ele>386</ele>
        <time>2026-03-26T10:18:12.000Z</time>
      </trkpt>
      <trkpt lat="46.38772" lon="4.68983">
        <ele>386</ele>
        <time>2026-03-26T10:18:21.000Z</time>
      </trkpt>
      <trkpt lat="46.38775" lon="4.68972">
        <ele>388</ele>
        <time>2026-03-26T10:18:28.000Z</time>
      </trkpt>
      <trkpt lat="46.38769" lon="4.68962">
        <ele>388</ele>
        <time>2026-03-26T10:18:44.000Z</time>
      </trkpt>
      <trkpt lat="46.38761" lon="4.68954">
        <ele>387</ele>
        <time>2026-03-26T10:18:52.000Z</time>
      </trkpt>
      <trkpt lat="46.38752" lon="4.68948">
        <ele>386</ele>
        <time>2026-03-26T10:19:01.000Z</time>
      </trkpt>
      <trkpt lat="46.38744" lon="4.68942">
        <ele>386</ele>
        <time>2026-03-26T10:19:10.000Z</time>
      </trkpt>
      <trkpt lat="46.38735" lon="4.68937">
        <ele>386</ele>
        <time>2026-03-26T10:19:21.000Z</time>
      </trkpt>
      <trkpt lat="46.38727" lon="4.68929">
        <ele>385</ele>
        <time>2026-03-26T10:19:32.000Z</time>
      </trkpt>
      <trkpt lat="46.38725" lon="4.68915">
        <ele>385</ele>
        <time>2026-03-26T10:19:43.000Z</time>
      </trkpt>
      <trkpt lat="46.3872" lon="4.68904">
        <ele>384</ele>
        <time>2026-03-26T10:19:55.000Z</time>
      </trkpt>
      <trkpt lat="46.38714" lon="4.68899">
        <ele>384</ele>
        <time>2026-03-26T10:20:09.000Z</time>
      </trkpt>
      <trkpt lat="46.38721" lon="4.689">
        <ele>384</ele>
        <time>2026-03-26T10:22:28.000Z</time>
      </trkpt>
      <trkpt lat="46.3873" lon="4.68901">
        <ele>384</ele>
        <time>2026-03-26T10:22:39.000Z</time>
      </trkpt>
      <trkpt lat="46.38738" lon="4.68905">
        <ele>385</ele>
        <time>2026-03-26T10:22:52.000Z</time>
      </trkpt>
      <trkpt lat="46.38746" lon="4.68908">
        <ele>386</ele>
        <time>2026-03-26T10:23:02.000Z</time>
      </trkpt>
      <trkpt lat="46.38748" lon="4.6892">
        <ele>388</ele>
        <time>2026-03-26T10:23:37.000Z</time>
      </trkpt>
      <trkpt lat="46.38756" lon="4.68927">
        <ele>389</ele>
        <time>2026-03-26T10:24:07.000Z</time>
      </trkpt>
      <trkpt lat="46.38765" lon="4.68925">
        <ele>390</ele>
        <time>2026-03-26T10:24:13.000Z</time>
      </trkpt>
      <trkpt lat="46.38774" lon="4.68925">
        <ele>391</ele>
        <time>2026-03-26T10:24:19.000Z</time>
      </trkpt>
      <trkpt lat="46.38783" lon="4.68925">
        <ele>391</ele>
        <time>2026-03-26T10:24:25.000Z</time>
      </trkpt>
      <trkpt lat="46.38792" lon="4.68925">
        <ele>391</ele>
        <time>2026-03-26T10:24:31.000Z</time>
      </trkpt>
      <trkpt lat="46.38801" lon="4.68924">
        <ele>391</ele>
        <time>2026-03-26T10:24:39.000Z</time>
      </trkpt>
      <trkpt lat="46.38811" lon="4.68919">
        <ele>389</ele>
        <time>2026-03-26T10:24:47.000Z</time>
      </trkpt>
      <trkpt lat="46.38821" lon="4.68915">
        <ele>388</ele>
        <time>2026-03-26T10:24:54.000Z</time>
      </trkpt>
      <trkpt lat="46.38832" lon="4.68913">
        <ele>387</ele>
        <time>2026-03-26T10:25:02.000Z</time>
      </trkpt>
      <trkpt lat="46.3884" lon="4.6891">
        <ele>386</ele>
        <time>2026-03-26T10:25:08.000Z</time>
      </trkpt>
      <trkpt lat="46.38846" lon="4.68899">
        <ele>385</ele>
        <time>2026-03-26T10:25:16.000Z</time>
      </trkpt>
      <trkpt lat="46.38842" lon="4.68888">
        <ele>383</ele>
        <time>2026-03-26T10:25:30.000Z</time>
      </trkpt>
      <trkpt lat="46.38836" lon="4.68881">
        <ele>383</ele>
        <time>2026-03-26T10:25:43.000Z</time>
      </trkpt>
      <trkpt lat="46.3884" lon="4.68872">
        <ele>381</ele>
        <time>2026-03-26T10:25:51.000Z</time>
      </trkpt>
      <trkpt lat="46.3884" lon="4.68859">
        <ele>380</ele>
        <time>2026-03-26T10:26:22.000Z</time>
      </trkpt>
      <trkpt lat="46.38838" lon="4.68844">
        <ele>377</ele>
        <time>2026-03-26T10:26:30.000Z</time>
      </trkpt>
      <trkpt lat="46.38835" lon="4.6883">
        <ele>375</ele>
        <time>2026-03-26T10:26:43.000Z</time>
      </trkpt>
      <trkpt lat="46.38836" lon="4.68816">
        <ele>373</ele>
        <time>2026-03-26T10:26:51.000Z</time>
      </trkpt>
      <trkpt lat="46.38841" lon="4.68804">
        <ele>372</ele>
        <time>2026-03-26T10:27:00.000Z</time>
      </trkpt>
      <trkpt lat="46.38837" lon="4.68793">
        <ele>370</ele>
        <time>2026-03-26T10:27:06.000Z</time>
      </trkpt>
      <trkpt lat="46.38834" lon="4.68781">
        <ele>369</ele>
        <time>2026-03-26T10:27:12.000Z</time>
      </trkpt>
      <trkpt lat="46.38834" lon="4.68765">
        <ele>368</ele>
        <time>2026-03-26T10:27:21.000Z</time>
      </trkpt>
      <trkpt lat="46.38834" lon="4.6875">
        <ele>369</ele>
        <time>2026-03-26T10:27:27.000Z</time>
      </trkpt>
      <trkpt lat="46.38833" lon="4.68738">
        <ele>369</ele>
        <time>2026-03-26T10:27:36.000Z</time>
      </trkpt>
      <trkpt lat="46.38827" lon="4.6873">
        <ele>369</ele>
        <time>2026-03-26T10:27:51.000Z</time>
      </trkpt>
      <trkpt lat="46.38829" lon="4.68718">
        <ele>369</ele>
        <time>2026-03-26T10:28:17.000Z</time>
      </trkpt>
      <trkpt lat="46.38827" lon="4.68705">
        <ele>371</ele>
        <time>2026-03-26T10:28:30.000Z</time>
      </trkpt>
      <trkpt lat="46.38824" lon="4.68691">
        <ele>373</ele>
        <time>2026-03-26T10:28:36.000Z</time>
      </trkpt>
      <trkpt lat="46.38821" lon="4.68676">
        <ele>374</ele>
        <time>2026-03-26T10:28:44.000Z</time>
      </trkpt>
      <trkpt lat="46.38818" lon="4.68663">
        <ele>376</ele>
        <time>2026-03-26T10:28:51.000Z</time>
      </trkpt>
      <trkpt lat="46.38815" lon="4.6865">
        <ele>378</ele>
        <time>2026-03-26T10:28:59.000Z</time>
      </trkpt>
      <trkpt lat="46.38811" lon="4.68639">
        <ele>380</ele>
        <time>2026-03-26T10:29:06.000Z</time>
      </trkpt>
      <trkpt lat="46.38806" lon="4.68628">
        <ele>381</ele>
        <time>2026-03-26T10:29:15.000Z</time>
      </trkpt>
      <trkpt lat="46.38799" lon="4.68618">
        <ele>381</ele>
        <time>2026-03-26T10:29:23.000Z</time>
      </trkpt>
      <trkpt lat="46.38792" lon="4.68608">
        <ele>382</ele>
        <time>2026-03-26T10:29:31.000Z</time>
      </trkpt>
      <trkpt lat="46.38783" lon="4.68598">
        <ele>382</ele>
        <time>2026-03-26T10:29:39.000Z</time>
      </trkpt>
      <trkpt lat="46.38775" lon="4.68587">
        <ele>381</ele>
        <time>2026-03-26T10:29:47.000Z</time>
      </trkpt>
      <trkpt lat="46.38768" lon="4.68579">
        <ele>381</ele>
        <time>2026-03-26T10:29:53.000Z</time>
      </trkpt>
      <trkpt lat="46.38761" lon="4.68568">
        <ele>379</ele>
        <time>2026-03-26T10:30:01.000Z</time>
      </trkpt>
      <trkpt lat="46.38757" lon="4.68556">
        <ele>380</ele>
        <time>2026-03-26T10:30:07.000Z</time>
      </trkpt>
      <trkpt lat="46.38753" lon="4.68543">
        <ele>380</ele>
        <time>2026-03-26T10:30:16.000Z</time>
      </trkpt>
      <trkpt lat="46.38749" lon="4.6853">
        <ele>380</ele>
        <time>2026-03-26T10:30:24.000Z</time>
      </trkpt>
      <trkpt lat="46.38744" lon="4.6852">
        <ele>380</ele>
        <time>2026-03-26T10:30:33.000Z</time>
      </trkpt>
      <trkpt lat="46.38737" lon="4.68511">
        <ele>378</ele>
        <time>2026-03-26T10:30:42.000Z</time>
      </trkpt>
      <trkpt lat="46.38732" lon="4.685">
        <ele>378</ele>
        <time>2026-03-26T10:30:49.000Z</time>
      </trkpt>
      <trkpt lat="46.38733" lon="4.68486">
        <ele>378</ele>
        <time>2026-03-26T10:30:57.000Z</time>
      </trkpt>
      <trkpt lat="46.38735" lon="4.68476">
        <ele>378</ele>
        <time>2026-03-26T10:31:03.000Z</time>
      </trkpt>
      <trkpt lat="46.38729" lon="4.68475">
        <ele>376</ele>
        <time>2026-03-26T10:31:10.000Z</time>
      </trkpt>
      <trkpt lat="46.38735" lon="4.68476">
        <ele>378</ele>
        <time>2026-03-26T10:31:25.000Z</time>
      </trkpt>
      <trkpt lat="46.38744" lon="4.68474">
        <ele>379</ele>
        <time>2026-03-26T10:31:38.000Z</time>
      </trkpt>
      <trkpt lat="46.38752" lon="4.68467">
        <ele>381</ele>
        <time>2026-03-26T10:31:44.000Z</time>
      </trkpt>
      <trkpt lat="46.38761" lon="4.68465">
        <ele>382</ele>
        <time>2026-03-26T10:31:51.000Z</time>
      </trkpt>
      <trkpt lat="46.3877" lon="4.68466">
        <ele>384</ele>
        <time>2026-03-26T10:31:57.000Z</time>
      </trkpt>
      <trkpt lat="46.38778" lon="4.68464">
        <ele>385</ele>
        <time>2026-03-26T10:32:06.000Z</time>
      </trkpt>
      <trkpt lat="46.38782" lon="4.68451">
        <ele>385</ele>
        <time>2026-03-26T10:32:14.000Z</time>
      </trkpt>
      <trkpt lat="46.38782" lon="4.68439">
        <ele>385</ele>
        <time>2026-03-26T10:32:21.000Z</time>
      </trkpt>
      <trkpt lat="46.38781" lon="4.68426">
        <ele>385</ele>
        <time>2026-03-26T10:32:27.000Z</time>
      </trkpt>
      <trkpt lat="46.38779" lon="4.68412">
        <ele>383</ele>
        <time>2026-03-26T10:32:36.000Z</time>
      </trkpt>
      <trkpt lat="46.3878" lon="4.68397">
        <ele>383</ele>
        <time>2026-03-26T10:32:46.000Z</time>
      </trkpt>
      <trkpt lat="46.38778" lon="4.68384">
        <ele>381</ele>
        <time>2026-03-26T10:32:58.000Z</time>
      </trkpt>
      <trkpt lat="46.38775" lon="4.68371">
        <ele>379</ele>
        <time>2026-03-26T10:33:25.000Z</time>
      </trkpt>
      <trkpt lat="46.38778" lon="4.68356">
        <ele>379</ele>
        <time>2026-03-26T10:33:40.000Z</time>
      </trkpt>
      <trkpt lat="46.38779" lon="4.68339">
        <ele>377</ele>
        <time>2026-03-26T10:33:46.000Z</time>
      </trkpt>
      <trkpt lat="46.38779" lon="4.68325">
        <ele>376</ele>
        <time>2026-03-26T10:33:52.000Z</time>
      </trkpt>
      <trkpt lat="46.38776" lon="4.68312">
        <ele>375</ele>
        <time>2026-03-26T10:34:01.000Z</time>
      </trkpt>
      <trkpt lat="46.38768" lon="4.68309">
        <ele>374</ele>
        <time>2026-03-26T10:35:03.000Z</time>
      </trkpt>
      <trkpt lat="46.38759" lon="4.68304">
        <ele>373</ele>
        <time>2026-03-26T10:35:11.000Z</time>
      </trkpt>
      <trkpt lat="46.38757" lon="4.68293">
        <ele>371</ele>
        <time>2026-03-26T10:35:17.000Z</time>
      </trkpt>
      <trkpt lat="46.3876" lon="4.68279">
        <ele>370</ele>
        <time>2026-03-26T10:35:23.000Z</time>
      </trkpt>
      <trkpt lat="46.38765" lon="4.68264">
        <ele>371</ele>
        <time>2026-03-26T10:35:29.000Z</time>
      </trkpt>
      <trkpt lat="46.3877" lon="4.68251">
        <ele>371</ele>
        <time>2026-03-26T10:35:36.000Z</time>
      </trkpt>
      <trkpt lat="46.38772" lon="4.68237">
        <ele>371</ele>
        <time>2026-03-26T10:35:42.000Z</time>
      </trkpt>
      <trkpt lat="46.38767" lon="4.68226">
        <ele>372</ele>
        <time>2026-03-26T10:35:48.000Z</time>
      </trkpt>
      <trkpt lat="46.38759" lon="4.68215">
        <ele>373</ele>
        <time>2026-03-26T10:35:57.000Z</time>
      </trkpt>
      <trkpt lat="46.38754" lon="4.68204">
        <ele>374</ele>
        <time>2026-03-26T10:36:05.000Z</time>
      </trkpt>
      <trkpt lat="46.38747" lon="4.68195">
        <ele>374</ele>
        <time>2026-03-26T10:36:12.000Z</time>
      </trkpt>
      <trkpt lat="46.3874" lon="4.68189">
        <ele>374</ele>
        <time>2026-03-26T10:36:18.000Z</time>
      </trkpt>
      <trkpt lat="46.38731" lon="4.68181">
        <ele>374</ele>
        <time>2026-03-26T10:36:27.000Z</time>
      </trkpt>
      <trkpt lat="46.38725" lon="4.6817">
        <ele>375</ele>
        <time>2026-03-26T10:36:37.000Z</time>
      </trkpt>
      <trkpt lat="46.38722" lon="4.68158">
        <ele>375</ele>
        <time>2026-03-26T10:36:45.000Z</time>
      </trkpt>
      <trkpt lat="46.38717" lon="4.68147">
        <ele>377</ele>
        <time>2026-03-26T10:36:53.000Z</time>
      </trkpt>
      <trkpt lat="46.38711" lon="4.68136">
        <ele>377</ele>
        <time>2026-03-26T10:37:02.000Z</time>
      </trkpt>
      <trkpt lat="46.38701" lon="4.6813">
        <ele>378</ele>
        <time>2026-03-26T10:37:10.000Z</time>
      </trkpt>
      <trkpt lat="46.38691" lon="4.68127">
        <ele>378</ele>
        <time>2026-03-26T10:37:22.000Z</time>
      </trkpt>
      <trkpt lat="46.38682" lon="4.68123">
        <ele>378</ele>
        <time>2026-03-26T10:37:28.000Z</time>
      </trkpt>
      <trkpt lat="46.38674" lon="4.68118">
        <ele>379</ele>
        <time>2026-03-26T10:37:35.000Z</time>
      </trkpt>
      <trkpt lat="46.38665" lon="4.68116">
        <ele>380</ele>
        <time>2026-03-26T10:37:42.000Z</time>
      </trkpt>
      <trkpt lat="46.38656" lon="4.68116">
        <ele>379</ele>
        <time>2026-03-26T10:37:49.000Z</time>
      </trkpt>
      <trkpt lat="46.38647" lon="4.68113">
        <ele>378</ele>
        <time>2026-03-26T10:38:39.000Z</time>
      </trkpt>
      <trkpt lat="46.38637" lon="4.68106">
        <ele>378</ele>
        <time>2026-03-26T10:38:47.000Z</time>
      </trkpt>
      <trkpt lat="46.38626" lon="4.68101">
        <ele>377</ele>
        <time>2026-03-26T10:38:56.000Z</time>
      </trkpt>
      <trkpt lat="46.38616" lon="4.681">
        <ele>376</ele>
        <time>2026-03-26T10:39:04.000Z</time>
      </trkpt>
      <trkpt lat="46.38607" lon="4.68101">
        <ele>374</ele>
        <time>2026-03-26T10:39:10.000Z</time>
      </trkpt>
      <trkpt lat="46.38599" lon="4.68099">
        <ele>374</ele>
        <time>2026-03-26T10:39:19.000Z</time>
      </trkpt>
      <trkpt lat="46.38589" lon="4.68094">
        <ele>373</ele>
        <time>2026-03-26T10:39:27.000Z</time>
      </trkpt>
      <trkpt lat="46.38578" lon="4.68088">
        <ele>373</ele>
        <time>2026-03-26T10:39:35.000Z</time>
      </trkpt>
      <trkpt lat="46.38568" lon="4.68083">
        <ele>373</ele>
        <time>2026-03-26T10:39:44.000Z</time>
      </trkpt>
      <trkpt lat="46.38559" lon="4.68078">
        <ele>374</ele>
        <time>2026-03-26T10:39:51.000Z</time>
      </trkpt>
      <trkpt lat="46.38553" lon="4.68069">
        <ele>375</ele>
        <time>2026-03-26T10:40:00.000Z</time>
      </trkpt>
      <trkpt lat="46.38548" lon="4.68057">
        <ele>377</ele>
        <time>2026-03-26T10:40:07.000Z</time>
      </trkpt>
      <trkpt lat="46.38544" lon="4.68044">
        <ele>378</ele>
        <time>2026-03-26T10:40:20.000Z</time>
      </trkpt>
      <trkpt lat="46.38534" lon="4.6804">
        <ele>377</ele>
        <time>2026-03-26T10:40:58.000Z</time>
      </trkpt>
      <trkpt lat="46.38526" lon="4.68032">
        <ele>377</ele>
        <time>2026-03-26T10:41:04.000Z</time>
      </trkpt>
      <trkpt lat="46.38519" lon="4.68025">
        <ele>377</ele>
        <time>2026-03-26T10:41:10.000Z</time>
      </trkpt>
      <trkpt lat="46.38512" lon="4.68017">
        <ele>377</ele>
        <time>2026-03-26T10:41:19.000Z</time>
      </trkpt>
      <trkpt lat="46.38511" lon="4.68006">
        <ele>376</ele>
        <time>2026-03-26T10:41:34.000Z</time>
      </trkpt>
      <trkpt lat="46.38503" lon="4.68002">
        <ele>376</ele>
        <time>2026-03-26T10:41:38.000Z</time>
      </trkpt>
      <trkpt lat="46.38493" lon="4.68001">
        <ele>375</ele>
        <time>2026-03-26T10:41:42.000Z</time>
      </trkpt>
      <trkpt lat="46.38483" lon="4.68004">
        <ele>373</ele>
        <time>2026-03-26T10:41:46.000Z</time>
      </trkpt>
      <trkpt lat="46.38474" lon="4.68006">
        <ele>371</ele>
        <time>2026-03-26T10:41:52.000Z</time>
      </trkpt>
      <trkpt lat="46.38466" lon="4.68009">
        <ele>370</ele>
        <time>2026-03-26T10:41:59.000Z</time>
      </trkpt>
      <trkpt lat="46.38457" lon="4.68019">
        <ele>369</ele>
        <time>2026-03-26T10:42:07.000Z</time>
      </trkpt>
      <trkpt lat="46.3845" lon="4.68025">
        <ele>365</ele>
        <time>2026-03-26T10:42:14.000Z</time>
      </trkpt>
      <trkpt lat="46.38442" lon="4.68018">
        <ele>366</ele>
        <time>2026-03-26T10:42:50.000Z</time>
      </trkpt>
      <trkpt lat="46.38437" lon="4.6801">
        <ele>365</ele>
        <time>2026-03-26T10:42:59.000Z</time>
      </trkpt>
      <trkpt lat="46.38439" lon="4.67998">
        <ele>366</ele>
        <time>2026-03-26T10:43:33.000Z</time>
      </trkpt>
      <trkpt lat="46.38435" lon="4.67986">
        <ele>366</ele>
        <time>2026-03-26T10:43:44.000Z</time>
      </trkpt>
      <trkpt lat="46.38428" lon="4.67973">
        <ele>366</ele>
        <time>2026-03-26T10:46:17.000Z</time>
      </trkpt>
      <trkpt lat="46.38421" lon="4.67961">
        <ele>367</ele>
        <time>2026-03-26T10:46:23.000Z</time>
      </trkpt>
      <trkpt lat="46.3841" lon="4.67956">
        <ele>369</ele>
        <time>2026-03-26T10:46:30.000Z</time>
      </trkpt>
      <trkpt lat="46.38401" lon="4.67952">
        <ele>368</ele>
        <time>2026-03-26T10:46:36.000Z</time>
      </trkpt>
      <trkpt lat="46.38393" lon="4.67943">
        <ele>369</ele>
        <time>2026-03-26T10:46:42.000Z</time>
      </trkpt>
      <trkpt lat="46.38388" lon="4.67933">
        <ele>369</ele>
        <time>2026-03-26T10:46:48.000Z</time>
      </trkpt>
      <trkpt lat="46.38383" lon="4.67923">
        <ele>370</ele>
        <time>2026-03-26T10:46:55.000Z</time>
      </trkpt>
      <trkpt lat="46.38377" lon="4.67918">
        <ele>370</ele>
        <time>2026-03-26T10:47:08.000Z</time>
      </trkpt>
      <trkpt lat="46.38385" lon="4.67914">
        <ele>371</ele>
        <time>2026-03-26T10:47:38.000Z</time>
      </trkpt>
      <trkpt lat="46.38392" lon="4.67905">
        <ele>372</ele>
        <time>2026-03-26T10:47:51.000Z</time>
      </trkpt>
      <trkpt lat="46.38392" lon="4.67893">
        <ele>374</ele>
        <time>2026-03-26T10:48:00.000Z</time>
      </trkpt>
      <trkpt lat="46.38389" lon="4.6788">
        <ele>376</ele>
        <time>2026-03-26T10:48:22.000Z</time>
      </trkpt>
      <trkpt lat="46.38387" lon="4.67866">
        <ele>377</ele>
        <time>2026-03-26T10:48:28.000Z</time>
      </trkpt>
      <trkpt lat="46.38385" lon="4.67852">
        <ele>378</ele>
        <time>2026-03-26T10:48:39.000Z</time>
      </trkpt>
      <trkpt lat="46.38389" lon="4.67839">
        <ele>380</ele>
        <time>2026-03-26T10:48:48.000Z</time>
      </trkpt>
      <trkpt lat="46.38389" lon="4.67825">
        <ele>381</ele>
        <time>2026-03-26T10:48:58.000Z</time>
      </trkpt>
      <trkpt lat="46.38392" lon="4.67812">
        <ele>383</ele>
        <time>2026-03-26T10:49:10.000Z</time>
      </trkpt>
      <trkpt lat="46.3839" lon="4.678">
        <ele>384</ele>
        <time>2026-03-26T10:49:25.000Z</time>
      </trkpt>
      <trkpt lat="46.38393" lon="4.67788">
        <ele>387</ele>
        <time>2026-03-26T10:49:38.000Z</time>
      </trkpt>
      <trkpt lat="46.38398" lon="4.67774">
        <ele>389</ele>
        <time>2026-03-26T10:49:48.000Z</time>
      </trkpt>
      <trkpt lat="46.38405" lon="4.67764">
        <ele>390</ele>
        <time>2026-03-26T10:49:55.000Z</time>
      </trkpt>
      <trkpt lat="46.38411" lon="4.67755">
        <ele>391</ele>
        <time>2026-03-26T10:50:02.000Z</time>
      </trkpt>
      <trkpt lat="46.38416" lon="4.6774">
        <ele>393</ele>
        <time>2026-03-26T10:50:10.000Z</time>
      </trkpt>
      <trkpt lat="46.3842" lon="4.67726">
        <ele>394</ele>
        <time>2026-03-26T10:50:17.000Z</time>
      </trkpt>
      <trkpt lat="46.38425" lon="4.67713">
        <ele>396</ele>
        <time>2026-03-26T10:50:25.000Z</time>
      </trkpt>
      <trkpt lat="46.38432" lon="4.67712">
        <ele>396</ele>
        <time>2026-03-26T10:50:32.000Z</time>
      </trkpt>
      <trkpt lat="46.38436" lon="4.67723">
        <ele>394</ele>
        <time>2026-03-26T10:50:45.000Z</time>
      </trkpt>
      <trkpt lat="46.38439" lon="4.67738">
        <ele>393</ele>
        <time>2026-03-26T10:51:26.000Z</time>
      </trkpt>
      <trkpt lat="46.38448" lon="4.67736">
        <ele>394</ele>
        <time>2026-03-26T10:51:34.000Z</time>
      </trkpt>
      <trkpt lat="46.38456" lon="4.67734">
        <ele>395</ele>
        <time>2026-03-26T10:51:40.000Z</time>
      </trkpt>
      <trkpt lat="46.38452" lon="4.67716">
        <ele>396</ele>
        <time>2026-03-26T10:51:42.000Z</time>
      </trkpt>
      <trkpt lat="46.38458" lon="4.67701">
        <ele>397</ele>
        <time>2026-03-26T10:51:49.000Z</time>
      </trkpt>
      <trkpt lat="46.38466" lon="4.67689">
        <ele>398</ele>
        <time>2026-03-26T10:51:55.000Z</time>
      </trkpt>
      <trkpt lat="46.38472" lon="4.67676">
        <ele>399</ele>
        <time>2026-03-26T10:52:01.000Z</time>
      </trkpt>
      <trkpt lat="46.38478" lon="4.67667">
        <ele>400</ele>
        <time>2026-03-26T10:52:07.000Z</time>
      </trkpt>
      <trkpt lat="46.38487" lon="4.67666">
        <ele>400</ele>
        <time>2026-03-26T10:52:14.000Z</time>
      </trkpt>
      <trkpt lat="46.38486" lon="4.67651">
        <ele>401</ele>
        <time>2026-03-26T10:52:25.000Z</time>
      </trkpt>
      <trkpt lat="46.38492" lon="4.67641">
        <ele>401</ele>
        <time>2026-03-26T10:52:44.000Z</time>
      </trkpt>
      <trkpt lat="46.38497" lon="4.6763">
        <ele>402</ele>
        <time>2026-03-26T10:52:51.000Z</time>
      </trkpt>
      <trkpt lat="46.385" lon="4.67616">
        <ele>403</ele>
        <time>2026-03-26T10:52:59.000Z</time>
      </trkpt>
      <trkpt lat="46.38504" lon="4.67603">
        <ele>404</ele>
        <time>2026-03-26T10:53:07.000Z</time>
      </trkpt>
      <trkpt lat="46.38509" lon="4.6759">
        <ele>405</ele>
        <time>2026-03-26T10:53:15.000Z</time>
      </trkpt>
      <trkpt lat="46.38515" lon="4.67579">
        <ele>405</ele>
        <time>2026-03-26T10:53:23.000Z</time>
      </trkpt>
      <trkpt lat="46.3852" lon="4.67565">
        <ele>405</ele>
        <time>2026-03-26T10:53:32.000Z</time>
      </trkpt>
      <trkpt lat="46.38524" lon="4.67552">
        <ele>406</ele>
        <time>2026-03-26T10:53:40.000Z</time>
      </trkpt>
      <trkpt lat="46.38528" lon="4.67539">
        <ele>406</ele>
        <time>2026-03-26T10:53:49.000Z</time>
      </trkpt>
      <trkpt lat="46.38533" lon="4.67524">
        <ele>405</ele>
        <time>2026-03-26T10:54:02.000Z</time>
      </trkpt>
      <trkpt lat="46.3854" lon="4.67512">
        <ele>405</ele>
        <time>2026-03-26T10:54:18.000Z</time>
      </trkpt>
      <trkpt lat="46.38545" lon="4.675">
        <ele>405</ele>
        <time>2026-03-26T10:54:26.000Z</time>
      </trkpt>
      <trkpt lat="46.38548" lon="4.67487">
        <ele>404</ele>
        <time>2026-03-26T10:54:33.000Z</time>
      </trkpt>
      <trkpt lat="46.38552" lon="4.67472">
        <ele>403</ele>
        <time>2026-03-26T10:54:42.000Z</time>
      </trkpt>
      <trkpt lat="46.38555" lon="4.67459">
        <ele>403</ele>
        <time>2026-03-26T10:54:50.000Z</time>
      </trkpt>
      <trkpt lat="46.38557" lon="4.67446">
        <ele>402</ele>
        <time>2026-03-26T10:55:00.000Z</time>
      </trkpt>
      <trkpt lat="46.38553" lon="4.67432">
        <ele>402</ele>
        <time>2026-03-26T10:55:11.000Z</time>
      </trkpt>
      <trkpt lat="46.38549" lon="4.67419">
        <ele>402</ele>
        <time>2026-03-26T10:55:19.000Z</time>
      </trkpt>
      <trkpt lat="46.38546" lon="4.67406">
        <ele>402</ele>
        <time>2026-03-26T10:55:27.000Z</time>
      </trkpt>
      <trkpt lat="46.38541" lon="4.67393">
        <ele>401</ele>
        <time>2026-03-26T10:55:35.000Z</time>
      </trkpt>
      <trkpt lat="46.38535" lon="4.67383">
        <ele>401</ele>
        <time>2026-03-26T10:55:41.000Z</time>
      </trkpt>
      <trkpt lat="46.38529" lon="4.67374">
        <ele>401</ele>
        <time>2026-03-26T10:55:47.000Z</time>
      </trkpt>
      <trkpt lat="46.38522" lon="4.67363">
        <ele>401</ele>
        <time>2026-03-26T10:55:56.000Z</time>
      </trkpt>
      <trkpt lat="46.38515" lon="4.6735">
        <ele>401</ele>
        <time>2026-03-26T10:56:04.000Z</time>
      </trkpt>
      <trkpt lat="46.38507" lon="4.6734">
        <ele>401</ele>
        <time>2026-03-26T10:56:12.000Z</time>
      </trkpt>
      <trkpt lat="46.38501" lon="4.6733">
        <ele>401</ele>
        <time>2026-03-26T10:56:18.000Z</time>
      </trkpt>
      <trkpt lat="46.38495" lon="4.67318">
        <ele>401</ele>
        <time>2026-03-26T10:56:26.000Z</time>
      </trkpt>
      <trkpt lat="46.38491" lon="4.67303">
        <ele>401</ele>
        <time>2026-03-26T10:56:34.000Z</time>
      </trkpt>
      <trkpt lat="46.38487" lon="4.67289">
        <ele>400</ele>
        <time>2026-03-26T10:56:42.000Z</time>
      </trkpt>
      <trkpt lat="46.38481" lon="4.67275">
        <ele>400</ele>
        <time>2026-03-26T10:56:52.000Z</time>
      </trkpt>
      <trkpt lat="46.38478" lon="4.67262">
        <ele>399</ele>
        <time>2026-03-26T10:57:00.000Z</time>
      </trkpt>
      <trkpt lat="46.38474" lon="4.67247">
        <ele>399</ele>
        <time>2026-03-26T10:57:08.000Z</time>
      </trkpt>
      <trkpt lat="46.38473" lon="4.67233">
        <ele>398</ele>
        <time>2026-03-26T10:57:18.000Z</time>
      </trkpt>
      <trkpt lat="46.38473" lon="4.67218">
        <ele>398</ele>
        <time>2026-03-26T10:57:28.000Z</time>
      </trkpt>
      <trkpt lat="46.38473" lon="4.67202">
        <ele>398</ele>
        <time>2026-03-26T10:57:36.000Z</time>
      </trkpt>
      <trkpt lat="46.38474" lon="4.67187">
        <ele>398</ele>
        <time>2026-03-26T10:57:44.000Z</time>
      </trkpt>
      <trkpt lat="46.38474" lon="4.67172">
        <ele>398</ele>
        <time>2026-03-26T10:57:52.000Z</time>
      </trkpt>
      <trkpt lat="46.38475" lon="4.67159">
        <ele>398</ele>
        <time>2026-03-26T10:57:58.000Z</time>
      </trkpt>
      <trkpt lat="46.38474" lon="4.67145">
        <ele>398</ele>
        <time>2026-03-26T10:58:04.000Z</time>
      </trkpt>
      <trkpt lat="46.38471" lon="4.67132">
        <ele>398</ele>
        <time>2026-03-26T10:58:10.000Z</time>
      </trkpt>
      <trkpt lat="46.38467" lon="4.67118">
        <ele>398</ele>
        <time>2026-03-26T10:58:18.000Z</time>
      </trkpt>
      <trkpt lat="46.3846" lon="4.67109">
        <ele>398</ele>
        <time>2026-03-26T10:58:25.000Z</time>
      </trkpt>
      <trkpt lat="46.38453" lon="4.67099">
        <ele>398</ele>
        <time>2026-03-26T10:58:35.000Z</time>
      </trkpt>
      <trkpt lat="46.38447" lon="4.67089">
        <ele>398</ele>
        <time>2026-03-26T10:58:43.000Z</time>
      </trkpt>
      <trkpt lat="46.3844" lon="4.67079">
        <ele>398</ele>
        <time>2026-03-26T10:58:51.000Z</time>
      </trkpt>
      <trkpt lat="46.38435" lon="4.67066">
        <ele>398</ele>
        <time>2026-03-26T10:59:02.000Z</time>
      </trkpt>
      <trkpt lat="46.3843" lon="4.67054">
        <ele>398</ele>
        <time>2026-03-26T10:59:10.000Z</time>
      </trkpt>
      <trkpt lat="46.38426" lon="4.67043">
        <ele>398</ele>
        <time>2026-03-26T10:59:16.000Z</time>
      </trkpt>
      <trkpt lat="46.38421" lon="4.67031">
        <ele>398</ele>
        <time>2026-03-26T10:59:22.000Z</time>
      </trkpt>
      <trkpt lat="46.38416" lon="4.67019">
        <ele>398</ele>
        <time>2026-03-26T10:59:28.000Z</time>
      </trkpt>
      <trkpt lat="46.38408" lon="4.67009">
        <ele>398</ele>
        <time>2026-03-26T10:59:37.000Z</time>
      </trkpt>
      <trkpt lat="46.38398" lon="4.67004">
        <ele>397</ele>
        <time>2026-03-26T10:59:45.000Z</time>
      </trkpt>
      <trkpt lat="46.3839" lon="4.66999">
        <ele>397</ele>
        <time>2026-03-26T10:59:51.000Z</time>
      </trkpt>
      <trkpt lat="46.38381" lon="4.66995">
        <ele>396</ele>
        <time>2026-03-26T10:59:59.000Z</time>
      </trkpt>
      <trkpt lat="46.38372" lon="4.66987">
        <ele>397</ele>
        <time>2026-03-26T11:00:07.000Z</time>
      </trkpt>
      <trkpt lat="46.38364" lon="4.66979">
        <ele>396</ele>
        <time>2026-03-26T11:00:16.000Z</time>
      </trkpt>
      <trkpt lat="46.38357" lon="4.66973">
        <ele>395</ele>
        <time>2026-03-26T11:00:24.000Z</time>
      </trkpt>
      <trkpt lat="46.38348" lon="4.66967">
        <ele>395</ele>
        <time>2026-03-26T11:00:32.000Z</time>
      </trkpt>
      <trkpt lat="46.3834" lon="4.6696">
        <ele>395</ele>
        <time>2026-03-26T11:00:40.000Z</time>
      </trkpt>
      <trkpt lat="46.38335" lon="4.66949">
        <ele>394</ele>
        <time>2026-03-26T11:01:21.000Z</time>
      </trkpt>
      <trkpt lat="46.38329" lon="4.66939">
        <ele>395</ele>
        <time>2026-03-26T11:01:27.000Z</time>
      </trkpt>
      <trkpt lat="46.38326" lon="4.66928">
        <ele>395</ele>
        <time>2026-03-26T11:01:35.000Z</time>
      </trkpt>
      <trkpt lat="46.38318" lon="4.66927">
        <ele>395</ele>
        <time>2026-03-26T11:01:39.000Z</time>
      </trkpt>
      <trkpt lat="46.38312" lon="4.66919">
        <ele>395</ele>
        <time>2026-03-26T11:01:47.000Z</time>
      </trkpt>
      <trkpt lat="46.38316" lon="4.66903">
        <ele>395</ele>
        <time>2026-03-26T11:01:56.000Z</time>
      </trkpt>
      <trkpt lat="46.3832" lon="4.6689">
        <ele>394</ele>
        <time>2026-03-26T11:02:02.000Z</time>
      </trkpt>
      <trkpt lat="46.38324" lon="4.66875">
        <ele>394</ele>
        <time>2026-03-26T11:02:10.000Z</time>
      </trkpt>
      <trkpt lat="46.38323" lon="4.66858">
        <ele>394</ele>
        <time>2026-03-26T11:02:19.000Z</time>
      </trkpt>
      <trkpt lat="46.38323" lon="4.66844">
        <ele>393</ele>
        <time>2026-03-26T11:02:25.000Z</time>
      </trkpt>
      <trkpt lat="46.38325" lon="4.66831">
        <ele>393</ele>
        <time>2026-03-26T11:02:33.000Z</time>
      </trkpt>
      <trkpt lat="46.38329" lon="4.66818">
        <ele>393</ele>
        <time>2026-03-26T11:02:41.000Z</time>
      </trkpt>
      <trkpt lat="46.38334" lon="4.66806">
        <ele>392</ele>
        <time>2026-03-26T11:02:49.000Z</time>
      </trkpt>
      <trkpt lat="46.38341" lon="4.66796">
        <ele>392</ele>
        <time>2026-03-26T11:02:57.000Z</time>
      </trkpt>
      <trkpt lat="46.3835" lon="4.66788">
        <ele>391</ele>
        <time>2026-03-26T11:03:05.000Z</time>
      </trkpt>
      <trkpt lat="46.38359" lon="4.6678">
        <ele>390</ele>
        <time>2026-03-26T11:03:13.000Z</time>
      </trkpt>
      <trkpt lat="46.38366" lon="4.66772">
        <ele>390</ele>
        <time>2026-03-26T11:03:19.000Z</time>
      </trkpt>
      <trkpt lat="46.38369" lon="4.6676">
        <ele>390</ele>
        <time>2026-03-26T11:03:25.000Z</time>
      </trkpt>
      <trkpt lat="46.38374" lon="4.6675">
        <ele>390</ele>
        <time>2026-03-26T11:03:31.000Z</time>
      </trkpt>
      <trkpt lat="46.38384" lon="4.66747">
        <ele>389</ele>
        <time>2026-03-26T11:03:39.000Z</time>
      </trkpt>
      <trkpt lat="46.38394" lon="4.66747">
        <ele>389</ele>
        <time>2026-03-26T11:03:48.000Z</time>
      </trkpt>
      <trkpt lat="46.384" lon="4.66738">
        <ele>388</ele>
        <time>2026-03-26T11:03:56.000Z</time>
      </trkpt>
      <trkpt lat="46.38399" lon="4.66723">
        <ele>386</ele>
        <time>2026-03-26T11:04:02.000Z</time>
      </trkpt>
      <trkpt lat="46.38394" lon="4.6671">
        <ele>380</ele>
        <time>2026-03-26T11:04:06.000Z</time>
      </trkpt>
      <trkpt lat="46.38388" lon="4.66697">
        <ele>379</ele>
        <time>2026-03-26T11:04:12.000Z</time>
      </trkpt>
      <trkpt lat="46.38381" lon="4.66686">
        <ele>379</ele>
        <time>2026-03-26T11:04:18.000Z</time>
      </trkpt>
      <trkpt lat="46.38374" lon="4.66677">
        <ele>378</ele>
        <time>2026-03-26T11:04:24.000Z</time>
      </trkpt>
      <trkpt lat="46.38369" lon="4.66665">
        <ele>373</ele>
        <time>2026-03-26T11:04:33.000Z</time>
      </trkpt>
      <trkpt lat="46.38364" lon="4.66653">
        <ele>373</ele>
        <time>2026-03-26T11:04:41.000Z</time>
      </trkpt>
      <trkpt lat="46.38358" lon="4.66642">
        <ele>380</ele>
        <time>2026-03-26T11:04:51.000Z</time>
      </trkpt>
      <trkpt lat="46.38352" lon="4.6663">
        <ele>386</ele>
        <time>2026-03-26T11:05:02.000Z</time>
      </trkpt>
      <trkpt lat="46.38347" lon="4.66618">
        <ele>386</ele>
        <time>2026-03-26T11:05:10.000Z</time>
      </trkpt>
      <trkpt lat="46.3834" lon="4.6661">
        <ele>386</ele>
        <time>2026-03-26T11:05:18.000Z</time>
      </trkpt>
      <trkpt lat="46.38332" lon="4.66612">
        <ele>387</ele>
        <time>2026-03-26T11:05:25.000Z</time>
      </trkpt>
      <trkpt lat="46.38324" lon="4.66618">
        <ele>389</ele>
        <time>2026-03-26T11:05:32.000Z</time>
      </trkpt>
      <trkpt lat="46.38317" lon="4.66627">
        <ele>390</ele>
        <time>2026-03-26T11:05:44.000Z</time>
      </trkpt>
      <trkpt lat="46.38309" lon="4.66635">
        <ele>392</ele>
        <time>2026-03-26T11:05:56.000Z</time>
      </trkpt>
      <trkpt lat="46.383" lon="4.66637">
        <ele>394</ele>
        <time>2026-03-26T11:06:08.000Z</time>
      </trkpt>
      <trkpt lat="46.38291" lon="4.66638">
        <ele>395</ele>
        <time>2026-03-26T11:06:16.000Z</time>
      </trkpt>
      <trkpt lat="46.38282" lon="4.66641">
        <ele>397</ele>
        <time>2026-03-26T11:06:28.000Z</time>
      </trkpt>
      <trkpt lat="46.38273" lon="4.6664">
        <ele>398</ele>
        <time>2026-03-26T11:06:41.000Z</time>
      </trkpt>
      <trkpt lat="46.38264" lon="4.66638">
        <ele>399</ele>
        <time>2026-03-26T11:06:51.000Z</time>
      </trkpt>
      <trkpt lat="46.38254" lon="4.66637">
        <ele>400</ele>
        <time>2026-03-26T11:07:02.000Z</time>
      </trkpt>
      <trkpt lat="46.38245" lon="4.66638">
        <ele>401</ele>
        <time>2026-03-26T11:07:09.000Z</time>
      </trkpt>
      <trkpt lat="46.38236" lon="4.66641">
        <ele>401</ele>
        <time>2026-03-26T11:07:18.000Z</time>
      </trkpt>
      <trkpt lat="46.38228" lon="4.66645">
        <ele>401</ele>
        <time>2026-03-26T11:07:28.000Z</time>
      </trkpt>
      <trkpt lat="46.38218" lon="4.66647">
        <ele>402</ele>
        <time>2026-03-26T11:07:38.000Z</time>
      </trkpt>
      <trkpt lat="46.38209" lon="4.66648">
        <ele>403</ele>
        <time>2026-03-26T11:07:48.000Z</time>
      </trkpt>
      <trkpt lat="46.38199" lon="4.6665">
        <ele>404</ele>
        <time>2026-03-26T11:07:56.000Z</time>
      </trkpt>
      <trkpt lat="46.3819" lon="4.66654">
        <ele>405</ele>
        <time>2026-03-26T11:08:03.000Z</time>
      </trkpt>
      <trkpt lat="46.38182" lon="4.66659">
        <ele>406</ele>
        <time>2026-03-26T11:08:09.000Z</time>
      </trkpt>
      <trkpt lat="46.38174" lon="4.66667">
        <ele>407</ele>
        <time>2026-03-26T11:08:17.000Z</time>
      </trkpt>
      <trkpt lat="46.38165" lon="4.66672">
        <ele>407</ele>
        <time>2026-03-26T11:08:25.000Z</time>
      </trkpt>
      <trkpt lat="46.38156" lon="4.66676">
        <ele>408</ele>
        <time>2026-03-26T11:08:31.000Z</time>
      </trkpt>
      <trkpt lat="46.38146" lon="4.6668">
        <ele>409</ele>
        <time>2026-03-26T11:08:41.000Z</time>
      </trkpt>
      <trkpt lat="46.38137" lon="4.66684">
        <ele>410</ele>
        <time>2026-03-26T11:08:49.000Z</time>
      </trkpt>
      <trkpt lat="46.38127" lon="4.66688">
        <ele>410</ele>
        <time>2026-03-26T11:08:58.000Z</time>
      </trkpt>
      <trkpt lat="46.38119" lon="4.66692">
        <ele>411</ele>
        <time>2026-03-26T11:09:04.000Z</time>
      </trkpt>
      <trkpt lat="46.3811" lon="4.66698">
        <ele>412</ele>
        <time>2026-03-26T11:09:11.000Z</time>
      </trkpt>
      <trkpt lat="46.38102" lon="4.66705">
        <ele>413</ele>
        <time>2026-03-26T11:09:17.000Z</time>
      </trkpt>
      <trkpt lat="46.38093" lon="4.66711">
        <ele>413</ele>
        <time>2026-03-26T11:09:24.000Z</time>
      </trkpt>
      <trkpt lat="46.38085" lon="4.66717">
        <ele>413</ele>
        <time>2026-03-26T11:09:32.000Z</time>
      </trkpt>
      <trkpt lat="46.38077" lon="4.66725">
        <ele>413</ele>
        <time>2026-03-26T11:09:39.000Z</time>
      </trkpt>
      <trkpt lat="46.38072" lon="4.66736">
        <ele>414</ele>
        <time>2026-03-26T11:09:46.000Z</time>
      </trkpt>
      <trkpt lat="46.38064" lon="4.66747">
        <ele>414</ele>
        <time>2026-03-26T11:09:53.000Z</time>
      </trkpt>
      <trkpt lat="46.38056" lon="4.66756">
        <ele>415</ele>
        <time>2026-03-26T11:10:02.000Z</time>
      </trkpt>
      <trkpt lat="46.38046" lon="4.66758">
        <ele>415</ele>
        <time>2026-03-26T11:10:36.000Z</time>
      </trkpt>
      <trkpt lat="46.38038" lon="4.66766">
        <ele>415</ele>
        <time>2026-03-26T11:10:42.000Z</time>
      </trkpt>
      <trkpt lat="46.38031" lon="4.66774">
        <ele>416</ele>
        <time>2026-03-26T11:10:48.000Z</time>
      </trkpt>
      <trkpt lat="46.38022" lon="4.66775">
        <ele>416</ele>
        <time>2026-03-26T11:10:55.000Z</time>
      </trkpt>
      <trkpt lat="46.38013" lon="4.66766">
        <ele>418</ele>
        <time>2026-03-26T11:11:05.000Z</time>
      </trkpt>
      <trkpt lat="46.38006" lon="4.66753">
        <ele>418</ele>
        <time>2026-03-26T11:11:15.000Z</time>
      </trkpt>
      <trkpt lat="46.38001" lon="4.66741">
        <ele>419</ele>
        <time>2026-03-26T11:11:23.000Z</time>
      </trkpt>
      <trkpt lat="46.37993" lon="4.66734">
        <ele>421</ele>
        <time>2026-03-26T11:11:33.000Z</time>
      </trkpt>
      <trkpt lat="46.37985" lon="4.66726">
        <ele>423</ele>
        <time>2026-03-26T11:11:42.000Z</time>
      </trkpt>
      <trkpt lat="46.37979" lon="4.66717">
        <ele>423</ele>
        <time>2026-03-26T11:11:51.000Z</time>
      </trkpt>
      <trkpt lat="46.37974" lon="4.66706">
        <ele>424</ele>
        <time>2026-03-26T11:12:00.000Z</time>
      </trkpt>
      <trkpt lat="46.37969" lon="4.66692">
        <ele>425</ele>
        <time>2026-03-26T11:12:11.000Z</time>
      </trkpt>
      <trkpt lat="46.37966" lon="4.6668">
        <ele>427</ele>
        <time>2026-03-26T11:12:20.000Z</time>
      </trkpt>
      <trkpt lat="46.37965" lon="4.66666">
        <ele>428</ele>
        <time>2026-03-26T11:12:30.000Z</time>
      </trkpt>
      <trkpt lat="46.37965" lon="4.66652">
        <ele>428</ele>
        <time>2026-03-26T11:12:38.000Z</time>
      </trkpt>
      <trkpt lat="46.37968" lon="4.66639">
        <ele>429</ele>
        <time>2026-03-26T11:12:49.000Z</time>
      </trkpt>
      <trkpt lat="46.37971" lon="4.66626">
        <ele>430</ele>
        <time>2026-03-26T11:13:00.000Z</time>
      </trkpt>
      <trkpt lat="46.3797" lon="4.66612">
        <ele>433</ele>
        <time>2026-03-26T11:13:10.000Z</time>
      </trkpt>
      <trkpt lat="46.37967" lon="4.666">
        <ele>434</ele>
        <time>2026-03-26T11:13:18.000Z</time>
      </trkpt>
      <trkpt lat="46.37966" lon="4.66587">
        <ele>436</ele>
        <time>2026-03-26T11:13:28.000Z</time>
      </trkpt>
      <trkpt lat="46.37967" lon="4.66574">
        <ele>436</ele>
        <time>2026-03-26T11:13:38.000Z</time>
      </trkpt>
      <trkpt lat="46.37969" lon="4.66559">
        <ele>439</ele>
        <time>2026-03-26T11:13:49.000Z</time>
      </trkpt>
      <trkpt lat="46.37969" lon="4.66544">
        <ele>439</ele>
        <time>2026-03-26T11:13:58.000Z</time>
      </trkpt>
      <trkpt lat="46.37966" lon="4.66532">
        <ele>440</ele>
        <time>2026-03-26T11:14:06.000Z</time>
      </trkpt>
      <trkpt lat="46.3796" lon="4.66521">
        <ele>442</ele>
        <time>2026-03-26T11:14:16.000Z</time>
      </trkpt>
      <trkpt lat="46.37952" lon="4.66513">
        <ele>444</ele>
        <time>2026-03-26T11:14:26.000Z</time>
      </trkpt>
      <trkpt lat="46.37943" lon="4.66506">
        <ele>445</ele>
        <time>2026-03-26T11:14:43.000Z</time>
      </trkpt>
      <trkpt lat="46.37937" lon="4.66495">
        <ele>446</ele>
        <time>2026-03-26T11:14:56.000Z</time>
      </trkpt>
      <trkpt lat="46.37932" lon="4.66485">
        <ele>447</ele>
        <time>2026-03-26T11:15:09.000Z</time>
      </trkpt>
      <trkpt lat="46.37924" lon="4.66484">
        <ele>449</ele>
        <time>2026-03-26T11:15:20.000Z</time>
      </trkpt>
      <trkpt lat="46.37915" lon="4.66481">
        <ele>451</ele>
        <time>2026-03-26T11:15:36.000Z</time>
      </trkpt>
      <trkpt lat="46.37909" lon="4.6647">
        <ele>452</ele>
        <time>2026-03-26T11:15:43.000Z</time>
      </trkpt>
      <trkpt lat="46.37902" lon="4.66462">
        <ele>454</ele>
        <time>2026-03-26T11:15:49.000Z</time>
      </trkpt>
      <trkpt lat="46.37892" lon="4.66456">
        <ele>456</ele>
        <time>2026-03-26T11:15:57.000Z</time>
      </trkpt>
      <trkpt lat="46.37883" lon="4.66451">
        <ele>457</ele>
        <time>2026-03-26T11:16:05.000Z</time>
      </trkpt>
      <trkpt lat="46.37874" lon="4.66444">
        <ele>460</ele>
        <time>2026-03-26T11:16:15.000Z</time>
      </trkpt>
      <trkpt lat="46.37869" lon="4.66433">
        <ele>461</ele>
        <time>2026-03-26T11:16:26.000Z</time>
      </trkpt>
      <trkpt lat="46.37863" lon="4.66422">
        <ele>462</ele>
        <time>2026-03-26T11:16:37.000Z</time>
      </trkpt>
      <trkpt lat="46.37854" lon="4.66414">
        <ele>464</ele>
        <time>2026-03-26T11:16:48.000Z</time>
      </trkpt>
      <trkpt lat="46.37845" lon="4.66408">
        <ele>466</ele>
        <time>2026-03-26T11:16:59.000Z</time>
      </trkpt>
      <trkpt lat="46.37836" lon="4.66404">
        <ele>467</ele>
        <time>2026-03-26T11:17:06.000Z</time>
      </trkpt>
      <trkpt lat="46.37828" lon="4.66398">
        <ele>468</ele>
        <time>2026-03-26T11:17:17.000Z</time>
      </trkpt>
      <trkpt lat="46.37819" lon="4.66391">
        <ele>471</ele>
        <time>2026-03-26T11:17:27.000Z</time>
      </trkpt>
      <trkpt lat="46.3781" lon="4.66387">
        <ele>472</ele>
        <time>2026-03-26T11:17:41.000Z</time>
      </trkpt>
      <trkpt lat="46.37801" lon="4.66389">
        <ele>473</ele>
        <time>2026-03-26T11:17:56.000Z</time>
      </trkpt>
      <trkpt lat="46.37793" lon="4.66395">
        <ele>475</ele>
        <time>2026-03-26T11:18:08.000Z</time>
      </trkpt>
      <trkpt lat="46.37785" lon="4.66395">
        <ele>477</ele>
        <time>2026-03-26T11:18:59.000Z</time>
      </trkpt>
      <trkpt lat="46.37776" lon="4.66397">
        <ele>480</ele>
        <time>2026-03-26T11:19:07.000Z</time>
      </trkpt>
      <trkpt lat="46.37766" lon="4.66397">
        <ele>481</ele>
        <time>2026-03-26T11:19:15.000Z</time>
      </trkpt>
      <trkpt lat="46.37757" lon="4.66391">
        <ele>484</ele>
        <time>2026-03-26T11:19:25.000Z</time>
      </trkpt>
      <trkpt lat="46.37748" lon="4.66385">
        <ele>485</ele>
        <time>2026-03-26T11:19:37.000Z</time>
      </trkpt>
      <trkpt lat="46.37739" lon="4.66378">
        <ele>486</ele>
        <time>2026-03-26T11:19:49.000Z</time>
      </trkpt>
      <trkpt lat="46.37723" lon="4.66374">
        <ele>490</ele>
        <time>2026-03-26T11:21:00.000Z</time>
      </trkpt>
      <trkpt lat="46.37714" lon="4.66379">
        <ele>492</ele>
        <time>2026-03-26T11:21:05.000Z</time>
      </trkpt>
      <trkpt lat="46.37705" lon="4.66383">
        <ele>494</ele>
        <time>2026-03-26T11:21:14.000Z</time>
      </trkpt>
      <trkpt lat="46.37695" lon="4.66381">
        <ele>496</ele>
        <time>2026-03-26T11:21:22.000Z</time>
      </trkpt>
      <trkpt lat="46.37686" lon="4.6638">
        <ele>497</ele>
        <time>2026-03-26T11:21:31.000Z</time>
      </trkpt>
      <trkpt lat="46.37677" lon="4.66378">
        <ele>499</ele>
        <time>2026-03-26T11:21:39.000Z</time>
      </trkpt>
      <trkpt lat="46.37668" lon="4.66375">
        <ele>501</ele>
        <time>2026-03-26T11:21:50.000Z</time>
      </trkpt>
      <trkpt lat="46.37659" lon="4.66374">
        <ele>502</ele>
        <time>2026-03-26T11:21:59.000Z</time>
      </trkpt>
      <trkpt lat="46.37649" lon="4.66373">
        <ele>505</ele>
        <time>2026-03-26T11:22:07.000Z</time>
      </trkpt>
      <trkpt lat="46.3764" lon="4.6637">
        <ele>507</ele>
        <time>2026-03-26T11:22:15.000Z</time>
      </trkpt>
      <trkpt lat="46.37632" lon="4.66364">
        <ele>510</ele>
        <time>2026-03-26T11:22:28.000Z</time>
      </trkpt>
      <trkpt lat="46.37626" lon="4.66355">
        <ele>512</ele>
        <time>2026-03-26T11:22:38.000Z</time>
      </trkpt>
      <trkpt lat="46.37624" lon="4.66342">
        <ele>514</ele>
        <time>2026-03-26T11:22:50.000Z</time>
      </trkpt>
      <trkpt lat="46.37625" lon="4.66328">
        <ele>516</ele>
        <time>2026-03-26T11:22:59.000Z</time>
      </trkpt>
      <trkpt lat="46.37627" lon="4.66316">
        <ele>518</ele>
        <time>2026-03-26T11:23:16.000Z</time>
      </trkpt>
      <trkpt lat="46.37627" lon="4.66303">
        <ele>520</ele>
        <time>2026-03-26T11:23:27.000Z</time>
      </trkpt>
      <trkpt lat="46.37625" lon="4.6629">
        <ele>522</ele>
        <time>2026-03-26T11:23:39.000Z</time>
      </trkpt>
      <trkpt lat="46.37621" lon="4.66278">
        <ele>524</ele>
        <time>2026-03-26T11:23:51.000Z</time>
      </trkpt>
      <trkpt lat="46.37618" lon="4.66265">
        <ele>526</ele>
        <time>2026-03-26T11:24:05.000Z</time>
      </trkpt>
      <trkpt lat="46.37619" lon="4.66251">
        <ele>527</ele>
        <time>2026-03-26T11:24:16.000Z</time>
      </trkpt>
      <trkpt lat="46.37621" lon="4.66239">
        <ele>528</ele>
        <time>2026-03-26T11:24:26.000Z</time>
      </trkpt>
      <trkpt lat="46.37621" lon="4.66228">
        <ele>529</ele>
        <time>2026-03-26T11:24:44.000Z</time>
      </trkpt>
      <trkpt lat="46.37628" lon="4.66229">
        <ele>529</ele>
        <time>2026-03-26T11:26:16.000Z</time>
      </trkpt>
      <trkpt lat="46.37611" lon="4.66218">
        <ele>528</ele>
        <time>2026-03-26T11:26:23.000Z</time>
      </trkpt>
      <trkpt lat="46.376" lon="4.6621">
        <ele>528</ele>
        <time>2026-03-26T11:26:27.000Z</time>
      </trkpt>
      <trkpt lat="46.37589" lon="4.66204">
        <ele>527</ele>
        <time>2026-03-26T11:26:35.000Z</time>
      </trkpt>
      <trkpt lat="46.3758" lon="4.66199">
        <ele>525</ele>
        <time>2026-03-26T11:26:42.000Z</time>
      </trkpt>
      <trkpt lat="46.37572" lon="4.66194">
        <ele>525</ele>
        <time>2026-03-26T11:26:48.000Z</time>
      </trkpt>
      <trkpt lat="46.37564" lon="4.66194">
        <ele>523</ele>
        <time>2026-03-26T11:26:54.000Z</time>
      </trkpt>
      <trkpt lat="46.3756" lon="4.66211">
        <ele>526</ele>
        <time>2026-03-26T11:26:56.000Z</time>
      </trkpt>
      <trkpt lat="46.37557" lon="4.66244">
        <ele>529</ele>
        <time>2026-03-26T11:26:58.000Z</time>
      </trkpt>
      <trkpt lat="46.37555" lon="4.66261">
        <ele>530</ele>
        <time>2026-03-26T11:27:05.000Z</time>
      </trkpt>
      <trkpt lat="46.37554" lon="4.66274">
        <ele>530</ele>
        <time>2026-03-26T11:27:13.000Z</time>
      </trkpt>
      <trkpt lat="46.3755" lon="4.66286">
        <ele>530</ele>
        <time>2026-03-26T11:27:21.000Z</time>
      </trkpt>
      <trkpt lat="46.37543" lon="4.66294">
        <ele>531</ele>
        <time>2026-03-26T11:27:31.000Z</time>
      </trkpt>
      <trkpt lat="46.37534" lon="4.66296">
        <ele>531</ele>
        <time>2026-03-26T11:27:37.000Z</time>
      </trkpt>
      <trkpt lat="46.37525" lon="4.66289">
        <ele>532</ele>
        <time>2026-03-26T11:28:10.000Z</time>
      </trkpt>
      <trkpt lat="46.37516" lon="4.66291">
        <ele>532</ele>
        <time>2026-03-26T11:28:21.000Z</time>
      </trkpt>
      <trkpt lat="46.37507" lon="4.66294">
        <ele>532</ele>
        <time>2026-03-26T11:28:31.000Z</time>
      </trkpt>
      <trkpt lat="46.37498" lon="4.663">
        <ele>532</ele>
        <time>2026-03-26T11:28:40.000Z</time>
      </trkpt>
      <trkpt lat="46.3749" lon="4.66305">
        <ele>532</ele>
        <time>2026-03-26T11:28:50.000Z</time>
      </trkpt>
      <trkpt lat="46.37481" lon="4.66307">
        <ele>532</ele>
        <time>2026-03-26T11:28:58.000Z</time>
      </trkpt>
      <trkpt lat="46.37476" lon="4.66299">
        <ele>534</ele>
        <time>2026-03-26T11:29:37.000Z</time>
      </trkpt>
      <trkpt lat="46.37476" lon="4.66286">
        <ele>534</ele>
        <time>2026-03-26T11:29:50.000Z</time>
      </trkpt>
      <trkpt lat="46.37475" lon="4.66275">
        <ele>535</ele>
        <time>2026-03-26T11:30:06.000Z</time>
      </trkpt>
      <trkpt lat="46.37467" lon="4.66277">
        <ele>535</ele>
        <time>2026-03-26T11:53:42.000Z</time>
      </trkpt>
      <trkpt lat="46.37464" lon="4.66288">
        <ele>534</ele>
        <time>2026-03-26T12:05:01.000Z</time>
      </trkpt>
      <trkpt lat="46.37455" lon="4.6629">
        <ele>533</ele>
        <time>2026-03-26T12:05:06.000Z</time>
      </trkpt>
      <trkpt lat="46.37448" lon="4.66296">
        <ele>532</ele>
        <time>2026-03-26T12:05:13.000Z</time>
      </trkpt>
      <trkpt lat="46.37439" lon="4.66296">
        <ele>532</ele>
        <time>2026-03-26T12:05:28.000Z</time>
      </trkpt>
      <trkpt lat="46.37432" lon="4.66287">
        <ele>532</ele>
        <time>2026-03-26T12:05:38.000Z</time>
      </trkpt>
      <trkpt lat="46.3743" lon="4.66274">
        <ele>533</ele>
        <time>2026-03-26T12:05:47.000Z</time>
      </trkpt>
      <trkpt lat="46.37427" lon="4.66261">
        <ele>532</ele>
        <time>2026-03-26T12:05:56.000Z</time>
      </trkpt>
      <trkpt lat="46.37421" lon="4.66253">
        <ele>531</ele>
        <time>2026-03-26T12:06:05.000Z</time>
      </trkpt>
      <trkpt lat="46.37411" lon="4.66254">
        <ele>531</ele>
        <time>2026-03-26T12:06:16.000Z</time>
      </trkpt>
      <trkpt lat="46.37401" lon="4.66256">
        <ele>531</ele>
        <time>2026-03-26T12:06:26.000Z</time>
      </trkpt>
      <trkpt lat="46.37392" lon="4.66253">
        <ele>531</ele>
        <time>2026-03-26T12:06:37.000Z</time>
      </trkpt>
      <trkpt lat="46.37383" lon="4.66247">
        <ele>532</ele>
        <time>2026-03-26T12:06:47.000Z</time>
      </trkpt>
      <trkpt lat="46.37376" lon="4.66239">
        <ele>531</ele>
        <time>2026-03-26T12:06:56.000Z</time>
      </trkpt>
      <trkpt lat="46.37368" lon="4.66232">
        <ele>530</ele>
        <time>2026-03-26T12:07:05.000Z</time>
      </trkpt>
      <trkpt lat="46.37359" lon="4.66228">
        <ele>530</ele>
        <time>2026-03-26T12:07:14.000Z</time>
      </trkpt>
      <trkpt lat="46.3735" lon="4.66226">
        <ele>529</ele>
        <time>2026-03-26T12:07:21.000Z</time>
      </trkpt>
      <trkpt lat="46.3734" lon="4.66225">
        <ele>529</ele>
        <time>2026-03-26T12:07:31.000Z</time>
      </trkpt>
      <trkpt lat="46.37329" lon="4.66224">
        <ele>529</ele>
        <time>2026-03-26T12:07:39.000Z</time>
      </trkpt>
      <trkpt lat="46.37318" lon="4.6622">
        <ele>528</ele>
        <time>2026-03-26T12:07:48.000Z</time>
      </trkpt>
      <trkpt lat="46.37307" lon="4.66223">
        <ele>527</ele>
        <time>2026-03-26T12:07:56.000Z</time>
      </trkpt>
      <trkpt lat="46.37298" lon="4.66224">
        <ele>526</ele>
        <time>2026-03-26T12:08:03.000Z</time>
      </trkpt>
      <trkpt lat="46.37288" lon="4.6622">
        <ele>526</ele>
        <time>2026-03-26T12:08:12.000Z</time>
      </trkpt>
      <trkpt lat="46.37279" lon="4.66216">
        <ele>526</ele>
        <time>2026-03-26T12:08:23.000Z</time>
      </trkpt>
      <trkpt lat="46.37271" lon="4.66209">
        <ele>526</ele>
        <time>2026-03-26T12:08:31.000Z</time>
      </trkpt>
      <trkpt lat="46.37262" lon="4.66203">
        <ele>526</ele>
        <time>2026-03-26T12:08:40.000Z</time>
      </trkpt>
      <trkpt lat="46.37254" lon="4.662">
        <ele>526</ele>
        <time>2026-03-26T12:08:48.000Z</time>
      </trkpt>
      <trkpt lat="46.37244" lon="4.66201">
        <ele>527</ele>
        <time>2026-03-26T12:08:56.000Z</time>
      </trkpt>
      <trkpt lat="46.37234" lon="4.66201">
        <ele>528</ele>
        <time>2026-03-26T12:09:05.000Z</time>
      </trkpt>
      <trkpt lat="46.37225" lon="4.66207">
        <ele>530</ele>
        <time>2026-03-26T12:09:16.000Z</time>
      </trkpt>
      <trkpt lat="46.37216" lon="4.66212">
        <ele>531</ele>
        <time>2026-03-26T12:09:27.000Z</time>
      </trkpt>
      <trkpt lat="46.37208" lon="4.66221">
        <ele>532</ele>
        <time>2026-03-26T12:09:39.000Z</time>
      </trkpt>
      <trkpt lat="46.37199" lon="4.6623">
        <ele>533</ele>
        <time>2026-03-26T12:09:48.000Z</time>
      </trkpt>
      <trkpt lat="46.37196" lon="4.66241">
        <ele>531</ele>
        <time>2026-03-26T12:10:02.000Z</time>
      </trkpt>
      <trkpt lat="46.37186" lon="4.66244">
        <ele>532</ele>
        <time>2026-03-26T12:10:14.000Z</time>
      </trkpt>
      <trkpt lat="46.37177" lon="4.66235">
        <ele>538</ele>
        <time>2026-03-26T12:10:22.000Z</time>
      </trkpt>
      <trkpt lat="46.3717" lon="4.66227">
        <ele>542</ele>
        <time>2026-03-26T12:10:29.000Z</time>
      </trkpt>
      <trkpt lat="46.37167" lon="4.66216">
        <ele>545</ele>
        <time>2026-03-26T12:10:43.000Z</time>
      </trkpt>
      <trkpt lat="46.37159" lon="4.66213">
        <ele>545</ele>
        <time>2026-03-26T12:10:53.000Z</time>
      </trkpt>
      <trkpt lat="46.37153" lon="4.66222">
        <ele>546</ele>
        <time>2026-03-26T12:11:00.000Z</time>
      </trkpt>
      <trkpt lat="46.37144" lon="4.6623">
        <ele>545</ele>
        <time>2026-03-26T12:11:11.000Z</time>
      </trkpt>
      <trkpt lat="46.37133" lon="4.66234">
        <ele>545</ele>
        <time>2026-03-26T12:11:24.000Z</time>
      </trkpt>
      <trkpt lat="46.37125" lon="4.66239">
        <ele>544</ele>
        <time>2026-03-26T12:11:37.000Z</time>
      </trkpt>
      <trkpt lat="46.37116" lon="4.66241">
        <ele>545</ele>
        <time>2026-03-26T12:11:45.000Z</time>
      </trkpt>
      <trkpt lat="46.37107" lon="4.66237">
        <ele>548</ele>
        <time>2026-03-26T12:11:53.000Z</time>
      </trkpt>
      <trkpt lat="46.371" lon="4.66227">
        <ele>553</ele>
        <time>2026-03-26T12:12:03.000Z</time>
      </trkpt>
      <trkpt lat="46.37103" lon="4.66209">
        <ele>555</ele>
        <time>2026-03-26T12:12:31.000Z</time>
      </trkpt>
      <trkpt lat="46.37092" lon="4.66204">
        <ele>555</ele>
        <time>2026-03-26T12:12:38.000Z</time>
      </trkpt>
      <trkpt lat="46.37077" lon="4.66198">
        <ele>555</ele>
        <time>2026-03-26T12:12:45.000Z</time>
      </trkpt>
      <trkpt lat="46.37067" lon="4.66195">
        <ele>555</ele>
        <time>2026-03-26T12:12:49.000Z</time>
      </trkpt>
      <trkpt lat="46.37057" lon="4.66193">
        <ele>554</ele>
        <time>2026-03-26T12:12:56.000Z</time>
      </trkpt>
      <trkpt lat="46.37047" lon="4.66193">
        <ele>554</ele>
        <time>2026-03-26T12:13:02.000Z</time>
      </trkpt>
      <trkpt lat="46.37037" lon="4.66192">
        <ele>556</ele>
        <time>2026-03-26T12:13:11.000Z</time>
      </trkpt>
      <trkpt lat="46.3703" lon="4.66186">
        <ele>555</ele>
        <time>2026-03-26T12:13:20.000Z</time>
      </trkpt>
      <trkpt lat="46.37025" lon="4.66193">
        <ele>556</ele>
        <time>2026-03-26T12:14:24.000Z</time>
      </trkpt>
      <trkpt lat="46.37016" lon="4.66196">
        <ele>557</ele>
        <time>2026-03-26T12:14:30.000Z</time>
      </trkpt>
      <trkpt lat="46.37006" lon="4.66202">
        <ele>557</ele>
        <time>2026-03-26T12:14:38.000Z</time>
      </trkpt>
      <trkpt lat="46.36997" lon="4.66206">
        <ele>557</ele>
        <time>2026-03-26T12:14:46.000Z</time>
      </trkpt>
      <trkpt lat="46.36988" lon="4.66211">
        <ele>558</ele>
        <time>2026-03-26T12:14:57.000Z</time>
      </trkpt>
      <trkpt lat="46.3698" lon="4.66217">
        <ele>558</ele>
        <time>2026-03-26T12:15:05.000Z</time>
      </trkpt>
      <trkpt lat="46.36971" lon="4.6622">
        <ele>557</ele>
        <time>2026-03-26T12:15:14.000Z</time>
      </trkpt>
      <trkpt lat="46.36961" lon="4.66221">
        <ele>556</ele>
        <time>2026-03-26T12:15:21.000Z</time>
      </trkpt>
      <trkpt lat="46.36952" lon="4.66223">
        <ele>555</ele>
        <time>2026-03-26T12:15:27.000Z</time>
      </trkpt>
      <trkpt lat="46.36941" lon="4.66223">
        <ele>555</ele>
        <time>2026-03-26T12:15:35.000Z</time>
      </trkpt>
      <trkpt lat="46.36931" lon="4.66223">
        <ele>554</ele>
        <time>2026-03-26T12:15:44.000Z</time>
      </trkpt>
      <trkpt lat="46.36921" lon="4.6623">
        <ele>554</ele>
        <time>2026-03-26T12:15:52.000Z</time>
      </trkpt>
      <trkpt lat="46.3691" lon="4.66235">
        <ele>553</ele>
        <time>2026-03-26T12:16:00.000Z</time>
      </trkpt>
      <trkpt lat="46.36901" lon="4.66236">
        <ele>553</ele>
        <time>2026-03-26T12:16:07.000Z</time>
      </trkpt>
      <trkpt lat="46.36892" lon="4.6623">
        <ele>551</ele>
        <time>2026-03-26T12:16:13.000Z</time>
      </trkpt>
      <trkpt lat="46.36883" lon="4.66222">
        <ele>551</ele>
        <time>2026-03-26T12:16:21.000Z</time>
      </trkpt>
      <trkpt lat="46.36874" lon="4.66217">
        <ele>550</ele>
        <time>2026-03-26T12:16:30.000Z</time>
      </trkpt>
      <trkpt lat="46.36865" lon="4.66213">
        <ele>550</ele>
        <time>2026-03-26T12:16:38.000Z</time>
      </trkpt>
      <trkpt lat="46.36857" lon="4.66208">
        <ele>550</ele>
        <time>2026-03-26T12:16:47.000Z</time>
      </trkpt>
      <trkpt lat="46.36848" lon="4.66205">
        <ele>549</ele>
        <time>2026-03-26T12:16:55.000Z</time>
      </trkpt>
      <trkpt lat="46.36837" lon="4.66207">
        <ele>548</ele>
        <time>2026-03-26T12:17:08.000Z</time>
      </trkpt>
      <trkpt lat="46.36829" lon="4.66212">
        <ele>548</ele>
        <time>2026-03-26T12:17:19.000Z</time>
      </trkpt>
      <trkpt lat="46.36819" lon="4.66211">
        <ele>548</ele>
        <time>2026-03-26T12:17:27.000Z</time>
      </trkpt>
      <trkpt lat="46.36808" lon="4.6621">
        <ele>547</ele>
        <time>2026-03-26T12:17:36.000Z</time>
      </trkpt>
      <trkpt lat="46.36798" lon="4.6621">
        <ele>547</ele>
        <time>2026-03-26T12:17:44.000Z</time>
      </trkpt>
      <trkpt lat="46.36787" lon="4.66208">
        <ele>545</ele>
        <time>2026-03-26T12:17:53.000Z</time>
      </trkpt>
      <trkpt lat="46.36778" lon="4.66206">
        <ele>545</ele>
        <time>2026-03-26T12:18:01.000Z</time>
      </trkpt>
      <trkpt lat="46.36769" lon="4.66204">
        <ele>545</ele>
        <time>2026-03-26T12:18:10.000Z</time>
      </trkpt>
      <trkpt lat="46.36759" lon="4.66203">
        <ele>545</ele>
        <time>2026-03-26T12:18:18.000Z</time>
      </trkpt>
      <trkpt lat="46.36751" lon="4.66204">
        <ele>545</ele>
        <time>2026-03-26T12:18:25.000Z</time>
      </trkpt>
      <trkpt lat="46.36747" lon="4.66212">
        <ele>546</ele>
        <time>2026-03-26T12:18:35.000Z</time>
      </trkpt>
      <trkpt lat="46.36753" lon="4.66217">
        <ele>546</ele>
        <time>2026-03-26T12:19:01.000Z</time>
      </trkpt>
      <trkpt lat="46.3675" lon="4.6621">
        <ele>545</ele>
        <time>2026-03-26T12:19:30.000Z</time>
      </trkpt>
      <trkpt lat="46.36743" lon="4.6621">
        <ele>546</ele>
        <time>2026-03-26T12:20:18.000Z</time>
      </trkpt>
      <trkpt lat="46.36738" lon="4.66199">
        <ele>546</ele>
        <time>2026-03-26T12:20:57.000Z</time>
      </trkpt>
      <trkpt lat="46.3673" lon="4.66193">
        <ele>545</ele>
        <time>2026-03-26T12:21:03.000Z</time>
      </trkpt>
      <trkpt lat="46.36718" lon="4.66193">
        <ele>546</ele>
        <time>2026-03-26T12:21:10.000Z</time>
      </trkpt>
      <trkpt lat="46.36707" lon="4.66192">
        <ele>547</ele>
        <time>2026-03-26T12:21:18.000Z</time>
      </trkpt>
      <trkpt lat="46.36698" lon="4.66189">
        <ele>547</ele>
        <time>2026-03-26T12:21:26.000Z</time>
      </trkpt>
      <trkpt lat="46.36689" lon="4.66188">
        <ele>548</ele>
        <time>2026-03-26T12:21:34.000Z</time>
      </trkpt>
      <trkpt lat="46.36679" lon="4.6619">
        <ele>548</ele>
        <time>2026-03-26T12:21:45.000Z</time>
      </trkpt>
      <trkpt lat="46.36669" lon="4.6619">
        <ele>548</ele>
        <time>2026-03-26T12:21:56.000Z</time>
      </trkpt>
      <trkpt lat="46.3666" lon="4.66189">
        <ele>549</ele>
        <time>2026-03-26T12:22:06.000Z</time>
      </trkpt>
      <trkpt lat="46.36649" lon="4.66191">
        <ele>549</ele>
        <time>2026-03-26T12:22:14.000Z</time>
      </trkpt>
      <trkpt lat="46.36638" lon="4.6619">
        <ele>550</ele>
        <time>2026-03-26T12:22:26.000Z</time>
      </trkpt>
      <trkpt lat="46.36628" lon="4.66187">
        <ele>551</ele>
        <time>2026-03-26T12:22:34.000Z</time>
      </trkpt>
      <trkpt lat="46.36618" lon="4.66184">
        <ele>553</ele>
        <time>2026-03-26T12:22:43.000Z</time>
      </trkpt>
      <trkpt lat="46.3661" lon="4.66181">
        <ele>552</ele>
        <time>2026-03-26T12:22:52.000Z</time>
      </trkpt>
      <trkpt lat="46.36599" lon="4.66179">
        <ele>554</ele>
        <time>2026-03-26T12:23:02.000Z</time>
      </trkpt>
      <trkpt lat="46.3659" lon="4.66178">
        <ele>554</ele>
        <time>2026-03-26T12:23:11.000Z</time>
      </trkpt>
      <trkpt lat="46.3658" lon="4.66177">
        <ele>556</ele>
        <time>2026-03-26T12:23:21.000Z</time>
      </trkpt>
      <trkpt lat="46.36569" lon="4.66177">
        <ele>556</ele>
        <time>2026-03-26T12:23:32.000Z</time>
      </trkpt>
      <trkpt lat="46.36558" lon="4.66176">
        <ele>557</ele>
        <time>2026-03-26T12:23:46.000Z</time>
      </trkpt>
      <trkpt lat="46.3655" lon="4.66169">
        <ele>558</ele>
        <time>2026-03-26T12:23:54.000Z</time>
      </trkpt>
      <trkpt lat="46.36549" lon="4.66158">
        <ele>558</ele>
        <time>2026-03-26T12:23:57.000Z</time>
      </trkpt>
      <trkpt lat="46.36543" lon="4.66157">
        <ele>558</ele>
        <time>2026-03-26T12:24:04.000Z</time>
      </trkpt>
      <trkpt lat="46.36545" lon="4.66171">
        <ele>558</ele>
        <time>2026-03-26T12:24:26.000Z</time>
      </trkpt>
      <trkpt lat="46.36549" lon="4.66183">
        <ele>558</ele>
        <time>2026-03-26T12:24:33.000Z</time>
      </trkpt>
      <trkpt lat="46.36556" lon="4.66194">
        <ele>558</ele>
        <time>2026-03-26T12:24:41.000Z</time>
      </trkpt>
      <trkpt lat="46.36564" lon="4.66203">
        <ele>557</ele>
        <time>2026-03-26T12:24:49.000Z</time>
      </trkpt>
      <trkpt lat="46.36569" lon="4.66215">
        <ele>558</ele>
        <time>2026-03-26T12:24:59.000Z</time>
      </trkpt>
      <trkpt lat="46.36568" lon="4.66227">
        <ele>559</ele>
        <time>2026-03-26T12:25:07.000Z</time>
      </trkpt>
      <trkpt lat="46.36564" lon="4.66235">
        <ele>559</ele>
        <time>2026-03-26T12:25:17.000Z</time>
      </trkpt>
      <trkpt lat="46.36569" lon="4.66239">
        <ele>560</ele>
        <time>2026-03-26T12:26:02.000Z</time>
      </trkpt>
      <trkpt lat="46.36569" lon="4.66229">
        <ele>559</ele>
        <time>2026-03-26T12:27:37.000Z</time>
      </trkpt>
      <trkpt lat="46.36567" lon="4.66216">
        <ele>558</ele>
        <time>2026-03-26T12:27:43.000Z</time>
      </trkpt>
      <trkpt lat="46.36561" lon="4.66206">
        <ele>557</ele>
        <time>2026-03-26T12:27:49.000Z</time>
      </trkpt>
      <trkpt lat="46.36555" lon="4.66197">
        <ele>558</ele>
        <time>2026-03-26T12:27:57.000Z</time>
      </trkpt>
      <trkpt lat="46.36547" lon="4.66189">
        <ele>558</ele>
        <time>2026-03-26T12:28:04.000Z</time>
      </trkpt>
      <trkpt lat="46.36541" lon="4.66179">
        <ele>558</ele>
        <time>2026-03-26T12:28:12.000Z</time>
      </trkpt>
      <trkpt lat="46.36534" lon="4.66166">
        <ele>558</ele>
        <time>2026-03-26T12:28:20.000Z</time>
      </trkpt>
      <trkpt lat="46.36527" lon="4.66154">
        <ele>559</ele>
        <time>2026-03-26T12:28:28.000Z</time>
      </trkpt>
      <trkpt lat="46.36521" lon="4.66144">
        <ele>559</ele>
        <time>2026-03-26T12:28:37.000Z</time>
      </trkpt>
      <trkpt lat="46.36516" lon="4.66135">
        <ele>559</ele>
        <time>2026-03-26T12:28:46.000Z</time>
      </trkpt>
      <trkpt lat="46.3651" lon="4.66125">
        <ele>560</ele>
        <time>2026-03-26T12:28:54.000Z</time>
      </trkpt>
      <trkpt lat="46.36503" lon="4.66114">
        <ele>560</ele>
        <time>2026-03-26T12:29:03.000Z</time>
      </trkpt>
      <trkpt lat="46.36495" lon="4.66104">
        <ele>559</ele>
        <time>2026-03-26T12:29:11.000Z</time>
      </trkpt>
      <trkpt lat="46.36487" lon="4.66096">
        <ele>559</ele>
        <time>2026-03-26T12:29:17.000Z</time>
      </trkpt>
      <trkpt lat="46.36478" lon="4.66089">
        <ele>558</ele>
        <time>2026-03-26T12:29:27.000Z</time>
      </trkpt>
      <trkpt lat="46.36471" lon="4.66081">
        <ele>558</ele>
        <time>2026-03-26T12:30:26.000Z</time>
      </trkpt>
      <trkpt lat="46.36462" lon="4.66074">
        <ele>558</ele>
        <time>2026-03-26T12:30:42.000Z</time>
      </trkpt>
      <trkpt lat="46.36453" lon="4.6607">
        <ele>559</ele>
        <time>2026-03-26T12:30:49.000Z</time>
      </trkpt>
      <trkpt lat="46.36444" lon="4.66065">
        <ele>559</ele>
        <time>2026-03-26T12:30:57.000Z</time>
      </trkpt>
      <trkpt lat="46.36436" lon="4.66058">
        <ele>560</ele>
        <time>2026-03-26T12:31:06.000Z</time>
      </trkpt>
      <trkpt lat="46.36429" lon="4.6605">
        <ele>561</ele>
        <time>2026-03-26T12:31:13.000Z</time>
      </trkpt>
      <trkpt lat="46.3642" lon="4.66044">
        <ele>562</ele>
        <time>2026-03-26T12:31:22.000Z</time>
      </trkpt>
      <trkpt lat="46.36411" lon="4.66039">
        <ele>563</ele>
        <time>2026-03-26T12:31:31.000Z</time>
      </trkpt>
      <trkpt lat="46.36402" lon="4.66034">
        <ele>563</ele>
        <time>2026-03-26T12:31:39.000Z</time>
      </trkpt>
      <trkpt lat="46.36393" lon="4.66031">
        <ele>563</ele>
        <time>2026-03-26T12:31:46.000Z</time>
      </trkpt>
      <trkpt lat="46.36385" lon="4.66026">
        <ele>563</ele>
        <time>2026-03-26T12:31:52.000Z</time>
      </trkpt>
      <trkpt lat="46.36376" lon="4.66019">
        <ele>563</ele>
        <time>2026-03-26T12:32:00.000Z</time>
      </trkpt>
      <trkpt lat="46.36368" lon="4.66013">
        <ele>563</ele>
        <time>2026-03-26T12:32:07.000Z</time>
      </trkpt>
      <trkpt lat="46.3636" lon="4.66005">
        <ele>563</ele>
        <time>2026-03-26T12:32:16.000Z</time>
      </trkpt>
      <trkpt lat="46.36352" lon="4.65999">
        <ele>563</ele>
        <time>2026-03-26T12:32:24.000Z</time>
      </trkpt>
      <trkpt lat="46.36343" lon="4.65995">
        <ele>563</ele>
        <time>2026-03-26T12:32:33.000Z</time>
      </trkpt>
      <trkpt lat="46.36334" lon="4.65989">
        <ele>564</ele>
        <time>2026-03-26T12:32:43.000Z</time>
      </trkpt>
      <trkpt lat="46.36324" lon="4.65986">
        <ele>565</ele>
        <time>2026-03-26T12:32:54.000Z</time>
      </trkpt>
      <trkpt lat="46.36314" lon="4.6599">
        <ele>567</ele>
        <time>2026-03-26T12:33:06.000Z</time>
      </trkpt>
      <trkpt lat="46.36304" lon="4.65994">
        <ele>568</ele>
        <time>2026-03-26T12:33:17.000Z</time>
      </trkpt>
      <trkpt lat="46.36295" lon="4.65994">
        <ele>570</ele>
        <time>2026-03-26T12:33:31.000Z</time>
      </trkpt>
      <trkpt lat="46.36286" lon="4.6599">
        <ele>572</ele>
        <time>2026-03-26T12:33:46.000Z</time>
      </trkpt>
      <trkpt lat="46.36278" lon="4.65983">
        <ele>573</ele>
        <time>2026-03-26T12:33:56.000Z</time>
      </trkpt>
      <trkpt lat="46.36272" lon="4.65973">
        <ele>576</ele>
        <time>2026-03-26T12:34:05.000Z</time>
      </trkpt>
      <trkpt lat="46.36265" lon="4.65962">
        <ele>577</ele>
        <time>2026-03-26T12:34:13.000Z</time>
      </trkpt>
      <trkpt lat="46.36258" lon="4.65957">
        <ele>579</ele>
        <time>2026-03-26T12:34:22.000Z</time>
      </trkpt>
      <trkpt lat="46.36249" lon="4.65953">
        <ele>580</ele>
        <time>2026-03-26T12:34:30.000Z</time>
      </trkpt>
      <trkpt lat="46.36239" lon="4.65951">
        <ele>581</ele>
        <time>2026-03-26T12:34:40.000Z</time>
      </trkpt>
      <trkpt lat="46.36229" lon="4.6595">
        <ele>582</ele>
        <time>2026-03-26T12:34:49.000Z</time>
      </trkpt>
      <trkpt lat="46.3622" lon="4.65949">
        <ele>583</ele>
        <time>2026-03-26T12:34:58.000Z</time>
      </trkpt>
      <trkpt lat="46.3621" lon="4.65947">
        <ele>583</ele>
        <time>2026-03-26T12:35:07.000Z</time>
      </trkpt>
      <trkpt lat="46.36202" lon="4.65943">
        <ele>584</ele>
        <time>2026-03-26T12:35:14.000Z</time>
      </trkpt>
      <trkpt lat="46.36194" lon="4.65938">
        <ele>584</ele>
        <time>2026-03-26T12:35:20.000Z</time>
      </trkpt>
      <trkpt lat="46.36184" lon="4.65934">
        <ele>585</ele>
        <time>2026-03-26T12:35:29.000Z</time>
      </trkpt>
      <trkpt lat="46.36175" lon="4.65928">
        <ele>586</ele>
        <time>2026-03-26T12:35:37.000Z</time>
      </trkpt>
      <trkpt lat="46.36168" lon="4.65918">
        <ele>587</ele>
        <time>2026-03-26T12:35:45.000Z</time>
      </trkpt>
      <trkpt lat="46.36161" lon="4.65907">
        <ele>587</ele>
        <time>2026-03-26T12:35:55.000Z</time>
      </trkpt>
      <trkpt lat="46.36154" lon="4.65898">
        <ele>588</ele>
        <time>2026-03-26T12:36:03.000Z</time>
      </trkpt>
      <trkpt lat="46.36145" lon="4.65888">
        <ele>588</ele>
        <time>2026-03-26T12:36:43.000Z</time>
      </trkpt>
      <trkpt lat="46.36135" lon="4.65887">
        <ele>590</ele>
        <time>2026-03-26T12:36:47.000Z</time>
      </trkpt>
      <trkpt lat="46.36125" lon="4.65884">
        <ele>591</ele>
        <time>2026-03-26T12:36:54.000Z</time>
      </trkpt>
      <trkpt lat="46.36116" lon="4.6588">
        <ele>592</ele>
        <time>2026-03-26T12:37:00.000Z</time>
      </trkpt>
      <trkpt lat="46.36108" lon="4.65875">
        <ele>592</ele>
        <time>2026-03-26T12:37:06.000Z</time>
      </trkpt>
      <trkpt lat="46.36099" lon="4.65869">
        <ele>593</ele>
        <time>2026-03-26T12:37:15.000Z</time>
      </trkpt>
      <trkpt lat="46.36089" lon="4.65863">
        <ele>593</ele>
        <time>2026-03-26T12:37:22.000Z</time>
      </trkpt>
      <trkpt lat="46.3608" lon="4.6586">
        <ele>593</ele>
        <time>2026-03-26T12:37:31.000Z</time>
      </trkpt>
      <trkpt lat="46.3607" lon="4.65854">
        <ele>593</ele>
        <time>2026-03-26T12:37:39.000Z</time>
      </trkpt>
      <trkpt lat="46.36061" lon="4.65849">
        <ele>594</ele>
        <time>2026-03-26T12:37:47.000Z</time>
      </trkpt>
      <trkpt lat="46.36052" lon="4.65842">
        <ele>594</ele>
        <time>2026-03-26T12:37:55.000Z</time>
      </trkpt>
      <trkpt lat="46.36046" lon="4.65833">
        <ele>595</ele>
        <time>2026-03-26T12:38:02.000Z</time>
      </trkpt>
      <trkpt lat="46.3604" lon="4.65825">
        <ele>596</ele>
        <time>2026-03-26T12:38:09.000Z</time>
      </trkpt>
      <trkpt lat="46.36031" lon="4.65823">
        <ele>596</ele>
        <time>2026-03-26T12:38:16.000Z</time>
      </trkpt>
      <trkpt lat="46.36025" lon="4.65815">
        <ele>597</ele>
        <time>2026-03-26T12:38:23.000Z</time>
      </trkpt>
      <trkpt lat="46.36018" lon="4.65804">
        <ele>597</ele>
        <time>2026-03-26T12:38:32.000Z</time>
      </trkpt>
      <trkpt lat="46.3601" lon="4.65794">
        <ele>597</ele>
        <time>2026-03-26T12:38:40.000Z</time>
      </trkpt>
      <trkpt lat="46.36001" lon="4.65787">
        <ele>596</ele>
        <time>2026-03-26T12:38:48.000Z</time>
      </trkpt>
      <trkpt lat="46.35992" lon="4.65782">
        <ele>596</ele>
        <time>2026-03-26T12:38:57.000Z</time>
      </trkpt>
      <trkpt lat="46.35982" lon="4.65775">
        <ele>596</ele>
        <time>2026-03-26T12:39:05.000Z</time>
      </trkpt>
      <trkpt lat="46.35973" lon="4.6577">
        <ele>596</ele>
        <time>2026-03-26T12:39:11.000Z</time>
      </trkpt>
      <trkpt lat="46.35965" lon="4.65762">
        <ele>596</ele>
        <time>2026-03-26T12:39:19.000Z</time>
      </trkpt>
      <trkpt lat="46.35957" lon="4.65755">
        <ele>596</ele>
        <time>2026-03-26T12:39:27.000Z</time>
      </trkpt>
      <trkpt lat="46.35948" lon="4.6575">
        <ele>595</ele>
        <time>2026-03-26T12:39:33.000Z</time>
      </trkpt>
      <trkpt lat="46.35939" lon="4.65746">
        <ele>595</ele>
        <time>2026-03-26T12:39:42.000Z</time>
      </trkpt>
      <trkpt lat="46.3593" lon="4.65741">
        <ele>595</ele>
        <time>2026-03-26T12:39:50.000Z</time>
      </trkpt>
      <trkpt lat="46.35922" lon="4.65737">
        <ele>593</ele>
        <time>2026-03-26T12:39:58.000Z</time>
      </trkpt>
      <trkpt lat="46.35914" lon="4.65729">
        <ele>592</ele>
        <time>2026-03-26T12:40:07.000Z</time>
      </trkpt>
      <trkpt lat="46.35905" lon="4.65726">
        <ele>591</ele>
        <time>2026-03-26T12:40:18.000Z</time>
      </trkpt>
      <trkpt lat="46.35897" lon="4.65719">
        <ele>589</ele>
        <time>2026-03-26T12:40:25.000Z</time>
      </trkpt>
      <trkpt lat="46.35888" lon="4.65715">
        <ele>588</ele>
        <time>2026-03-26T12:40:34.000Z</time>
      </trkpt>
      <trkpt lat="46.35879" lon="4.65712">
        <ele>586</ele>
        <time>2026-03-26T12:40:53.000Z</time>
      </trkpt>
      <trkpt lat="46.3587" lon="4.65707">
        <ele>584</ele>
        <time>2026-03-26T12:41:00.000Z</time>
      </trkpt>
      <trkpt lat="46.35863" lon="4.65694">
        <ele>582</ele>
        <time>2026-03-26T12:41:09.000Z</time>
      </trkpt>
      <trkpt lat="46.35854" lon="4.65685">
        <ele>581</ele>
        <time>2026-03-26T12:41:21.000Z</time>
      </trkpt>
      <trkpt lat="46.35845" lon="4.65681">
        <ele>578</ele>
        <time>2026-03-26T12:41:30.000Z</time>
      </trkpt>
      <trkpt lat="46.35834" lon="4.65675">
        <ele>577</ele>
        <time>2026-03-26T12:41:46.000Z</time>
      </trkpt>
      <trkpt lat="46.35826" lon="4.6568">
        <ele>574</ele>
        <time>2026-03-26T12:41:54.000Z</time>
      </trkpt>
      <trkpt lat="46.35817" lon="4.65677">
        <ele>573</ele>
        <time>2026-03-26T12:41:59.000Z</time>
      </trkpt>
      <trkpt lat="46.35808" lon="4.65672">
        <ele>571</ele>
        <time>2026-03-26T12:42:07.000Z</time>
      </trkpt>
      <trkpt lat="46.35799" lon="4.65667">
        <ele>571</ele>
        <time>2026-03-26T12:42:15.000Z</time>
      </trkpt>
      <trkpt lat="46.35789" lon="4.65664">
        <ele>569</ele>
        <time>2026-03-26T12:42:23.000Z</time>
      </trkpt>
      <trkpt lat="46.3578" lon="4.65664">
        <ele>567</ele>
        <time>2026-03-26T12:42:29.000Z</time>
      </trkpt>
      <trkpt lat="46.3577" lon="4.65665">
        <ele>565</ele>
        <time>2026-03-26T12:42:37.000Z</time>
      </trkpt>
      <trkpt lat="46.35759" lon="4.65667">
        <ele>564</ele>
        <time>2026-03-26T12:42:45.000Z</time>
      </trkpt>
      <trkpt lat="46.35749" lon="4.6567">
        <ele>562</ele>
        <time>2026-03-26T12:42:54.000Z</time>
      </trkpt>
      <trkpt lat="46.3574" lon="4.65679">
        <ele>561</ele>
        <time>2026-03-26T12:43:02.000Z</time>
      </trkpt>
      <trkpt lat="46.35734" lon="4.6569">
        <ele>560</ele>
        <time>2026-03-26T12:43:08.000Z</time>
      </trkpt>
      <trkpt lat="46.35726" lon="4.657">
        <ele>558</ele>
        <time>2026-03-26T12:43:16.000Z</time>
      </trkpt>
      <trkpt lat="46.3572" lon="4.65708">
        <ele>558</ele>
        <time>2026-03-26T12:43:24.000Z</time>
      </trkpt>
      <trkpt lat="46.35711" lon="4.65713">
        <ele>556</ele>
        <time>2026-03-26T12:43:32.000Z</time>
      </trkpt>
      <trkpt lat="46.35702" lon="4.65714">
        <ele>556</ele>
        <time>2026-03-26T12:43:40.000Z</time>
      </trkpt>
      <trkpt lat="46.35693" lon="4.65714">
        <ele>556</ele>
        <time>2026-03-26T12:43:48.000Z</time>
      </trkpt>
      <trkpt lat="46.35684" lon="4.65712">
        <ele>554</ele>
        <time>2026-03-26T12:43:56.000Z</time>
      </trkpt>
      <trkpt lat="46.35675" lon="4.65717">
        <ele>553</ele>
        <time>2026-03-26T12:44:04.000Z</time>
      </trkpt>
      <trkpt lat="46.35669" lon="4.65728">
        <ele>552</ele>
        <time>2026-03-26T12:44:13.000Z</time>
      </trkpt>
      <trkpt lat="46.35662" lon="4.65737">
        <ele>551</ele>
        <time>2026-03-26T12:44:21.000Z</time>
      </trkpt>
      <trkpt lat="46.35653" lon="4.65743">
        <ele>550</ele>
        <time>2026-03-26T12:44:54.000Z</time>
      </trkpt>
      <trkpt lat="46.35644" lon="4.65739">
        <ele>549</ele>
        <time>2026-03-26T12:45:02.000Z</time>
      </trkpt>
      <trkpt lat="46.35636" lon="4.65733">
        <ele>548</ele>
        <time>2026-03-26T12:45:10.000Z</time>
      </trkpt>
      <trkpt lat="46.35627" lon="4.65726">
        <ele>547</ele>
        <time>2026-03-26T12:45:18.000Z</time>
      </trkpt>
      <trkpt lat="46.35619" lon="4.65721">
        <ele>546</ele>
        <time>2026-03-26T12:45:27.000Z</time>
      </trkpt>
      <trkpt lat="46.35613" lon="4.65724">
        <ele>545</ele>
        <time>2026-03-26T12:45:48.000Z</time>
      </trkpt>
      <trkpt lat="46.35614" lon="4.65714">
        <ele>546</ele>
        <time>2026-03-26T12:47:16.000Z</time>
      </trkpt>
      <trkpt lat="46.3561" lon="4.65704">
        <ele>546</ele>
        <time>2026-03-26T12:47:26.000Z</time>
      </trkpt>
      <trkpt lat="46.35601" lon="4.65696">
        <ele>544</ele>
        <time>2026-03-26T12:47:33.000Z</time>
      </trkpt>
      <trkpt lat="46.35593" lon="4.65688">
        <ele>544</ele>
        <time>2026-03-26T12:47:43.000Z</time>
      </trkpt>
      <trkpt lat="46.3558" lon="4.65691">
        <ele>544</ele>
        <time>2026-03-26T12:47:48.000Z</time>
      </trkpt>
      <trkpt lat="46.35569" lon="4.6569">
        <ele>544</ele>
        <time>2026-03-26T12:47:55.000Z</time>
      </trkpt>
      <trkpt lat="46.3556" lon="4.65686">
        <ele>545</ele>
        <time>2026-03-26T12:48:01.000Z</time>
      </trkpt>
      <trkpt lat="46.35552" lon="4.65685">
        <ele>545</ele>
        <time>2026-03-26T12:48:51.000Z</time>
      </trkpt>
      <trkpt lat="46.35543" lon="4.65681">
        <ele>544</ele>
        <time>2026-03-26T12:48:58.000Z</time>
      </trkpt>
      <trkpt lat="46.35534" lon="4.65678">
        <ele>543</ele>
        <time>2026-03-26T12:49:04.000Z</time>
      </trkpt>
      <trkpt lat="46.35526" lon="4.65677">
        <ele>543</ele>
        <time>2026-03-26T12:49:11.000Z</time>
      </trkpt>
      <trkpt lat="46.35517" lon="4.65681">
        <ele>543</ele>
        <time>2026-03-26T12:49:17.000Z</time>
      </trkpt>
      <trkpt lat="46.35507" lon="4.65684">
        <ele>542</ele>
        <time>2026-03-26T12:49:25.000Z</time>
      </trkpt>
      <trkpt lat="46.35496" lon="4.65686">
        <ele>541</ele>
        <time>2026-03-26T12:49:33.000Z</time>
      </trkpt>
      <trkpt lat="46.35486" lon="4.65689">
        <ele>540</ele>
        <time>2026-03-26T12:49:41.000Z</time>
      </trkpt>
      <trkpt lat="46.35475" lon="4.65693">
        <ele>540</ele>
        <time>2026-03-26T12:49:49.000Z</time>
      </trkpt>
      <trkpt lat="46.35465" lon="4.65695">
        <ele>540</ele>
        <time>2026-03-26T12:49:57.000Z</time>
      </trkpt>
      <trkpt lat="46.35455" lon="4.65697">
        <ele>540</ele>
        <time>2026-03-26T12:50:06.000Z</time>
      </trkpt>
      <trkpt lat="46.35446" lon="4.657">
        <ele>541</ele>
        <time>2026-03-26T12:50:13.000Z</time>
      </trkpt>
      <trkpt lat="46.35437" lon="4.65704">
        <ele>542</ele>
        <time>2026-03-26T12:50:20.000Z</time>
      </trkpt>
      <trkpt lat="46.35426" lon="4.65708">
        <ele>541</ele>
        <time>2026-03-26T12:50:28.000Z</time>
      </trkpt>
      <trkpt lat="46.35416" lon="4.6571">
        <ele>541</ele>
        <time>2026-03-26T12:50:36.000Z</time>
      </trkpt>
      <trkpt lat="46.35406" lon="4.65712">
        <ele>541</ele>
        <time>2026-03-26T12:50:44.000Z</time>
      </trkpt>
      <trkpt lat="46.35396" lon="4.65714">
        <ele>540</ele>
        <time>2026-03-26T12:50:53.000Z</time>
      </trkpt>
      <trkpt lat="46.35387" lon="4.65718">
        <ele>539</ele>
        <time>2026-03-26T12:51:00.000Z</time>
      </trkpt>
      <trkpt lat="46.35378" lon="4.65724">
        <ele>539</ele>
        <time>2026-03-26T12:51:09.000Z</time>
      </trkpt>
      <trkpt lat="46.35369" lon="4.65729">
        <ele>540</ele>
        <time>2026-03-26T12:51:17.000Z</time>
      </trkpt>
      <trkpt lat="46.3536" lon="4.65732">
        <ele>540</ele>
        <time>2026-03-26T12:51:24.000Z</time>
      </trkpt>
      <trkpt lat="46.35351" lon="4.65738">
        <ele>540</ele>
        <time>2026-03-26T12:51:34.000Z</time>
      </trkpt>
      <trkpt lat="46.35342" lon="4.65744">
        <ele>542</ele>
        <time>2026-03-26T12:51:42.000Z</time>
      </trkpt>
      <trkpt lat="46.35333" lon="4.6575">
        <ele>541</ele>
        <time>2026-03-26T12:51:51.000Z</time>
      </trkpt>
      <trkpt lat="46.35324" lon="4.65756">
        <ele>541</ele>
        <time>2026-03-26T12:51:59.000Z</time>
      </trkpt>
      <trkpt lat="46.35316" lon="4.65764">
        <ele>542</ele>
        <time>2026-03-26T12:52:08.000Z</time>
      </trkpt>
      <trkpt lat="46.35309" lon="4.65774">
        <ele>542</ele>
        <time>2026-03-26T12:52:16.000Z</time>
      </trkpt>
      <trkpt lat="46.35303" lon="4.65785">
        <ele>544</ele>
        <time>2026-03-26T12:52:24.000Z</time>
      </trkpt>
      <trkpt lat="46.35297" lon="4.65795">
        <ele>544</ele>
        <time>2026-03-26T12:52:32.000Z</time>
      </trkpt>
      <trkpt lat="46.35291" lon="4.65804">
        <ele>546</ele>
        <time>2026-03-26T12:52:39.000Z</time>
      </trkpt>
      <trkpt lat="46.35284" lon="4.65813">
        <ele>547</ele>
        <time>2026-03-26T12:52:47.000Z</time>
      </trkpt>
      <trkpt lat="46.35277" lon="4.65822">
        <ele>547</ele>
        <time>2026-03-26T12:52:55.000Z</time>
      </trkpt>
      <trkpt lat="46.3527" lon="4.65832">
        <ele>547</ele>
        <time>2026-03-26T12:53:04.000Z</time>
      </trkpt>
      <trkpt lat="46.35261" lon="4.6584">
        <ele>547</ele>
        <time>2026-03-26T12:53:12.000Z</time>
      </trkpt>
      <trkpt lat="46.35253" lon="4.65847">
        <ele>546</ele>
        <time>2026-03-26T12:53:18.000Z</time>
      </trkpt>
      <trkpt lat="46.35246" lon="4.65855">
        <ele>547</ele>
        <time>2026-03-26T12:53:25.000Z</time>
      </trkpt>
      <trkpt lat="46.35241" lon="4.65864">
        <ele>546</ele>
        <time>2026-03-26T12:53:31.000Z</time>
      </trkpt>
      <trkpt lat="46.35233" lon="4.65872">
        <ele>545</ele>
        <time>2026-03-26T12:53:39.000Z</time>
      </trkpt>
      <trkpt lat="46.35228" lon="4.65882">
        <ele>546</ele>
        <time>2026-03-26T12:53:47.000Z</time>
      </trkpt>
      <trkpt lat="46.35223" lon="4.65893">
        <ele>547</ele>
        <time>2026-03-26T12:53:57.000Z</time>
      </trkpt>
      <trkpt lat="46.35219" lon="4.65906">
        <ele>546</ele>
        <time>2026-03-26T12:54:05.000Z</time>
      </trkpt>
      <trkpt lat="46.35216" lon="4.65918">
        <ele>548</ele>
        <time>2026-03-26T12:54:13.000Z</time>
      </trkpt>
      <trkpt lat="46.35214" lon="4.65931">
        <ele>547</ele>
        <time>2026-03-26T12:54:19.000Z</time>
      </trkpt>
      <trkpt lat="46.35213" lon="4.65946">
        <ele>549</ele>
        <time>2026-03-26T12:54:28.000Z</time>
      </trkpt>
      <trkpt lat="46.35212" lon="4.65959">
        <ele>549</ele>
        <time>2026-03-26T12:54:35.000Z</time>
      </trkpt>
      <trkpt lat="46.35213" lon="4.65971">
        <ele>551</ele>
        <time>2026-03-26T12:54:50.000Z</time>
      </trkpt>
      <trkpt lat="46.35221" lon="4.65977">
        <ele>551</ele>
        <time>2026-03-26T12:55:17.000Z</time>
      </trkpt>
      <trkpt lat="46.35231" lon="4.65984">
        <ele>552</ele>
        <time>2026-03-26T12:55:28.000Z</time>
      </trkpt>
      <trkpt lat="46.35236" lon="4.65994">
        <ele>553</ele>
        <time>2026-03-26T12:55:34.000Z</time>
      </trkpt>
      <trkpt lat="46.35239" lon="4.66006">
        <ele>553</ele>
        <time>2026-03-26T12:55:44.000Z</time>
      </trkpt>
      <trkpt lat="46.35246" lon="4.66012">
        <ele>553</ele>
        <time>2026-03-26T12:56:02.000Z</time>
      </trkpt>
      <trkpt lat="46.35251" lon="4.66024">
        <ele>552</ele>
        <time>2026-03-26T12:57:55.000Z</time>
      </trkpt>
      <trkpt lat="46.35256" lon="4.66035">
        <ele>551</ele>
        <time>2026-03-26T12:58:01.000Z</time>
      </trkpt>
      <trkpt lat="46.35262" lon="4.66046">
        <ele>549</ele>
        <time>2026-03-26T12:58:09.000Z</time>
      </trkpt>
      <trkpt lat="46.35266" lon="4.66059">
        <ele>548</ele>
        <time>2026-03-26T12:58:17.000Z</time>
      </trkpt>
      <trkpt lat="46.3527" lon="4.66073">
        <ele>545</ele>
        <time>2026-03-26T12:58:25.000Z</time>
      </trkpt>
      <trkpt lat="46.35273" lon="4.66088">
        <ele>543</ele>
        <time>2026-03-26T12:58:34.000Z</time>
      </trkpt>
      <trkpt lat="46.3527" lon="4.66101">
        <ele>542</ele>
        <time>2026-03-26T12:58:44.000Z</time>
      </trkpt>
      <trkpt lat="46.35264" lon="4.66111">
        <ele>542</ele>
        <time>2026-03-26T12:58:58.000Z</time>
      </trkpt>
      <trkpt lat="46.35256" lon="4.66118">
        <ele>544</ele>
        <time>2026-03-26T12:59:07.000Z</time>
      </trkpt>
      <trkpt lat="46.35252" lon="4.66129">
        <ele>543</ele>
        <time>2026-03-26T12:59:14.000Z</time>
      </trkpt>
      <trkpt lat="46.35255" lon="4.66141">
        <ele>543</ele>
        <time>2026-03-26T12:59:22.000Z</time>
      </trkpt>
      <trkpt lat="46.35263" lon="4.66147">
        <ele>541</ele>
        <time>2026-03-26T12:59:29.000Z</time>
      </trkpt>
      <trkpt lat="46.35273" lon="4.66146">
        <ele>540</ele>
        <time>2026-03-26T12:59:37.000Z</time>
      </trkpt>
      <trkpt lat="46.35283" lon="4.6615">
        <ele>539</ele>
        <time>2026-03-26T12:59:48.000Z</time>
      </trkpt>
      <trkpt lat="46.3529" lon="4.66156">
        <ele>538</ele>
        <time>2026-03-26T12:59:59.000Z</time>
      </trkpt>
      <trkpt lat="46.35292" lon="4.6617">
        <ele>538</ele>
        <time>2026-03-26T13:00:09.000Z</time>
      </trkpt>
      <trkpt lat="46.3529" lon="4.66185">
        <ele>537</ele>
        <time>2026-03-26T13:00:18.000Z</time>
      </trkpt>
      <trkpt lat="46.35295" lon="4.66199">
        <ele>536</ele>
        <time>2026-03-26T13:00:26.000Z</time>
      </trkpt>
      <trkpt lat="46.35303" lon="4.66209">
        <ele>535</ele>
        <time>2026-03-26T13:00:35.000Z</time>
      </trkpt>
      <trkpt lat="46.35311" lon="4.66215">
        <ele>533</ele>
        <time>2026-03-26T13:00:42.000Z</time>
      </trkpt>
      <trkpt lat="46.3532" lon="4.66222">
        <ele>531</ele>
        <time>2026-03-26T13:00:51.000Z</time>
      </trkpt>
      <trkpt lat="46.35325" lon="4.66233">
        <ele>530</ele>
        <time>2026-03-26T13:01:01.000Z</time>
      </trkpt>
      <trkpt lat="46.35328" lon="4.66247">
        <ele>529</ele>
        <time>2026-03-26T13:01:13.000Z</time>
      </trkpt>
      <trkpt lat="46.3533" lon="4.6626">
        <ele>527</ele>
        <time>2026-03-26T13:01:22.000Z</time>
      </trkpt>
      <trkpt lat="46.35334" lon="4.66273">
        <ele>525</ele>
        <time>2026-03-26T13:01:30.000Z</time>
      </trkpt>
      <trkpt lat="46.35337" lon="4.66287">
        <ele>522</ele>
        <time>2026-03-26T13:01:41.000Z</time>
      </trkpt>
      <trkpt lat="46.35339" lon="4.66302">
        <ele>522</ele>
        <time>2026-03-26T13:01:51.000Z</time>
      </trkpt>
      <trkpt lat="46.35338" lon="4.66315">
        <ele>521</ele>
        <time>2026-03-26T13:02:01.000Z</time>
      </trkpt>
      <trkpt lat="46.35335" lon="4.66328">
        <ele>519</ele>
        <time>2026-03-26T13:02:09.000Z</time>
      </trkpt>
      <trkpt lat="46.3533" lon="4.6634">
        <ele>518</ele>
        <time>2026-03-26T13:02:18.000Z</time>
      </trkpt>
      <trkpt lat="46.35328" lon="4.66352">
        <ele>518</ele>
        <time>2026-03-26T13:02:26.000Z</time>
      </trkpt>
      <trkpt lat="46.35326" lon="4.66367">
        <ele>518</ele>
        <time>2026-03-26T13:02:36.000Z</time>
      </trkpt>
      <trkpt lat="46.35326" lon="4.66382">
        <ele>518</ele>
        <time>2026-03-26T13:02:44.000Z</time>
      </trkpt>
      <trkpt lat="46.35326" lon="4.66397">
        <ele>518</ele>
        <time>2026-03-26T13:02:58.000Z</time>
      </trkpt>
      <trkpt lat="46.35327" lon="4.66412">
        <ele>517</ele>
        <time>2026-03-26T13:03:07.000Z</time>
      </trkpt>
      <trkpt lat="46.35328" lon="4.66425">
        <ele>518</ele>
        <time>2026-03-26T13:03:16.000Z</time>
      </trkpt>
      <trkpt lat="46.3533" lon="4.66438">
        <ele>518</ele>
        <time>2026-03-26T13:03:25.000Z</time>
      </trkpt>
      <trkpt lat="46.35334" lon="4.66452">
        <ele>515</ele>
        <time>2026-03-26T13:03:39.000Z</time>
      </trkpt>
      <trkpt lat="46.35332" lon="4.66465">
        <ele>517</ele>
        <time>2026-03-26T13:03:45.000Z</time>
      </trkpt>
      <trkpt lat="46.3533" lon="4.66478">
        <ele>518</ele>
        <time>2026-03-26T13:03:51.000Z</time>
      </trkpt>
      <trkpt lat="46.35326" lon="4.66493">
        <ele>520</ele>
        <time>2026-03-26T13:04:00.000Z</time>
      </trkpt>
      <trkpt lat="46.3532" lon="4.66505">
        <ele>521</ele>
        <time>2026-03-26T13:04:07.000Z</time>
      </trkpt>
      <trkpt lat="46.35314" lon="4.66515">
        <ele>522</ele>
        <time>2026-03-26T13:04:13.000Z</time>
      </trkpt>
      <trkpt lat="46.35308" lon="4.66526">
        <ele>524</ele>
        <time>2026-03-26T13:04:22.000Z</time>
      </trkpt>
      <trkpt lat="46.35302" lon="4.66539">
        <ele>524</ele>
        <time>2026-03-26T13:04:31.000Z</time>
      </trkpt>
      <trkpt lat="46.35298" lon="4.6655">
        <ele>524</ele>
        <time>2026-03-26T13:04:39.000Z</time>
      </trkpt>
      <trkpt lat="46.35292" lon="4.6656">
        <ele>524</ele>
        <time>2026-03-26T13:04:46.000Z</time>
      </trkpt>
      <trkpt lat="46.35283" lon="4.66567">
        <ele>525</ele>
        <time>2026-03-26T13:04:53.000Z</time>
      </trkpt>
      <trkpt lat="46.35276" lon="4.66576">
        <ele>525</ele>
        <time>2026-03-26T13:05:00.000Z</time>
      </trkpt>
      <trkpt lat="46.35269" lon="4.66589">
        <ele>525</ele>
        <time>2026-03-26T13:05:14.000Z</time>
      </trkpt>
      <trkpt lat="46.35263" lon="4.66601">
        <ele>524</ele>
        <time>2026-03-26T13:05:20.000Z</time>
      </trkpt>
      <trkpt lat="46.35256" lon="4.66611">
        <ele>523</ele>
        <time>2026-03-26T13:05:26.000Z</time>
      </trkpt>
      <trkpt lat="46.35251" lon="4.66624">
        <ele>522</ele>
        <time>2026-03-26T13:05:35.000Z</time>
      </trkpt>
      <trkpt lat="46.35246" lon="4.66636">
        <ele>520</ele>
        <time>2026-03-26T13:05:44.000Z</time>
      </trkpt>
      <trkpt lat="46.35239" lon="4.66646">
        <ele>522</ele>
        <time>2026-03-26T13:05:59.000Z</time>
      </trkpt>
      <trkpt lat="46.35232" lon="4.66657">
        <ele>521</ele>
        <time>2026-03-26T13:06:07.000Z</time>
      </trkpt>
      <trkpt lat="46.35223" lon="4.66665">
        <ele>520</ele>
        <time>2026-03-26T13:06:16.000Z</time>
      </trkpt>
      <trkpt lat="46.35217" lon="4.66676">
        <ele>521</ele>
        <time>2026-03-26T13:06:25.000Z</time>
      </trkpt>
      <trkpt lat="46.35212" lon="4.66689">
        <ele>522</ele>
        <time>2026-03-26T13:06:34.000Z</time>
      </trkpt>
      <trkpt lat="46.35206" lon="4.667">
        <ele>522</ele>
        <time>2026-03-26T13:06:43.000Z</time>
      </trkpt>
      <trkpt lat="46.35201" lon="4.66711">
        <ele>522</ele>
        <time>2026-03-26T13:06:54.000Z</time>
      </trkpt>
      <trkpt lat="46.35194" lon="4.66719">
        <ele>523</ele>
        <time>2026-03-26T13:07:03.000Z</time>
      </trkpt>
      <trkpt lat="46.35187" lon="4.66729">
        <ele>525</ele>
        <time>2026-03-26T13:07:13.000Z</time>
      </trkpt>
      <trkpt lat="46.3518" lon="4.66739">
        <ele>525</ele>
        <time>2026-03-26T13:07:25.000Z</time>
      </trkpt>
      <trkpt lat="46.3517" lon="4.66747">
        <ele>527</ele>
        <time>2026-03-26T13:07:34.000Z</time>
      </trkpt>
      <trkpt lat="46.35162" lon="4.66755">
        <ele>527</ele>
        <time>2026-03-26T13:07:43.000Z</time>
      </trkpt>
      <trkpt lat="46.35153" lon="4.66764">
        <ele>528</ele>
        <time>2026-03-26T13:07:53.000Z</time>
      </trkpt>
      <trkpt lat="46.35144" lon="4.66771">
        <ele>529</ele>
        <time>2026-03-26T13:08:03.000Z</time>
      </trkpt>
      <trkpt lat="46.35135" lon="4.66779">
        <ele>530</ele>
        <time>2026-03-26T13:08:13.000Z</time>
      </trkpt>
      <trkpt lat="46.35126" lon="4.66785">
        <ele>531</ele>
        <time>2026-03-26T13:08:21.000Z</time>
      </trkpt>
      <trkpt lat="46.35119" lon="4.66793">
        <ele>530</ele>
        <time>2026-03-26T13:08:59.000Z</time>
      </trkpt>
      <trkpt lat="46.35111" lon="4.66801">
        <ele>529</ele>
        <time>2026-03-26T13:09:14.000Z</time>
      </trkpt>
      <trkpt lat="46.35103" lon="4.66808">
        <ele>527</ele>
        <time>2026-03-26T13:09:23.000Z</time>
      </trkpt>
      <trkpt lat="46.35095" lon="4.66816">
        <ele>525</ele>
        <time>2026-03-26T13:09:31.000Z</time>
      </trkpt>
      <trkpt lat="46.35088" lon="4.66825">
        <ele>524</ele>
        <time>2026-03-26T13:09:40.000Z</time>
      </trkpt>
      <trkpt lat="46.35082" lon="4.66834">
        <ele>523</ele>
        <time>2026-03-26T13:09:48.000Z</time>
      </trkpt>
      <trkpt lat="46.35073" lon="4.66841">
        <ele>523</ele>
        <time>2026-03-26T13:09:59.000Z</time>
      </trkpt>
      <trkpt lat="46.35065" lon="4.66848">
        <ele>522</ele>
        <time>2026-03-26T13:10:08.000Z</time>
      </trkpt>
      <trkpt lat="46.35057" lon="4.66854">
        <ele>522</ele>
        <time>2026-03-26T13:10:18.000Z</time>
      </trkpt>
      <trkpt lat="46.35048" lon="4.66861">
        <ele>522</ele>
        <time>2026-03-26T13:10:26.000Z</time>
      </trkpt>
      <trkpt lat="46.3504" lon="4.66865">
        <ele>521</ele>
        <time>2026-03-26T13:10:32.000Z</time>
      </trkpt>
      <trkpt lat="46.35032" lon="4.6687">
        <ele>521</ele>
        <time>2026-03-26T13:10:40.000Z</time>
      </trkpt>
      <trkpt lat="46.35022" lon="4.6687">
        <ele>520</ele>
        <time>2026-03-26T13:10:49.000Z</time>
      </trkpt>
      <trkpt lat="46.35012" lon="4.66869">
        <ele>520</ele>
        <time>2026-03-26T13:10:57.000Z</time>
      </trkpt>
      <trkpt lat="46.35001" lon="4.66868">
        <ele>518</ele>
        <time>2026-03-26T13:11:07.000Z</time>
      </trkpt>
      <trkpt lat="46.34991" lon="4.66869">
        <ele>518</ele>
        <time>2026-03-26T13:11:15.000Z</time>
      </trkpt>
      <trkpt lat="46.3498" lon="4.66869">
        <ele>516</ele>
        <time>2026-03-26T13:11:24.000Z</time>
      </trkpt>
      <trkpt lat="46.34969" lon="4.66871">
        <ele>516</ele>
        <time>2026-03-26T13:11:34.000Z</time>
      </trkpt>
      <trkpt lat="46.3496" lon="4.66874">
        <ele>515</ele>
        <time>2026-03-26T13:11:49.000Z</time>
      </trkpt>
      <trkpt lat="46.3495" lon="4.66877">
        <ele>514</ele>
        <time>2026-03-26T13:11:57.000Z</time>
      </trkpt>
      <trkpt lat="46.3494" lon="4.66882">
        <ele>513</ele>
        <time>2026-03-26T13:12:05.000Z</time>
      </trkpt>
      <trkpt lat="46.3493" lon="4.66886">
        <ele>511</ele>
        <time>2026-03-26T13:12:14.000Z</time>
      </trkpt>
      <trkpt lat="46.34922" lon="4.66894">
        <ele>509</ele>
        <time>2026-03-26T13:12:22.000Z</time>
      </trkpt>
      <trkpt lat="46.34916" lon="4.66904">
        <ele>506</ele>
        <time>2026-03-26T13:12:37.000Z</time>
      </trkpt>
      <trkpt lat="46.34916" lon="4.66918">
        <ele>504</ele>
        <time>2026-03-26T13:12:48.000Z</time>
      </trkpt>
      <trkpt lat="46.34921" lon="4.6693">
        <ele>502</ele>
        <time>2026-03-26T13:12:56.000Z</time>
      </trkpt>
      <trkpt lat="46.34929" lon="4.6694">
        <ele>503</ele>
        <time>2026-03-26T13:13:05.000Z</time>
      </trkpt>
      <trkpt lat="46.34935" lon="4.6695">
        <ele>501</ele>
        <time>2026-03-26T13:13:13.000Z</time>
      </trkpt>
      <trkpt lat="46.34942" lon="4.66962">
        <ele>499</ele>
        <time>2026-03-26T13:13:25.000Z</time>
      </trkpt>
      <trkpt lat="46.34948" lon="4.66974">
        <ele>497</ele>
        <time>2026-03-26T13:13:35.000Z</time>
      </trkpt>
      <trkpt lat="46.34953" lon="4.66985">
        <ele>495</ele>
        <time>2026-03-26T13:13:44.000Z</time>
      </trkpt>
      <trkpt lat="46.34959" lon="4.66995">
        <ele>494</ele>
        <time>2026-03-26T13:13:54.000Z</time>
      </trkpt>
      <trkpt lat="46.34962" lon="4.67007">
        <ele>491</ele>
        <time>2026-03-26T13:14:06.000Z</time>
      </trkpt>
      <trkpt lat="46.34965" lon="4.6702">
        <ele>490</ele>
        <time>2026-03-26T13:14:18.000Z</time>
      </trkpt>
      <trkpt lat="46.34969" lon="4.67034">
        <ele>488</ele>
        <time>2026-03-26T13:14:28.000Z</time>
      </trkpt>
      <trkpt lat="46.34974" lon="4.67046">
        <ele>485</ele>
        <time>2026-03-26T13:14:38.000Z</time>
      </trkpt>
      <trkpt lat="46.34978" lon="4.67059">
        <ele>483</ele>
        <time>2026-03-26T13:14:49.000Z</time>
      </trkpt>
      <trkpt lat="46.34982" lon="4.67074">
        <ele>480</ele>
        <time>2026-03-26T13:14:59.000Z</time>
      </trkpt>
      <trkpt lat="46.34982" lon="4.67087">
        <ele>478</ele>
        <time>2026-03-26T13:15:09.000Z</time>
      </trkpt>
      <trkpt lat="46.34978" lon="4.67101">
        <ele>476</ele>
        <time>2026-03-26T13:15:22.000Z</time>
      </trkpt>
      <trkpt lat="46.34974" lon="4.67114">
        <ele>474</ele>
        <time>2026-03-26T13:15:33.000Z</time>
      </trkpt>
      <trkpt lat="46.3497" lon="4.67126">
        <ele>473</ele>
        <time>2026-03-26T13:15:41.000Z</time>
      </trkpt>
      <trkpt lat="46.34966" lon="4.67139">
        <ele>472</ele>
        <time>2026-03-26T13:15:50.000Z</time>
      </trkpt>
      <trkpt lat="46.34959" lon="4.6715">
        <ele>472</ele>
        <time>2026-03-26T13:15:58.000Z</time>
      </trkpt>
      <trkpt lat="46.34951" lon="4.6716">
        <ele>471</ele>
        <time>2026-03-26T13:16:07.000Z</time>
      </trkpt>
      <trkpt lat="46.34946" lon="4.67169">
        <ele>472</ele>
        <time>2026-03-26T13:16:37.000Z</time>
      </trkpt>
      <trkpt lat="46.34949" lon="4.67183">
        <ele>472</ele>
        <time>2026-03-26T13:17:11.000Z</time>
      </trkpt>
      <trkpt lat="46.34952" lon="4.67197">
        <ele>471</ele>
        <time>2026-03-26T13:17:19.000Z</time>
      </trkpt>
      <trkpt lat="46.34951" lon="4.67211">
        <ele>471</ele>
        <time>2026-03-26T13:17:25.000Z</time>
      </trkpt>
      <trkpt lat="46.34952" lon="4.67226">
        <ele>472</ele>
        <time>2026-03-26T13:17:34.000Z</time>
      </trkpt>
      <trkpt lat="46.34953" lon="4.67241">
        <ele>472</ele>
        <time>2026-03-26T13:17:42.000Z</time>
      </trkpt>
      <trkpt lat="46.34952" lon="4.67257">
        <ele>473</ele>
        <time>2026-03-26T13:17:51.000Z</time>
      </trkpt>
      <trkpt lat="46.34952" lon="4.6727">
        <ele>474</ele>
        <time>2026-03-26T13:17:57.000Z</time>
      </trkpt>
      <trkpt lat="46.34954" lon="4.67284">
        <ele>474</ele>
        <time>2026-03-26T13:18:04.000Z</time>
      </trkpt>
      <trkpt lat="46.34955" lon="4.67299">
        <ele>473</ele>
        <time>2026-03-26T13:18:12.000Z</time>
      </trkpt>
      <trkpt lat="46.34954" lon="4.67315">
        <ele>474</ele>
        <time>2026-03-26T13:18:20.000Z</time>
      </trkpt>
      <trkpt lat="46.34951" lon="4.6733">
        <ele>474</ele>
        <time>2026-03-26T13:18:29.000Z</time>
      </trkpt>
      <trkpt lat="46.34947" lon="4.67342">
        <ele>474</ele>
        <time>2026-03-26T13:18:35.000Z</time>
      </trkpt>
      <trkpt lat="46.3494" lon="4.67354">
        <ele>473</ele>
        <time>2026-03-26T13:18:44.000Z</time>
      </trkpt>
      <trkpt lat="46.34934" lon="4.67366">
        <ele>474</ele>
        <time>2026-03-26T13:18:52.000Z</time>
      </trkpt>
      <trkpt lat="46.34929" lon="4.67377">
        <ele>476</ele>
        <time>2026-03-26T13:19:00.000Z</time>
      </trkpt>
      <trkpt lat="46.34924" lon="4.67389">
        <ele>475</ele>
        <time>2026-03-26T13:19:09.000Z</time>
      </trkpt>
      <trkpt lat="46.34921" lon="4.67401">
        <ele>474</ele>
        <time>2026-03-26T13:19:17.000Z</time>
      </trkpt>
      <trkpt lat="46.34916" lon="4.67412">
        <ele>474</ele>
        <time>2026-03-26T13:19:25.000Z</time>
      </trkpt>
      <trkpt lat="46.3491" lon="4.67421">
        <ele>475</ele>
        <time>2026-03-26T13:19:31.000Z</time>
      </trkpt>
      <trkpt lat="46.34903" lon="4.67432">
        <ele>475</ele>
        <time>2026-03-26T13:19:38.000Z</time>
      </trkpt>
      <trkpt lat="46.34899" lon="4.67445">
        <ele>474</ele>
        <time>2026-03-26T13:19:46.000Z</time>
      </trkpt>
      <trkpt lat="46.34899" lon="4.67458">
        <ele>473</ele>
        <time>2026-03-26T13:19:54.000Z</time>
      </trkpt>
      <trkpt lat="46.34895" lon="4.6747">
        <ele>472</ele>
        <time>2026-03-26T13:20:04.000Z</time>
      </trkpt>
      <trkpt lat="46.34892" lon="4.67482">
        <ele>472</ele>
        <time>2026-03-26T13:20:13.000Z</time>
      </trkpt>
      <trkpt lat="46.34898" lon="4.67493">
        <ele>468</ele>
        <time>2026-03-26T13:20:17.000Z</time>
      </trkpt>
      <trkpt lat="46.349" lon="4.67506">
        <ele>465</ele>
        <time>2026-03-26T13:20:24.000Z</time>
      </trkpt>
      <trkpt lat="46.34896" lon="4.67519">
        <ele>463</ele>
        <time>2026-03-26T13:20:32.000Z</time>
      </trkpt>
      <trkpt lat="46.34891" lon="4.67531">
        <ele>462</ele>
        <time>2026-03-26T13:20:40.000Z</time>
      </trkpt>
      <trkpt lat="46.34886" lon="4.67544">
        <ele>462</ele>
        <time>2026-03-26T13:20:49.000Z</time>
      </trkpt>
      <trkpt lat="46.34883" lon="4.67557">
        <ele>462</ele>
        <time>2026-03-26T13:20:58.000Z</time>
      </trkpt>
      <trkpt lat="46.3488" lon="4.6757">
        <ele>463</ele>
        <time>2026-03-26T13:21:06.000Z</time>
      </trkpt>
      <trkpt lat="46.34878" lon="4.67583">
        <ele>461</ele>
        <time>2026-03-26T13:21:14.000Z</time>
      </trkpt>
      <trkpt lat="46.34875" lon="4.67595">
        <ele>461</ele>
        <time>2026-03-26T13:21:23.000Z</time>
      </trkpt>
      <trkpt lat="46.34873" lon="4.67607">
        <ele>461</ele>
        <time>2026-03-26T13:21:31.000Z</time>
      </trkpt>
      <trkpt lat="46.34874" lon="4.67622">
        <ele>458</ele>
        <time>2026-03-26T13:21:41.000Z</time>
      </trkpt>
      <trkpt lat="46.34874" lon="4.67636">
        <ele>454</ele>
        <time>2026-03-26T13:21:49.000Z</time>
      </trkpt>
      <trkpt lat="46.3487" lon="4.67647">
        <ele>452</ele>
        <time>2026-03-26T13:21:58.000Z</time>
      </trkpt>
      <trkpt lat="46.34862" lon="4.67654">
        <ele>450</ele>
        <time>2026-03-26T13:22:06.000Z</time>
      </trkpt>
      <trkpt lat="46.34854" lon="4.67653">
        <ele>450</ele>
        <time>2026-03-26T13:22:19.000Z</time>
      </trkpt>
      <trkpt lat="46.34844" lon="4.67648">
        <ele>450</ele>
        <time>2026-03-26T13:22:28.000Z</time>
      </trkpt>
      <trkpt lat="46.34836" lon="4.67638">
        <ele>452</ele>
        <time>2026-03-26T13:22:36.000Z</time>
      </trkpt>
      <trkpt lat="46.3483" lon="4.67627">
        <ele>457</ele>
        <time>2026-03-26T13:22:47.000Z</time>
      </trkpt>
      <trkpt lat="46.34822" lon="4.67624">
        <ele>457</ele>
        <time>2026-03-26T13:22:53.000Z</time>
      </trkpt>
      <trkpt lat="46.34813" lon="4.67624">
        <ele>457</ele>
        <time>2026-03-26T13:23:00.000Z</time>
      </trkpt>
      <trkpt lat="46.3481" lon="4.67637">
        <ele>450</ele>
        <time>2026-03-26T13:23:04.000Z</time>
      </trkpt>
      <trkpt lat="46.34805" lon="4.6765">
        <ele>446</ele>
        <time>2026-03-26T13:23:10.000Z</time>
      </trkpt>
      <trkpt lat="46.34798" lon="4.6766">
        <ele>443</ele>
        <time>2026-03-26T13:23:19.000Z</time>
      </trkpt>
      <trkpt lat="46.34791" lon="4.67671">
        <ele>441</ele>
        <time>2026-03-26T13:23:29.000Z</time>
      </trkpt>
      <trkpt lat="46.34783" lon="4.67682">
        <ele>439</ele>
        <time>2026-03-26T13:23:37.000Z</time>
      </trkpt>
      <trkpt lat="46.34777" lon="4.67691">
        <ele>438</ele>
        <time>2026-03-26T13:23:46.000Z</time>
      </trkpt>
      <trkpt lat="46.34772" lon="4.67702">
        <ele>438</ele>
        <time>2026-03-26T13:23:54.000Z</time>
      </trkpt>
      <trkpt lat="46.34769" lon="4.67716">
        <ele>436</ele>
        <time>2026-03-26T13:24:05.000Z</time>
      </trkpt>
      <trkpt lat="46.34767" lon="4.67731">
        <ele>436</ele>
        <time>2026-03-26T13:24:14.000Z</time>
      </trkpt>
      <trkpt lat="46.34764" lon="4.67745">
        <ele>436</ele>
        <time>2026-03-26T13:24:25.000Z</time>
      </trkpt>
      <trkpt lat="46.34764" lon="4.67756">
        <ele>436</ele>
        <time>2026-03-26T13:24:35.000Z</time>
      </trkpt>
      <trkpt lat="46.34771" lon="4.67756">
        <ele>434</ele>
        <time>2026-03-26T13:24:53.000Z</time>
      </trkpt>
      <trkpt lat="46.34772" lon="4.67768">
        <ele>433</ele>
        <time>2026-03-26T13:25:14.000Z</time>
      </trkpt>
      <trkpt lat="46.34775" lon="4.67783">
        <ele>434</ele>
        <time>2026-03-26T13:25:20.000Z</time>
      </trkpt>
      <trkpt lat="46.3478" lon="4.67796">
        <ele>434</ele>
        <time>2026-03-26T13:25:25.000Z</time>
      </trkpt>
      <trkpt lat="46.34785" lon="4.67807">
        <ele>432</ele>
        <time>2026-03-26T13:25:31.000Z</time>
      </trkpt>
      <trkpt lat="46.34791" lon="4.67818">
        <ele>432</ele>
        <time>2026-03-26T13:25:37.000Z</time>
      </trkpt>
      <trkpt lat="46.34797" lon="4.67829">
        <ele>432</ele>
        <time>2026-03-26T13:25:43.000Z</time>
      </trkpt>
      <trkpt lat="46.34803" lon="4.67839">
        <ele>432</ele>
        <time>2026-03-26T13:25:48.000Z</time>
      </trkpt>
      <trkpt lat="46.34808" lon="4.67852">
        <ele>433</ele>
        <time>2026-03-26T13:25:56.000Z</time>
      </trkpt>
      <trkpt lat="46.34812" lon="4.67865">
        <ele>433</ele>
        <time>2026-03-26T13:26:04.000Z</time>
      </trkpt>
      <trkpt lat="46.34816" lon="4.67878">
        <ele>433</ele>
        <time>2026-03-26T13:26:12.000Z</time>
      </trkpt>
      <trkpt lat="46.34821" lon="4.67892">
        <ele>433</ele>
        <time>2026-03-26T13:26:19.000Z</time>
      </trkpt>
      <trkpt lat="46.34823" lon="4.67906">
        <ele>434</ele>
        <time>2026-03-26T13:26:27.000Z</time>
      </trkpt>
      <trkpt lat="46.34827" lon="4.67919">
        <ele>434</ele>
        <time>2026-03-26T13:26:33.000Z</time>
      </trkpt>
      <trkpt lat="46.34834" lon="4.6793">
        <ele>434</ele>
        <time>2026-03-26T13:26:42.000Z</time>
      </trkpt>
      <trkpt lat="46.3484" lon="4.6794">
        <ele>433</ele>
        <time>2026-03-26T13:27:02.000Z</time>
      </trkpt>
      <trkpt lat="46.34848" lon="4.67943">
        <ele>432</ele>
        <time>2026-03-26T13:28:01.000Z</time>
      </trkpt>
      <trkpt lat="46.34857" lon="4.67949">
        <ele>430</ele>
        <time>2026-03-26T13:29:05.000Z</time>
      </trkpt>
      <trkpt lat="46.34865" lon="4.67955">
        <ele>428</ele>
        <time>2026-03-26T13:29:13.000Z</time>
      </trkpt>
      <trkpt lat="46.34874" lon="4.67962">
        <ele>426</ele>
        <time>2026-03-26T13:29:21.000Z</time>
      </trkpt>
      <trkpt lat="46.34877" lon="4.67975">
        <ele>425</ele>
        <time>2026-03-26T13:29:30.000Z</time>
      </trkpt>
      <trkpt lat="46.34878" lon="4.6799">
        <ele>423</ele>
        <time>2026-03-26T13:29:38.000Z</time>
      </trkpt>
      <trkpt lat="46.3488" lon="4.68004">
        <ele>421</ele>
        <time>2026-03-26T13:29:46.000Z</time>
      </trkpt>
      <trkpt lat="46.34882" lon="4.68012">
        <ele>420</ele>
        <time>2026-03-26T13:29:58.000Z</time>
      </trkpt>
      <trkpt lat="46.34888" lon="4.67995">
        <ele>421</ele>
        <time>2026-03-26T13:30:03.000Z</time>
      </trkpt>
      <trkpt lat="46.34879" lon="4.68008">
        <ele>420</ele>
        <time>2026-03-26T13:31:16.000Z</time>
      </trkpt>
      <trkpt lat="46.34875" lon="4.68021">
        <ele>420</ele>
        <time>2026-03-26T13:31:20.000Z</time>
      </trkpt>
      <trkpt lat="46.34875" lon="4.68032">
        <ele>420</ele>
        <time>2026-03-26T13:31:26.000Z</time>
      </trkpt>
      <trkpt lat="46.34894" lon="4.68033">
        <ele>416</ele>
        <time>2026-03-26T13:31:28.000Z</time>
      </trkpt>
      <trkpt lat="46.34908" lon="4.68038">
        <ele>415</ele>
        <time>2026-03-26T13:31:32.000Z</time>
      </trkpt>
      <trkpt lat="46.34915" lon="4.68049">
        <ele>413</ele>
        <time>2026-03-26T13:31:38.000Z</time>
      </trkpt>
      <trkpt lat="46.34919" lon="4.6806">
        <ele>412</ele>
        <time>2026-03-26T13:31:44.000Z</time>
      </trkpt>
      <trkpt lat="46.34925" lon="4.6807">
        <ele>411</ele>
        <time>2026-03-26T13:31:51.000Z</time>
      </trkpt>
      <trkpt lat="46.34933" lon="4.68078">
        <ele>409</ele>
        <time>2026-03-26T13:31:59.000Z</time>
      </trkpt>
      <trkpt lat="46.34941" lon="4.68085">
        <ele>408</ele>
        <time>2026-03-26T13:32:07.000Z</time>
      </trkpt>
      <trkpt lat="46.34949" lon="4.68092">
        <ele>406</ele>
        <time>2026-03-26T13:32:15.000Z</time>
      </trkpt>
      <trkpt lat="46.34956" lon="4.68102">
        <ele>405</ele>
        <time>2026-03-26T13:32:25.000Z</time>
      </trkpt>
      <trkpt lat="46.34962" lon="4.68114">
        <ele>404</ele>
        <time>2026-03-26T13:32:35.000Z</time>
      </trkpt>
      <trkpt lat="46.34967" lon="4.68126">
        <ele>402</ele>
        <time>2026-03-26T13:32:43.000Z</time>
      </trkpt>
      <trkpt lat="46.34973" lon="4.68137">
        <ele>400</ele>
        <time>2026-03-26T13:32:53.000Z</time>
      </trkpt>
      <trkpt lat="46.34979" lon="4.68149">
        <ele>399</ele>
        <time>2026-03-26T13:33:03.000Z</time>
      </trkpt>
      <trkpt lat="46.34983" lon="4.68162">
        <ele>399</ele>
        <time>2026-03-26T13:33:14.000Z</time>
      </trkpt>
      <trkpt lat="46.34987" lon="4.68176">
        <ele>398</ele>
        <time>2026-03-26T13:33:24.000Z</time>
      </trkpt>
      <trkpt lat="46.34991" lon="4.68188">
        <ele>397</ele>
        <time>2026-03-26T13:33:35.000Z</time>
      </trkpt>
      <trkpt lat="46.34999" lon="4.68195">
        <ele>396</ele>
        <time>2026-03-26T13:33:43.000Z</time>
      </trkpt>
      <trkpt lat="46.35008" lon="4.68196">
        <ele>395</ele>
        <time>2026-03-26T13:33:49.000Z</time>
      </trkpt>
      <trkpt lat="46.35015" lon="4.68205">
        <ele>394</ele>
        <time>2026-03-26T13:33:58.000Z</time>
      </trkpt>
      <trkpt lat="46.35019" lon="4.68218">
        <ele>393</ele>
        <time>2026-03-26T13:34:08.000Z</time>
      </trkpt>
      <trkpt lat="46.35023" lon="4.6823">
        <ele>393</ele>
        <time>2026-03-26T13:34:18.000Z</time>
      </trkpt>
      <trkpt lat="46.35029" lon="4.68242">
        <ele>392</ele>
        <time>2026-03-26T13:34:28.000Z</time>
      </trkpt>
      <trkpt lat="46.35035" lon="4.68252">
        <ele>392</ele>
        <time>2026-03-26T13:34:37.000Z</time>
      </trkpt>
      <trkpt lat="46.35042" lon="4.68263">
        <ele>391</ele>
        <time>2026-03-26T13:34:48.000Z</time>
      </trkpt>
      <trkpt lat="46.35047" lon="4.68274">
        <ele>391</ele>
        <time>2026-03-26T13:34:56.000Z</time>
      </trkpt>
      <trkpt lat="46.35054" lon="4.68285">
        <ele>390</ele>
        <time>2026-03-26T13:35:05.000Z</time>
      </trkpt>
      <trkpt lat="46.35061" lon="4.68294">
        <ele>389</ele>
        <time>2026-03-26T13:35:13.000Z</time>
      </trkpt>
      <trkpt lat="46.35068" lon="4.68302">
        <ele>388</ele>
        <time>2026-03-26T13:35:20.000Z</time>
      </trkpt>
      <trkpt lat="46.35075" lon="4.68312">
        <ele>387</ele>
        <time>2026-03-26T13:35:28.000Z</time>
      </trkpt>
      <trkpt lat="46.35084" lon="4.68319">
        <ele>386</ele>
        <time>2026-03-26T13:35:36.000Z</time>
      </trkpt>
      <trkpt lat="46.35093" lon="4.68324">
        <ele>386</ele>
        <time>2026-03-26T13:35:45.000Z</time>
      </trkpt>
      <trkpt lat="46.351" lon="4.68332">
        <ele>385</ele>
        <time>2026-03-26T13:35:53.000Z</time>
      </trkpt>
      <trkpt lat="46.35105" lon="4.68345">
        <ele>385</ele>
        <time>2026-03-26T13:36:03.000Z</time>
      </trkpt>
      <trkpt lat="46.35108" lon="4.68358">
        <ele>386</ele>
        <time>2026-03-26T13:36:12.000Z</time>
      </trkpt>
      <trkpt lat="46.35115" lon="4.68369">
        <ele>385</ele>
        <time>2026-03-26T13:36:24.000Z</time>
      </trkpt>
      <trkpt lat="46.35119" lon="4.68381">
        <ele>386</ele>
        <time>2026-03-26T13:36:32.000Z</time>
      </trkpt>
      <trkpt lat="46.35122" lon="4.68396">
        <ele>387</ele>
        <time>2026-03-26T13:36:41.000Z</time>
      </trkpt>
      <trkpt lat="46.35125" lon="4.68409">
        <ele>389</ele>
        <time>2026-03-26T13:36:50.000Z</time>
      </trkpt>
      <trkpt lat="46.35127" lon="4.68422">
        <ele>390</ele>
        <time>2026-03-26T13:36:59.000Z</time>
      </trkpt>
      <trkpt lat="46.35131" lon="4.68433">
        <ele>390</ele>
        <time>2026-03-26T13:37:07.000Z</time>
      </trkpt>
      <trkpt lat="46.35136" lon="4.68445">
        <ele>388</ele>
        <time>2026-03-26T13:37:16.000Z</time>
      </trkpt>
      <trkpt lat="46.3514" lon="4.68459">
        <ele>390</ele>
        <time>2026-03-26T13:37:24.000Z</time>
      </trkpt>
      <trkpt lat="46.35144" lon="4.68475">
        <ele>391</ele>
        <time>2026-03-26T13:38:03.000Z</time>
      </trkpt>
      <trkpt lat="46.3515" lon="4.68488">
        <ele>390</ele>
        <time>2026-03-26T13:38:13.000Z</time>
      </trkpt>
      <trkpt lat="46.35155" lon="4.68499">
        <ele>391</ele>
        <time>2026-03-26T13:38:20.000Z</time>
      </trkpt>
      <trkpt lat="46.35161" lon="4.68509">
        <ele>391</ele>
        <time>2026-03-26T13:38:26.000Z</time>
      </trkpt>
      <trkpt lat="46.35169" lon="4.68516">
        <ele>389</ele>
        <time>2026-03-26T13:38:32.000Z</time>
      </trkpt>
      <trkpt lat="46.35175" lon="4.68526">
        <ele>390</ele>
        <time>2026-03-26T13:38:38.000Z</time>
      </trkpt>
      <trkpt lat="46.35181" lon="4.68537">
        <ele>388</ele>
        <time>2026-03-26T13:38:46.000Z</time>
      </trkpt>
      <trkpt lat="46.35188" lon="4.68548">
        <ele>388</ele>
        <time>2026-03-26T13:38:54.000Z</time>
      </trkpt>
      <trkpt lat="46.35195" lon="4.68559">
        <ele>388</ele>
        <time>2026-03-26T13:39:03.000Z</time>
      </trkpt>
      <trkpt lat="46.35202" lon="4.68568">
        <ele>389</ele>
        <time>2026-03-26T13:39:11.000Z</time>
      </trkpt>
      <trkpt lat="46.35209" lon="4.68578">
        <ele>388</ele>
        <time>2026-03-26T13:39:19.000Z</time>
      </trkpt>
      <trkpt lat="46.35216" lon="4.68588">
        <ele>387</ele>
        <time>2026-03-26T13:39:27.000Z</time>
      </trkpt>
      <trkpt lat="46.35223" lon="4.68598">
        <ele>387</ele>
        <time>2026-03-26T13:39:35.000Z</time>
      </trkpt>
      <trkpt lat="46.35232" lon="4.68608">
        <ele>389</ele>
        <time>2026-03-26T13:39:45.000Z</time>
      </trkpt>
      <trkpt lat="46.35241" lon="4.68616">
        <ele>386</ele>
        <time>2026-03-26T13:39:54.000Z</time>
      </trkpt>
      <trkpt lat="46.3525" lon="4.68624">
        <ele>386</ele>
        <time>2026-03-26T13:40:02.000Z</time>
      </trkpt>
      <trkpt lat="46.35257" lon="4.68633">
        <ele>385</ele>
        <time>2026-03-26T13:40:10.000Z</time>
      </trkpt>
      <trkpt lat="46.35263" lon="4.68644">
        <ele>387</ele>
        <time>2026-03-26T13:40:19.000Z</time>
      </trkpt>
      <trkpt lat="46.35269" lon="4.68657">
        <ele>390</ele>
        <time>2026-03-26T13:40:27.000Z</time>
      </trkpt>
      <trkpt lat="46.35274" lon="4.68668">
        <ele>388</ele>
        <time>2026-03-26T13:40:35.000Z</time>
      </trkpt>
      <trkpt lat="46.35279" lon="4.68678">
        <ele>388</ele>
        <time>2026-03-26T13:40:44.000Z</time>
      </trkpt>
      <trkpt lat="46.35284" lon="4.6869">
        <ele>387</ele>
        <time>2026-03-26T13:40:54.000Z</time>
      </trkpt>
      <trkpt lat="46.35288" lon="4.68699">
        <ele>386</ele>
        <time>2026-03-26T13:41:31.000Z</time>
      </trkpt>
      <trkpt lat="46.35283" lon="4.68709">
        <ele>385</ele>
        <time>2026-03-26T13:41:38.000Z</time>
      </trkpt>
      <trkpt lat="46.35276" lon="4.6872">
        <ele>385</ele>
        <time>2026-03-26T13:41:47.000Z</time>
      </trkpt>
      <trkpt lat="46.35267" lon="4.68729">
        <ele>386</ele>
        <time>2026-03-26T13:41:55.000Z</time>
      </trkpt>
      <trkpt lat="46.35259" lon="4.68738">
        <ele>387</ele>
        <time>2026-03-26T13:42:03.000Z</time>
      </trkpt>
      <trkpt lat="46.35253" lon="4.68749">
        <ele>386</ele>
        <time>2026-03-26T13:42:11.000Z</time>
      </trkpt>
      <trkpt lat="46.35247" lon="4.6876">
        <ele>385</ele>
        <time>2026-03-26T13:42:18.000Z</time>
      </trkpt>
      <trkpt lat="46.3524" lon="4.68771">
        <ele>385</ele>
        <time>2026-03-26T13:42:26.000Z</time>
      </trkpt>
      <trkpt lat="46.35233" lon="4.68778">
        <ele>384</ele>
        <time>2026-03-26T13:42:32.000Z</time>
      </trkpt>
      <trkpt lat="46.35226" lon="4.68789">
        <ele>384</ele>
        <time>2026-03-26T13:42:40.000Z</time>
      </trkpt>
      <trkpt lat="46.35218" lon="4.68796">
        <ele>384</ele>
        <time>2026-03-26T13:42:49.000Z</time>
      </trkpt>
      <trkpt lat="46.35209" lon="4.68801">
        <ele>384</ele>
        <time>2026-03-26T13:43:06.000Z</time>
      </trkpt>
      <trkpt lat="46.35199" lon="4.68805">
        <ele>385</ele>
        <time>2026-03-26T13:43:13.000Z</time>
      </trkpt>
      <trkpt lat="46.3519" lon="4.68808">
        <ele>385</ele>
        <time>2026-03-26T13:43:20.000Z</time>
      </trkpt>
      <trkpt lat="46.35182" lon="4.68812">
        <ele>385</ele>
        <time>2026-03-26T13:43:30.000Z</time>
      </trkpt>
      <trkpt lat="46.35175" lon="4.6882">
        <ele>384</ele>
        <time>2026-03-26T13:43:39.000Z</time>
      </trkpt>
      <trkpt lat="46.35168" lon="4.68827">
        <ele>384</ele>
        <time>2026-03-26T13:43:47.000Z</time>
      </trkpt>
      <trkpt lat="46.35159" lon="4.68831">
        <ele>384</ele>
        <time>2026-03-26T13:43:56.000Z</time>
      </trkpt>
      <trkpt lat="46.35148" lon="4.68834">
        <ele>385</ele>
        <time>2026-03-26T13:44:04.000Z</time>
      </trkpt>
      <trkpt lat="46.35138" lon="4.68838">
        <ele>385</ele>
        <time>2026-03-26T13:44:13.000Z</time>
      </trkpt>
      <trkpt lat="46.35128" lon="4.68843">
        <ele>385</ele>
        <time>2026-03-26T13:44:21.000Z</time>
      </trkpt>
      <trkpt lat="46.35119" lon="4.68848">
        <ele>385</ele>
        <time>2026-03-26T13:44:29.000Z</time>
      </trkpt>
      <trkpt lat="46.35109" lon="4.68854">
        <ele>385</ele>
        <time>2026-03-26T13:44:38.000Z</time>
      </trkpt>
      <trkpt lat="46.35101" lon="4.6886">
        <ele>383</ele>
        <time>2026-03-26T13:44:44.000Z</time>
      </trkpt>
      <trkpt lat="46.35091" lon="4.68866">
        <ele>383</ele>
        <time>2026-03-26T13:44:54.000Z</time>
      </trkpt>
      <trkpt lat="46.35081" lon="4.68869">
        <ele>382</ele>
        <time>2026-03-26T13:45:02.000Z</time>
      </trkpt>
      <trkpt lat="46.3507" lon="4.68868">
        <ele>384</ele>
        <time>2026-03-26T13:45:11.000Z</time>
      </trkpt>
      <trkpt lat="46.35059" lon="4.68866">
        <ele>384</ele>
        <time>2026-03-26T13:45:20.000Z</time>
      </trkpt>
      <trkpt lat="46.35051" lon="4.68862">
        <ele>387</ele>
        <time>2026-03-26T13:45:26.000Z</time>
      </trkpt>
      <trkpt lat="46.35042" lon="4.68859">
        <ele>388</ele>
        <time>2026-03-26T13:45:36.000Z</time>
      </trkpt>
      <trkpt lat="46.35032" lon="4.68856">
        <ele>389</ele>
        <time>2026-03-26T13:45:44.000Z</time>
      </trkpt>
      <trkpt lat="46.35023" lon="4.68852">
        <ele>390</ele>
        <time>2026-03-26T13:46:03.000Z</time>
      </trkpt>
      <trkpt lat="46.35012" lon="4.68855">
        <ele>390</ele>
        <time>2026-03-26T13:46:14.000Z</time>
      </trkpt>
      <trkpt lat="46.35003" lon="4.6886">
        <ele>388</ele>
        <time>2026-03-26T13:46:20.000Z</time>
      </trkpt>
      <trkpt lat="46.34995" lon="4.68869">
        <ele>387</ele>
        <time>2026-03-26T13:46:29.000Z</time>
      </trkpt>
      <trkpt lat="46.34986" lon="4.68876">
        <ele>386</ele>
        <time>2026-03-26T13:46:37.000Z</time>
      </trkpt>
      <trkpt lat="46.34977" lon="4.68881">
        <ele>386</ele>
        <time>2026-03-26T13:46:45.000Z</time>
      </trkpt>
      <trkpt lat="46.34966" lon="4.68885">
        <ele>386</ele>
        <time>2026-03-26T13:46:54.000Z</time>
      </trkpt>
      <trkpt lat="46.34956" lon="4.68886">
        <ele>385</ele>
        <time>2026-03-26T13:47:02.000Z</time>
      </trkpt>
      <trkpt lat="46.34946" lon="4.68884">
        <ele>385</ele>
        <time>2026-03-26T13:47:10.000Z</time>
      </trkpt>
      <trkpt lat="46.34936" lon="4.68882">
        <ele>385</ele>
        <time>2026-03-26T13:47:18.000Z</time>
      </trkpt>
      <trkpt lat="46.34927" lon="4.6888">
        <ele>385</ele>
        <time>2026-03-26T13:47:27.000Z</time>
      </trkpt>
      <trkpt lat="46.34917" lon="4.68879">
        <ele>385</ele>
        <time>2026-03-26T13:47:35.000Z</time>
      </trkpt>
      <trkpt lat="46.34907" lon="4.68881">
        <ele>385</ele>
        <time>2026-03-26T13:47:43.000Z</time>
      </trkpt>
      <trkpt lat="46.34898" lon="4.68885">
        <ele>384</ele>
        <time>2026-03-26T13:47:52.000Z</time>
      </trkpt>
      <trkpt lat="46.34889" lon="4.68886">
        <ele>383</ele>
        <time>2026-03-26T13:48:00.000Z</time>
      </trkpt>
      <trkpt lat="46.3488" lon="4.68887">
        <ele>384</ele>
        <time>2026-03-26T13:48:07.000Z</time>
      </trkpt>
      <trkpt lat="46.34871" lon="4.6889">
        <ele>384</ele>
        <time>2026-03-26T13:48:15.000Z</time>
      </trkpt>
      <trkpt lat="46.34861" lon="4.68894">
        <ele>383</ele>
        <time>2026-03-26T13:48:23.000Z</time>
      </trkpt>
      <trkpt lat="46.34852" lon="4.68902">
        <ele>381</ele>
        <time>2026-03-26T13:48:31.000Z</time>
      </trkpt>
      <trkpt lat="46.34843" lon="4.68909">
        <ele>380</ele>
        <time>2026-03-26T13:48:39.000Z</time>
      </trkpt>
      <trkpt lat="46.34835" lon="4.68914">
        <ele>380</ele>
        <time>2026-03-26T13:48:45.000Z</time>
      </trkpt>
      <trkpt lat="46.34825" lon="4.68919">
        <ele>379</ele>
        <time>2026-03-26T13:48:53.000Z</time>
      </trkpt>
      <trkpt lat="46.34816" lon="4.68925">
        <ele>378</ele>
        <time>2026-03-26T13:49:02.000Z</time>
      </trkpt>
      <trkpt lat="46.34806" lon="4.68929">
        <ele>378</ele>
        <time>2026-03-26T13:49:11.000Z</time>
      </trkpt>
      <trkpt lat="46.34798" lon="4.68934">
        <ele>378</ele>
        <time>2026-03-26T13:49:19.000Z</time>
      </trkpt>
      <trkpt lat="46.34788" lon="4.68938">
        <ele>376</ele>
        <time>2026-03-26T13:49:27.000Z</time>
      </trkpt>
      <trkpt lat="46.34779" lon="4.68942">
        <ele>376</ele>
        <time>2026-03-26T13:49:35.000Z</time>
      </trkpt>
      <trkpt lat="46.34769" lon="4.68946">
        <ele>376</ele>
        <time>2026-03-26T13:49:43.000Z</time>
      </trkpt>
      <trkpt lat="46.3476" lon="4.68951">
        <ele>376</ele>
        <time>2026-03-26T13:49:52.000Z</time>
      </trkpt>
      <trkpt lat="46.34751" lon="4.68958">
        <ele>376</ele>
        <time>2026-03-26T13:50:00.000Z</time>
      </trkpt>
      <trkpt lat="46.34743" lon="4.68963">
        <ele>375</ele>
        <time>2026-03-26T13:50:08.000Z</time>
      </trkpt>
      <trkpt lat="46.34734" lon="4.68965">
        <ele>375</ele>
        <time>2026-03-26T13:50:14.000Z</time>
      </trkpt>
      <trkpt lat="46.34725" lon="4.68968">
        <ele>374</ele>
        <time>2026-03-26T13:50:20.000Z</time>
      </trkpt>
      <trkpt lat="46.34717" lon="4.68972">
        <ele>375</ele>
        <time>2026-03-26T13:50:26.000Z</time>
      </trkpt>
      <trkpt lat="46.34709" lon="4.68979">
        <ele>374</ele>
        <time>2026-03-26T13:50:33.000Z</time>
      </trkpt>
      <trkpt lat="46.347" lon="4.68987">
        <ele>373</ele>
        <time>2026-03-26T13:50:41.000Z</time>
      </trkpt>
      <trkpt lat="46.34691" lon="4.68993">
        <ele>372</ele>
        <time>2026-03-26T13:50:49.000Z</time>
      </trkpt>
      <trkpt lat="46.34682" lon="4.68997">
        <ele>371</ele>
        <time>2026-03-26T13:50:57.000Z</time>
      </trkpt>
      <trkpt lat="46.34673" lon="4.69003">
        <ele>371</ele>
        <time>2026-03-26T13:51:07.000Z</time>
      </trkpt>
      <trkpt lat="46.34664" lon="4.6901">
        <ele>369</ele>
        <time>2026-03-26T13:51:18.000Z</time>
      </trkpt>
      <trkpt lat="46.34655" lon="4.69014">
        <ele>370</ele>
        <time>2026-03-26T13:51:26.000Z</time>
      </trkpt>
      <trkpt lat="46.34645" lon="4.69015">
        <ele>370</ele>
        <time>2026-03-26T13:51:34.000Z</time>
      </trkpt>
      <trkpt lat="46.34635" lon="4.69017">
        <ele>371</ele>
        <time>2026-03-26T13:51:42.000Z</time>
      </trkpt>
      <trkpt lat="46.34626" lon="4.69021">
        <ele>371</ele>
        <time>2026-03-26T13:51:51.000Z</time>
      </trkpt>
      <trkpt lat="46.34619" lon="4.69028">
        <ele>370</ele>
        <time>2026-03-26T13:51:59.000Z</time>
      </trkpt>
      <trkpt lat="46.34611" lon="4.69035">
        <ele>369</ele>
        <time>2026-03-26T13:52:10.000Z</time>
      </trkpt>
      <trkpt lat="46.34601" lon="4.69035">
        <ele>369</ele>
        <time>2026-03-26T13:52:26.000Z</time>
      </trkpt>
      <trkpt lat="46.3459" lon="4.69036">
        <ele>371</ele>
        <time>2026-03-26T13:52:35.000Z</time>
      </trkpt>
      <trkpt lat="46.3458" lon="4.69039">
        <ele>370</ele>
        <time>2026-03-26T13:52:40.000Z</time>
      </trkpt>
      <trkpt lat="46.34572" lon="4.69042">
        <ele>370</ele>
        <time>2026-03-26T13:52:46.000Z</time>
      </trkpt>
      <trkpt lat="46.34563" lon="4.69045">
        <ele>370</ele>
        <time>2026-03-26T13:52:52.000Z</time>
      </trkpt>
      <trkpt lat="46.34554" lon="4.6905">
        <ele>366</ele>
        <time>2026-03-26T13:52:59.000Z</time>
      </trkpt>
      <trkpt lat="46.34545" lon="4.69054">
        <ele>366</ele>
        <time>2026-03-26T13:53:05.000Z</time>
      </trkpt>
      <trkpt lat="46.34534" lon="4.69055">
        <ele>366</ele>
        <time>2026-03-26T13:53:13.000Z</time>
      </trkpt>
      <trkpt lat="46.34524" lon="4.69056">
        <ele>365</ele>
        <time>2026-03-26T13:53:21.000Z</time>
      </trkpt>
      <trkpt lat="46.34515" lon="4.69063">
        <ele>364</ele>
        <time>2026-03-26T13:53:29.000Z</time>
      </trkpt>
      <trkpt lat="46.34506" lon="4.69072">
        <ele>361</ele>
        <time>2026-03-26T13:53:37.000Z</time>
      </trkpt>
      <trkpt lat="46.34498" lon="4.6908">
        <ele>362</ele>
        <time>2026-03-26T13:53:45.000Z</time>
      </trkpt>
      <trkpt lat="46.3449" lon="4.69092">
        <ele>362</ele>
        <time>2026-03-26T13:53:53.000Z</time>
      </trkpt>
      <trkpt lat="46.34485" lon="4.69104">
        <ele>360</ele>
        <time>2026-03-26T13:54:03.000Z</time>
      </trkpt>
      <trkpt lat="46.34481" lon="4.69117">
        <ele>361</ele>
        <time>2026-03-26T13:54:11.000Z</time>
      </trkpt>
      <trkpt lat="46.34478" lon="4.69129">
        <ele>361</ele>
        <time>2026-03-26T13:54:21.000Z</time>
      </trkpt>
      <trkpt lat="46.34479" lon="4.69143">
        <ele>361</ele>
        <time>2026-03-26T13:54:29.000Z</time>
      </trkpt>
      <trkpt lat="46.34481" lon="4.69157">
        <ele>360</ele>
        <time>2026-03-26T13:54:39.000Z</time>
      </trkpt>
      <trkpt lat="46.34482" lon="4.6917">
        <ele>360</ele>
        <time>2026-03-26T13:54:45.000Z</time>
      </trkpt>
      <trkpt lat="46.34484" lon="4.69185">
        <ele>359</ele>
        <time>2026-03-26T13:54:54.000Z</time>
      </trkpt>
      <trkpt lat="46.34488" lon="4.69198">
        <ele>358</ele>
        <time>2026-03-26T13:55:02.000Z</time>
      </trkpt>
      <trkpt lat="46.34492" lon="4.6921">
        <ele>358</ele>
        <time>2026-03-26T13:55:10.000Z</time>
      </trkpt>
      <trkpt lat="46.34494" lon="4.69225">
        <ele>358</ele>
        <time>2026-03-26T13:55:18.000Z</time>
      </trkpt>
      <trkpt lat="46.34497" lon="4.69239">
        <ele>357</ele>
        <time>2026-03-26T13:55:26.000Z</time>
      </trkpt>
      <trkpt lat="46.345" lon="4.69252">
        <ele>356</ele>
        <time>2026-03-26T13:55:35.000Z</time>
      </trkpt>
      <trkpt lat="46.34504" lon="4.69266">
        <ele>355</ele>
        <time>2026-03-26T13:55:43.000Z</time>
      </trkpt>
      <trkpt lat="46.34507" lon="4.6928">
        <ele>355</ele>
        <time>2026-03-26T13:55:52.000Z</time>
      </trkpt>
      <trkpt lat="46.34509" lon="4.69293">
        <ele>354</ele>
        <time>2026-03-26T13:56:00.000Z</time>
      </trkpt>
      <trkpt lat="46.34508" lon="4.69305">
        <ele>354</ele>
        <time>2026-03-26T13:56:47.000Z</time>
      </trkpt>
      <trkpt lat="46.34512" lon="4.69316">
        <ele>353</ele>
        <time>2026-03-26T13:56:53.000Z</time>
      </trkpt>
      <trkpt lat="46.34515" lon="4.6933">
        <ele>353</ele>
        <time>2026-03-26T13:57:00.000Z</time>
      </trkpt>
      <trkpt lat="46.34519" lon="4.69343">
        <ele>352</ele>
        <time>2026-03-26T13:57:06.000Z</time>
      </trkpt>
      <trkpt lat="46.34524" lon="4.69357">
        <ele>352</ele>
        <time>2026-03-26T13:57:14.000Z</time>
      </trkpt>
      <trkpt lat="46.34528" lon="4.6937">
        <ele>351</ele>
        <time>2026-03-26T13:57:22.000Z</time>
      </trkpt>
      <trkpt lat="46.34531" lon="4.69382">
        <ele>350</ele>
        <time>2026-03-26T13:57:27.000Z</time>
      </trkpt>
      <trkpt lat="46.34538" lon="4.69391">
        <ele>350</ele>
        <time>2026-03-26T13:57:35.000Z</time>
      </trkpt>
      <trkpt lat="46.34545" lon="4.6939">
        <ele>348</ele>
        <time>2026-03-26T13:57:45.000Z</time>
      </trkpt>
      <trkpt lat="46.34544" lon="4.69399">
        <ele>348</ele>
        <time>2026-03-26T13:58:16.000Z</time>
      </trkpt>
      <trkpt lat="46.34549" lon="4.69411">
        <ele>347</ele>
        <time>2026-03-26T13:58:26.000Z</time>
      </trkpt>
      <trkpt lat="46.34545" lon="4.69431">
        <ele>348</ele>
        <time>2026-03-26T13:58:35.000Z</time>
      </trkpt>
      <trkpt lat="46.34546" lon="4.69448">
        <ele>348</ele>
        <time>2026-03-26T13:58:41.000Z</time>
      </trkpt>
      <trkpt lat="46.34549" lon="4.69461">
        <ele>347</ele>
        <time>2026-03-26T13:58:47.000Z</time>
      </trkpt>
      <trkpt lat="46.34553" lon="4.69473">
        <ele>346</ele>
        <time>2026-03-26T13:58:52.000Z</time>
      </trkpt>
      <trkpt lat="46.34557" lon="4.69488">
        <ele>346</ele>
        <time>2026-03-26T13:59:00.000Z</time>
      </trkpt>
      <trkpt lat="46.3456" lon="4.69503">
        <ele>345</ele>
        <time>2026-03-26T13:59:08.000Z</time>
      </trkpt>
      <trkpt lat="46.34563" lon="4.69517">
        <ele>345</ele>
        <time>2026-03-26T13:59:15.000Z</time>
      </trkpt>
      <trkpt lat="46.34565" lon="4.6953">
        <ele>344</ele>
        <time>2026-03-26T13:59:21.000Z</time>
      </trkpt>
      <trkpt lat="46.34569" lon="4.69541">
        <ele>344</ele>
        <time>2026-03-26T13:59:27.000Z</time>
      </trkpt>
      <trkpt lat="46.34572" lon="4.69553">
        <ele>343</ele>
        <time>2026-03-26T13:59:32.000Z</time>
      </trkpt>
      <trkpt lat="46.34577" lon="4.69564">
        <ele>343</ele>
        <time>2026-03-26T13:59:38.000Z</time>
      </trkpt>
      <trkpt lat="46.34583" lon="4.69574">
        <ele>342</ele>
        <time>2026-03-26T13:59:44.000Z</time>
      </trkpt>
      <trkpt lat="46.34588" lon="4.69586">
        <ele>341</ele>
        <time>2026-03-26T13:59:51.000Z</time>
      </trkpt>
      <trkpt lat="46.34591" lon="4.696">
        <ele>341</ele>
        <time>2026-03-26T13:59:57.000Z</time>
      </trkpt>
      <trkpt lat="46.34595" lon="4.69612">
        <ele>340</ele>
        <time>2026-03-26T14:00:04.000Z</time>
      </trkpt>
      <trkpt lat="46.34597" lon="4.69625">
        <ele>340</ele>
        <time>2026-03-26T14:00:29.000Z</time>
      </trkpt>
      <trkpt lat="46.34604" lon="4.69638">
        <ele>338</ele>
        <time>2026-03-26T14:00:35.000Z</time>
      </trkpt>
      <trkpt lat="46.3461" lon="4.6965">
        <ele>337</ele>
        <time>2026-03-26T14:00:42.000Z</time>
      </trkpt>
      <trkpt lat="46.34616" lon="4.69661">
        <ele>336</ele>
        <time>2026-03-26T14:00:47.000Z</time>
      </trkpt>
      <trkpt lat="46.34623" lon="4.69672">
        <ele>334</ele>
        <time>2026-03-26T14:00:55.000Z</time>
      </trkpt>
      <trkpt lat="46.3463" lon="4.69685">
        <ele>333</ele>
        <time>2026-03-26T14:01:02.000Z</time>
      </trkpt>
      <trkpt lat="46.34636" lon="4.69699">
        <ele>332</ele>
        <time>2026-03-26T14:01:11.000Z</time>
      </trkpt>
      <trkpt lat="46.34642" lon="4.69712">
        <ele>331</ele>
        <time>2026-03-26T14:01:18.000Z</time>
      </trkpt>
      <trkpt lat="46.34647" lon="4.69726">
        <ele>330</ele>
        <time>2026-03-26T14:01:26.000Z</time>
      </trkpt>
      <trkpt lat="46.34653" lon="4.69739">
        <ele>329</ele>
        <time>2026-03-26T14:01:34.000Z</time>
      </trkpt>
      <trkpt lat="46.34658" lon="4.69752">
        <ele>329</ele>
        <time>2026-03-26T14:01:41.000Z</time>
      </trkpt>
      <trkpt lat="46.34665" lon="4.69762">
        <ele>327</ele>
        <time>2026-03-26T14:01:48.000Z</time>
      </trkpt>
      <trkpt lat="46.34673" lon="4.69771">
        <ele>326</ele>
        <time>2026-03-26T14:01:55.000Z</time>
      </trkpt>
      <trkpt lat="46.3468" lon="4.6978">
        <ele>324</ele>
        <time>2026-03-26T14:02:03.000Z</time>
      </trkpt>
      <trkpt lat="46.34686" lon="4.69793">
        <ele>324</ele>
        <time>2026-03-26T14:02:11.000Z</time>
      </trkpt>
      <trkpt lat="46.34693" lon="4.69801">
        <ele>322</ele>
        <time>2026-03-26T14:02:19.000Z</time>
      </trkpt>
      <trkpt lat="46.34702" lon="4.69803">
        <ele>321</ele>
        <time>2026-03-26T14:02:25.000Z</time>
      </trkpt>
      <trkpt lat="46.34712" lon="4.69798">
        <ele>321</ele>
        <time>2026-03-26T14:02:31.000Z</time>
      </trkpt>
      <trkpt lat="46.34723" lon="4.69796">
        <ele>319</ele>
        <time>2026-03-26T14:02:40.000Z</time>
      </trkpt>
      <trkpt lat="46.34733" lon="4.69796">
        <ele>318</ele>
        <time>2026-03-26T14:02:49.000Z</time>
      </trkpt>
      <trkpt lat="46.3474" lon="4.69802">
        <ele>316</ele>
        <time>2026-03-26T14:03:00.000Z</time>
      </trkpt>
      <trkpt lat="46.34736" lon="4.6981">
        <ele>317</ele>
        <time>2026-03-26T14:03:09.000Z</time>
      </trkpt>
      <trkpt lat="46.34735" lon="4.69801">
        <ele>317</ele>
        <time>2026-03-26T14:03:53.000Z</time>
      </trkpt>
      <trkpt lat="46.34741" lon="4.69794">
        <ele>317</ele>
        <time>2026-03-26T14:04:01.000Z</time>
      </trkpt>
      <trkpt lat="46.34748" lon="4.69783">
        <ele>317</ele>
        <time>2026-03-26T14:04:10.000Z</time>
      </trkpt>
      <trkpt lat="46.34757" lon="4.69777">
        <ele>317</ele>
        <time>2026-03-26T14:04:18.000Z</time>
      </trkpt>
      <trkpt lat="46.34766" lon="4.69776">
        <ele>315</ele>
        <time>2026-03-26T14:04:25.000Z</time>
      </trkpt>
      <trkpt lat="46.34777" lon="4.69776">
        <ele>313</ele>
        <time>2026-03-26T14:04:33.000Z</time>
      </trkpt>
      <trkpt lat="46.34787" lon="4.69775">
        <ele>312</ele>
        <time>2026-03-26T14:04:46.000Z</time>
      </trkpt>
      <trkpt lat="46.34796" lon="4.69773">
        <ele>312</ele>
        <time>2026-03-26T14:04:55.000Z</time>
      </trkpt>
      <trkpt lat="46.34806" lon="4.69772">
        <ele>312</ele>
        <time>2026-03-26T14:05:07.000Z</time>
      </trkpt>
      <trkpt lat="46.34815" lon="4.69774">
        <ele>311</ele>
        <time>2026-03-26T14:05:15.000Z</time>
      </trkpt>
      <trkpt lat="46.34826" lon="4.69775">
        <ele>310</ele>
        <time>2026-03-26T14:05:26.000Z</time>
      </trkpt>
      <trkpt lat="46.34836" lon="4.69775">
        <ele>309</ele>
        <time>2026-03-26T14:05:35.000Z</time>
      </trkpt>
      <trkpt lat="46.34847" lon="4.69775">
        <ele>308</ele>
        <time>2026-03-26T14:05:44.000Z</time>
      </trkpt>
      <trkpt lat="46.34858" lon="4.69774">
        <ele>307</ele>
        <time>2026-03-26T14:05:52.000Z</time>
      </trkpt>
      <trkpt lat="46.34868" lon="4.69772">
        <ele>307</ele>
        <time>2026-03-26T14:06:01.000Z</time>
      </trkpt>
      <trkpt lat="46.34877" lon="4.69769">
        <ele>306</ele>
        <time>2026-03-26T14:06:10.000Z</time>
      </trkpt>
      <trkpt lat="46.34887" lon="4.69767">
        <ele>305</ele>
        <time>2026-03-26T14:06:19.000Z</time>
      </trkpt>
      <trkpt lat="46.34896" lon="4.69768">
        <ele>304</ele>
        <time>2026-03-26T14:06:30.000Z</time>
      </trkpt>
      <trkpt lat="46.34904" lon="4.69776">
        <ele>304</ele>
        <time>2026-03-26T14:07:20.000Z</time>
      </trkpt>
      <trkpt lat="46.3491" lon="4.69773">
        <ele>304</ele>
        <time>2026-03-26T14:07:26.000Z</time>
      </trkpt>
      <trkpt lat="46.34912" lon="4.69784">
        <ele>304</ele>
        <time>2026-03-26T14:08:12.000Z</time>
      </trkpt>
      <trkpt lat="46.34912" lon="4.69797">
        <ele>303</ele>
        <time>2026-03-26T14:08:18.000Z</time>
      </trkpt>
      <trkpt lat="46.34908" lon="4.69806">
        <ele>304</ele>
        <time>2026-03-26T14:08:28.000Z</time>
      </trkpt>
      <trkpt lat="46.34915" lon="4.69804">
        <ele>303</ele>
        <time>2026-03-26T14:09:07.000Z</time>
      </trkpt>
      <trkpt lat="46.3492" lon="4.69816">
        <ele>302</ele>
        <time>2026-03-26T14:09:17.000Z</time>
      </trkpt>
      <trkpt lat="46.34926" lon="4.69825">
        <ele>302</ele>
        <time>2026-03-26T14:09:30.000Z</time>
      </trkpt>
      <trkpt lat="46.34924" lon="4.69837">
        <ele>301</ele>
        <time>2026-03-26T14:09:35.000Z</time>
      </trkpt>
      <trkpt lat="46.34921" lon="4.6985">
        <ele>298</ele>
        <time>2026-03-26T14:09:42.000Z</time>
      </trkpt>
      <trkpt lat="46.34922" lon="4.69864">
        <ele>296</ele>
        <time>2026-03-26T14:09:52.000Z</time>
      </trkpt>
      <trkpt lat="46.34922" lon="4.69879">
        <ele>296</ele>
        <time>2026-03-26T14:10:00.000Z</time>
      </trkpt>
      <trkpt lat="46.34925" lon="4.69893">
        <ele>295</ele>
        <time>2026-03-26T14:10:10.000Z</time>
      </trkpt>
      <trkpt lat="46.34925" lon="4.69907">
        <ele>294</ele>
        <time>2026-03-26T14:10:20.000Z</time>
      </trkpt>
      <trkpt lat="46.34927" lon="4.6992">
        <ele>294</ele>
        <time>2026-03-26T14:10:30.000Z</time>
      </trkpt>
      <trkpt lat="46.34925" lon="4.69932">
        <ele>294</ele>
        <time>2026-03-26T14:10:40.000Z</time>
      </trkpt>
      <trkpt lat="46.34922" lon="4.69945">
        <ele>292</ele>
        <time>2026-03-26T14:10:50.000Z</time>
      </trkpt>
      <trkpt lat="46.34917" lon="4.69956">
        <ele>292</ele>
        <time>2026-03-26T14:11:00.000Z</time>
      </trkpt>
      <trkpt lat="46.34913" lon="4.6997">
        <ele>290</ele>
        <time>2026-03-26T14:11:12.000Z</time>
      </trkpt>
      <trkpt lat="46.34915" lon="4.69987">
        <ele>290</ele>
        <time>2026-03-26T14:11:22.000Z</time>
      </trkpt>
      <trkpt lat="46.34919" lon="4.69999">
        <ele>287</ele>
        <time>2026-03-26T14:11:28.000Z</time>
      </trkpt>
      <trkpt lat="46.34919" lon="4.70012">
        <ele>285</ele>
        <time>2026-03-26T14:11:35.000Z</time>
      </trkpt>
      <trkpt lat="46.34918" lon="4.70025">
        <ele>284</ele>
        <time>2026-03-26T14:11:41.000Z</time>
      </trkpt>
      <trkpt lat="46.34916" lon="4.70038">
        <ele>283</ele>
        <time>2026-03-26T14:11:47.000Z</time>
      </trkpt>
      <trkpt lat="46.34915" lon="4.70053">
        <ele>282</ele>
        <time>2026-03-26T14:11:55.000Z</time>
      </trkpt>
      <trkpt lat="46.34914" lon="4.70069">
        <ele>281</ele>
        <time>2026-03-26T14:12:03.000Z</time>
      </trkpt>
      <trkpt lat="46.34913" lon="4.70083">
        <ele>279</ele>
        <time>2026-03-26T14:12:12.000Z</time>
      </trkpt>
      <trkpt lat="46.34916" lon="4.70096">
        <ele>276</ele>
        <time>2026-03-26T14:12:21.000Z</time>
      </trkpt>
      <trkpt lat="46.34916" lon="4.70111">
        <ele>275</ele>
        <time>2026-03-26T14:12:31.000Z</time>
      </trkpt>
      <trkpt lat="46.34915" lon="4.70125">
        <ele>273</ele>
        <time>2026-03-26T14:12:39.000Z</time>
      </trkpt>
      <trkpt lat="46.34916" lon="4.70139">
        <ele>271</ele>
        <time>2026-03-26T14:12:50.000Z</time>
      </trkpt>
      <trkpt lat="46.34918" lon="4.70152">
        <ele>271</ele>
        <time>2026-03-26T14:12:59.000Z</time>
      </trkpt>
      <trkpt lat="46.34918" lon="4.70166">
        <ele>270</ele>
        <time>2026-03-26T14:13:07.000Z</time>
      </trkpt>
      <trkpt lat="46.34916" lon="4.70181">
        <ele>268</ele>
        <time>2026-03-26T14:13:15.000Z</time>
      </trkpt>
      <trkpt lat="46.34914" lon="4.70196">
        <ele>267</ele>
        <time>2026-03-26T14:13:24.000Z</time>
      </trkpt>
      <trkpt lat="46.34915" lon="4.7021">
        <ele>266</ele>
        <time>2026-03-26T14:15:06.000Z</time>
      </trkpt>
      <trkpt lat="46.3492" lon="4.70222">
        <ele>264</ele>
        <time>2026-03-26T14:15:16.000Z</time>
      </trkpt>
      <trkpt lat="46.34926" lon="4.70232">
        <ele>262</ele>
        <time>2026-03-26T14:15:25.000Z</time>
      </trkpt>
      <trkpt lat="46.3493" lon="4.70243">
        <ele>262</ele>
        <time>2026-03-26T14:15:35.000Z</time>
      </trkpt>
      <trkpt lat="46.34928" lon="4.70256">
        <ele>261</ele>
        <time>2026-03-26T14:15:46.000Z</time>
      </trkpt>
      <trkpt lat="46.34929" lon="4.70269">
        <ele>260</ele>
        <time>2026-03-26T14:15:53.000Z</time>
      </trkpt>
      <trkpt lat="46.3493" lon="4.70283">
        <ele>260</ele>
        <time>2026-03-26T14:15:59.000Z</time>
      </trkpt>
      <trkpt lat="46.34931" lon="4.70296">
        <ele>259</ele>
        <time>2026-03-26T14:16:05.000Z</time>
      </trkpt>
      <trkpt lat="46.34933" lon="4.70311">
        <ele>258</ele>
        <time>2026-03-26T14:16:13.000Z</time>
      </trkpt>
      <trkpt lat="46.34933" lon="4.70325">
        <ele>257</ele>
        <time>2026-03-26T14:16:24.000Z</time>
      </trkpt>
      <trkpt lat="46.34929" lon="4.70338">
        <ele>257</ele>
        <time>2026-03-26T14:16:32.000Z</time>
      </trkpt>
      <trkpt lat="46.34928" lon="4.70352">
        <ele>257</ele>
        <time>2026-03-26T14:16:40.000Z</time>
      </trkpt>
      <trkpt lat="46.34928" lon="4.70366">
        <ele>256</ele>
        <time>2026-03-26T14:16:48.000Z</time>
      </trkpt>
      <trkpt lat="46.34927" lon="4.7038">
        <ele>256</ele>
        <time>2026-03-26T14:16:56.000Z</time>
      </trkpt>
      <trkpt lat="46.34927" lon="4.70395">
        <ele>254</ele>
        <time>2026-03-26T14:17:04.000Z</time>
      </trkpt>
      <trkpt lat="46.34929" lon="4.70409">
        <ele>254</ele>
        <time>2026-03-26T14:17:12.000Z</time>
      </trkpt>
      <trkpt lat="46.34932" lon="4.70424">
        <ele>254</ele>
        <time>2026-03-26T14:17:20.000Z</time>
      </trkpt>
      <trkpt lat="46.34938" lon="4.70436">
        <ele>253</ele>
        <time>2026-03-26T14:17:28.000Z</time>
      </trkpt>
      <trkpt lat="46.34944" lon="4.70447">
        <ele>252</ele>
        <time>2026-03-26T14:17:36.000Z</time>
      </trkpt>
      <trkpt lat="46.34949" lon="4.70459">
        <ele>252</ele>
        <time>2026-03-26T14:17:44.000Z</time>
      </trkpt>
      <trkpt lat="46.34952" lon="4.70472">
        <ele>251</ele>
        <time>2026-03-26T14:17:52.000Z</time>
      </trkpt>
      <trkpt lat="46.34955" lon="4.70486">
        <ele>251</ele>
        <time>2026-03-26T14:18:00.000Z</time>
      </trkpt>
      <trkpt lat="46.34958" lon="4.70501">
        <ele>250</ele>
        <time>2026-03-26T14:18:08.000Z</time>
      </trkpt>
      <trkpt lat="46.34962" lon="4.70514">
        <ele>250</ele>
        <time>2026-03-26T14:18:16.000Z</time>
      </trkpt>
      <trkpt lat="46.34963" lon="4.70529">
        <ele>249</ele>
        <time>2026-03-26T14:18:23.000Z</time>
      </trkpt>
      <trkpt lat="46.34964" lon="4.70543">
        <ele>249</ele>
        <time>2026-03-26T14:18:31.000Z</time>
      </trkpt>
      <trkpt lat="46.34969" lon="4.70555">
        <ele>247</ele>
        <time>2026-03-26T14:18:39.000Z</time>
      </trkpt>
      <trkpt lat="46.34977" lon="4.7056">
        <ele>246</ele>
        <time>2026-03-26T14:18:46.000Z</time>
      </trkpt>
      <trkpt lat="46.34987" lon="4.70562">
        <ele>245</ele>
        <time>2026-03-26T14:18:54.000Z</time>
      </trkpt>
      <trkpt lat="46.34996" lon="4.70566">
        <ele>244</ele>
        <time>2026-03-26T14:19:02.000Z</time>
      </trkpt>
      <trkpt lat="46.35007" lon="4.70568">
        <ele>244</ele>
        <time>2026-03-26T14:19:09.000Z</time>
      </trkpt>
      <trkpt lat="46.35015" lon="4.70564">
        <ele>243</ele>
        <time>2026-03-26T14:19:18.000Z</time>
      </trkpt>
      <trkpt lat="46.35021" lon="4.70553">
        <ele>243</ele>
        <time>2026-03-26T14:19:28.000Z</time>
      </trkpt>
      <trkpt lat="46.35025" lon="4.7054">
        <ele>243</ele>
        <time>2026-03-26T14:19:36.000Z</time>
      </trkpt>
      <trkpt lat="46.35027" lon="4.70527">
        <ele>243</ele>
        <time>2026-03-26T14:19:46.000Z</time>
      </trkpt>
      <trkpt lat="46.35032" lon="4.70516">
        <ele>243</ele>
        <time>2026-03-26T14:19:54.000Z</time>
      </trkpt>
      <trkpt lat="46.35037" lon="4.70508">
        <ele>243</ele>
        <time>2026-03-26T14:20:06.000Z</time>
      </trkpt>
      <trkpt lat="46.35039" lon="4.70519">
        <ele>242</ele>
        <time>2026-03-26T14:20:29.000Z</time>
      </trkpt>
      <trkpt lat="46.35037" lon="4.70535">
        <ele>242</ele>
        <time>2026-03-26T14:20:35.000Z</time>
      </trkpt>
      <trkpt lat="46.35035" lon="4.7055">
        <ele>242</ele>
        <time>2026-03-26T14:20:47.000Z</time>
      </trkpt>
      <trkpt lat="46.35037" lon="4.70562">
        <ele>242</ele>
        <time>2026-03-26T14:20:53.000Z</time>
      </trkpt>
      <trkpt lat="46.3504" lon="4.70575">
        <ele>241</ele>
        <time>2026-03-26T14:20:59.000Z</time>
      </trkpt>
      <trkpt lat="46.35045" lon="4.70588">
        <ele>242</ele>
        <time>2026-03-26T14:21:04.000Z</time>
      </trkpt>
      <trkpt lat="46.35047" lon="4.70605">
        <ele>242</ele>
        <time>2026-03-26T14:21:10.000Z</time>
      </trkpt>
      <trkpt lat="46.35047" lon="4.70623">
        <ele>240</ele>
        <time>2026-03-26T14:21:16.000Z</time>
      </trkpt>
      <trkpt lat="46.35049" lon="4.70639">
        <ele>240</ele>
        <time>2026-03-26T14:21:22.000Z</time>
      </trkpt>
      <trkpt lat="46.35052" lon="4.70655">
        <ele>240</ele>
        <time>2026-03-26T14:21:26.000Z</time>
      </trkpt>
      <trkpt lat="46.35054" lon="4.70673">
        <ele>242</ele>
        <time>2026-03-26T14:21:29.000Z</time>
      </trkpt>
      <trkpt lat="46.35056" lon="4.7069">
        <ele>243</ele>
        <time>2026-03-26T14:21:37.000Z</time>
      </trkpt>
      <trkpt lat="46.3506" lon="4.70706">
        <ele>244</ele>
        <time>2026-03-26T14:21:46.000Z</time>
      </trkpt>
      <trkpt lat="46.35067" lon="4.70723">
        <ele>246</ele>
        <time>2026-03-26T14:21:55.000Z</time>
      </trkpt>
      <trkpt lat="46.35074" lon="4.70747">
        <ele>243</ele>
        <time>2026-03-26T14:22:02.000Z</time>
      </trkpt>
      <trkpt lat="46.35079" lon="4.70764">
        <ele>239</ele>
        <time>2026-03-26T14:22:06.000Z</time>
      </trkpt>
      <trkpt lat="46.35086" lon="4.70778">
        <ele>237</ele>
        <time>2026-03-26T14:22:12.000Z</time>
      </trkpt>
      <trkpt lat="46.35094" lon="4.70791">
        <ele>238</ele>
        <time>2026-03-26T14:22:18.000Z</time>
      </trkpt>
      <trkpt lat="46.35103" lon="4.70803">
        <ele>239</ele>
        <time>2026-03-26T14:22:23.000Z</time>
      </trkpt>
      <trkpt lat="46.35111" lon="4.70814">
        <ele>239</ele>
        <time>2026-03-26T14:22:29.000Z</time>
      </trkpt>
      <trkpt lat="46.35117" lon="4.70817">
        <ele>240</ele>
        <time>2026-03-26T14:22:35.000Z</time>
      </trkpt>
      <trkpt lat="46.35114" lon="4.70794">
        <ele>239</ele>
        <time>2026-03-26T14:22:38.000Z</time>
      </trkpt>
      <trkpt lat="46.35111" lon="4.70771">
        <ele>239</ele>
        <time>2026-03-26T14:22:42.000Z</time>
      </trkpt>
      <trkpt lat="46.35101" lon="4.70765">
        <ele>239</ele>
        <time>2026-03-26T14:23:03.000Z</time>
      </trkpt>
      <trkpt lat="46.35098" lon="4.70778">
        <ele>239</ele>
        <time>2026-03-26T14:23:12.000Z</time>
      </trkpt>
      <trkpt lat="46.35097" lon="4.70793">
        <ele>239</ele>
        <time>2026-03-26T14:23:20.000Z</time>
      </trkpt>
      <trkpt lat="46.35094" lon="4.70806">
        <ele>239</ele>
        <time>2026-03-26T14:23:36.000Z</time>
      </trkpt>
      <trkpt lat="46.35089" lon="4.70817">
        <ele>239</ele>
        <time>2026-03-26T14:24:14.000Z</time>
      </trkpt>
      <trkpt lat="46.35084" lon="4.70829">
        <ele>238</ele>
        <time>2026-03-26T14:24:24.000Z</time>
      </trkpt>
      <trkpt lat="46.35078" lon="4.7084">
        <ele>237</ele>
        <time>2026-03-26T14:24:31.000Z</time>
      </trkpt>
      <trkpt lat="46.35071" lon="4.70852">
        <ele>237</ele>
        <time>2026-03-26T14:24:37.000Z</time>
      </trkpt>
      <trkpt lat="46.35065" lon="4.70864">
        <ele>237</ele>
        <time>2026-03-26T14:24:43.000Z</time>
      </trkpt>
      <trkpt lat="46.35058" lon="4.70876">
        <ele>238</ele>
        <time>2026-03-26T14:24:49.000Z</time>
      </trkpt>
      <trkpt lat="46.35052" lon="4.70888">
        <ele>237</ele>
        <time>2026-03-26T14:24:54.000Z</time>
      </trkpt>
      <trkpt lat="46.35046" lon="4.70898">
        <ele>237</ele>
        <time>2026-03-26T14:25:00.000Z</time>
      </trkpt>
      <trkpt lat="46.35039" lon="4.70909">
        <ele>237</ele>
        <time>2026-03-26T14:25:08.000Z</time>
      </trkpt>
      <trkpt lat="46.35034" lon="4.70921">
        <ele>237</ele>
        <time>2026-03-26T14:25:17.000Z</time>
      </trkpt>
      <trkpt lat="46.35038" lon="4.70933">
        <ele>236</ele>
        <time>2026-03-26T14:25:46.000Z</time>
      </trkpt>
      <trkpt lat="46.35038" lon="4.70946">
        <ele>236</ele>
        <time>2026-03-26T14:25:54.000Z</time>
      </trkpt>
      <trkpt lat="46.35037" lon="4.70959">
        <ele>236</ele>
        <time>2026-03-26T14:26:00.000Z</time>
      </trkpt>
      <trkpt lat="46.35039" lon="4.70971">
        <ele>236</ele>
        <time>2026-03-26T14:26:08.000Z</time>
      </trkpt>
      <trkpt lat="46.35048" lon="4.70972">
        <ele>236</ele>
        <time>2026-03-26T14:26:16.000Z</time>
      </trkpt>
      <trkpt lat="46.35058" lon="4.70969">
        <ele>236</ele>
        <time>2026-03-26T14:26:24.000Z</time>
      </trkpt>
      <trkpt lat="46.35068" lon="4.70968">
        <ele>236</ele>
        <time>2026-03-26T14:26:32.000Z</time>
      </trkpt>
      <trkpt lat="46.35077" lon="4.70968">
        <ele>236</ele>
        <time>2026-03-26T14:26:39.000Z</time>
      </trkpt>
      <trkpt lat="46.35085" lon="4.70973">
        <ele>237</ele>
        <time>2026-03-26T14:26:47.000Z</time>
      </trkpt>
      <trkpt lat="46.35089" lon="4.70985">
        <ele>237</ele>
        <time>2026-03-26T14:26:53.000Z</time>
      </trkpt>
      <trkpt lat="46.3509" lon="4.70998">
        <ele>237</ele>
        <time>2026-03-26T14:26:59.000Z</time>
      </trkpt>
      <trkpt lat="46.35089" lon="4.71013">
        <ele>237</ele>
        <time>2026-03-26T14:27:05.000Z</time>
      </trkpt>
      <trkpt lat="46.35086" lon="4.71026">
        <ele>237</ele>
        <time>2026-03-26T14:27:11.000Z</time>
      </trkpt>
      <trkpt lat="46.35085" lon="4.71041">
        <ele>238</ele>
        <time>2026-03-26T14:27:18.000Z</time>
      </trkpt>
      <trkpt lat="46.35083" lon="4.71054">
        <ele>238</ele>
        <time>2026-03-26T14:27:24.000Z</time>
      </trkpt>
      <trkpt lat="46.35078" lon="4.71067">
        <ele>238</ele>
        <time>2026-03-26T14:27:31.000Z</time>
      </trkpt>
      <trkpt lat="46.35075" lon="4.7108">
        <ele>238</ele>
        <time>2026-03-26T14:27:39.000Z</time>
      </trkpt>
      <trkpt lat="46.35071" lon="4.71093">
        <ele>239</ele>
        <time>2026-03-26T14:27:47.000Z</time>
      </trkpt>
      <trkpt lat="46.35067" lon="4.71106">
        <ele>239</ele>
        <time>2026-03-26T14:27:55.000Z</time>
      </trkpt>
      <trkpt lat="46.35062" lon="4.7112">
        <ele>239</ele>
        <time>2026-03-26T14:28:03.000Z</time>
      </trkpt>
      <trkpt lat="46.35057" lon="4.71135">
        <ele>239</ele>
        <time>2026-03-26T14:28:10.000Z</time>
      </trkpt>
      <trkpt lat="46.35053" lon="4.71147">
        <ele>239</ele>
        <time>2026-03-26T14:28:16.000Z</time>
      </trkpt>
      <trkpt lat="46.35046" lon="4.71156">
        <ele>238</ele>
        <time>2026-03-26T14:28:22.000Z</time>
      </trkpt>
      <trkpt lat="46.35037" lon="4.71166">
        <ele>237</ele>
        <time>2026-03-26T14:28:30.000Z</time>
      </trkpt>
      <trkpt lat="46.35031" lon="4.71178">
        <ele>236</ele>
        <time>2026-03-26T14:28:39.000Z</time>
      </trkpt>
      <trkpt lat="46.35027" lon="4.71191">
        <ele>238</ele>
        <time>2026-03-26T14:28:47.000Z</time>
      </trkpt>
      <trkpt lat="46.35025" lon="4.71206">
        <ele>238</ele>
        <time>2026-03-26T14:28:55.000Z</time>
      </trkpt>
      <trkpt lat="46.35024" lon="4.7122">
        <ele>238</ele>
        <time>2026-03-26T14:29:03.000Z</time>
      </trkpt>
      <trkpt lat="46.3502" lon="4.71233">
        <ele>237</ele>
        <time>2026-03-26T14:29:11.000Z</time>
      </trkpt>
      <trkpt lat="46.35012" lon="4.71246">
        <ele>237</ele>
        <time>2026-03-26T14:29:46.000Z</time>
      </trkpt>
      <trkpt lat="46.35005" lon="4.71257">
        <ele>237</ele>
        <time>2026-03-26T14:29:49.000Z</time>
      </trkpt>
      <trkpt lat="46.34999" lon="4.71268">
        <ele>237</ele>
        <time>2026-03-26T14:29:55.000Z</time>
      </trkpt>
      <trkpt lat="46.34993" lon="4.7128">
        <ele>237</ele>
        <time>2026-03-26T14:30:03.000Z</time>
      </trkpt>
      <trkpt lat="46.34987" lon="4.71293">
        <ele>236</ele>
        <time>2026-03-26T14:30:11.000Z</time>
      </trkpt>
      <trkpt lat="46.34982" lon="4.71305">
        <ele>236</ele>
        <time>2026-03-26T14:30:18.000Z</time>
      </trkpt>
      <trkpt lat="46.34976" lon="4.71316">
        <ele>236</ele>
        <time>2026-03-26T14:30:26.000Z</time>
      </trkpt>
      <trkpt lat="46.34972" lon="4.71328">
        <ele>236</ele>
        <time>2026-03-26T14:30:32.000Z</time>
      </trkpt>
      <trkpt lat="46.34966" lon="4.71341">
        <ele>236</ele>
        <time>2026-03-26T14:30:39.000Z</time>
      </trkpt>
      <trkpt lat="46.34962" lon="4.71357">
        <ele>235</ele>
        <time>2026-03-26T14:30:48.000Z</time>
      </trkpt>
      <trkpt lat="46.34957" lon="4.71371">
        <ele>235</ele>
        <time>2026-03-26T14:30:56.000Z</time>
      </trkpt>
      <trkpt lat="46.34952" lon="4.71381">
        <ele>235</ele>
        <time>2026-03-26T14:31:01.000Z</time>
      </trkpt>
      <trkpt lat="46.34945" lon="4.71391">
        <ele>236</ele>
        <time>2026-03-26T14:31:07.000Z</time>
      </trkpt>
      <trkpt lat="46.34941" lon="4.71402">
        <ele>235</ele>
        <time>2026-03-26T14:31:13.000Z</time>
      </trkpt>
      <trkpt lat="46.34938" lon="4.71415">
        <ele>235</ele>
        <time>2026-03-26T14:31:19.000Z</time>
      </trkpt>
      <trkpt lat="46.34936" lon="4.7143">
        <ele>236</ele>
        <time>2026-03-26T14:31:27.000Z</time>
      </trkpt>
      <trkpt lat="46.34933" lon="4.71442">
        <ele>236</ele>
        <time>2026-03-26T14:31:33.000Z</time>
      </trkpt>
      <trkpt lat="46.34927" lon="4.71454">
        <ele>236</ele>
        <time>2026-03-26T14:31:40.000Z</time>
      </trkpt>
      <trkpt lat="46.34921" lon="4.71466">
        <ele>236</ele>
        <time>2026-03-26T14:31:49.000Z</time>
      </trkpt>
      <trkpt lat="46.34913" lon="4.71476">
        <ele>236</ele>
        <time>2026-03-26T14:31:58.000Z</time>
      </trkpt>
      <trkpt lat="46.34905" lon="4.71482">
        <ele>236</ele>
        <time>2026-03-26T14:32:06.000Z</time>
      </trkpt>
      <trkpt lat="46.34894" lon="4.71482">
        <ele>236</ele>
        <time>2026-03-26T14:32:15.000Z</time>
      </trkpt>
      <trkpt lat="46.34884" lon="4.71485">
        <ele>236</ele>
        <time>2026-03-26T14:32:25.000Z</time>
      </trkpt>
      <trkpt lat="46.34876" lon="4.71494">
        <ele>236</ele>
        <time>2026-03-26T14:32:33.000Z</time>
      </trkpt>
      <trkpt lat="46.34868" lon="4.715">
        <ele>236</ele>
        <time>2026-03-26T14:32:41.000Z</time>
      </trkpt>
      <trkpt lat="46.34859" lon="4.71501">
        <ele>235</ele>
        <time>2026-03-26T14:32:49.000Z</time>
      </trkpt>
    </trkseg>
  </trk>
</gpx>